Time,TemperatureF,DewpointF,PressureIn,WindDirection,WindDirectionDegrees,WindSpeedMPH,WindSpeedGustMPH,Humidity,HourlyPrecipIn,Conditions,Clouds,dailyrainin,SolarRadiationWatts/m^2,SoftwareType,DateUTC
2013-03-22 00:00:00,57.6,45.5,29.83,West,264,0.0,0.0,64,0.00,,,0.00,0.00,VWS V14.00,2013-03-22 05:00:00,
2013-03-22 00:01:00,57.5,45.4,29.83,West,264,0.0,0.0,64,0.00,,,0.00,0.00,VWS V14.00,2013-03-22 05:01:00,
2013-03-22 00:02:00,57.5,45.4,29.83,West,261,0.0,0.0,64,0.00,,,0.00,0.00,VWS V14.00,2013-03-22 05:02:00,
2013-03-22 00:03:00,57.5,45.4,29.83,WSW,242,0.0,0.0,64,0.00,,,0.00,0.00,VWS V14.00,2013-03-22 05:03:00,
2013-03-22 00:04:00,57.5,45.8,29.83,WSW,238,0.0,0.0,65,0.00,,,0.00,0.00,VWS V14.00,2013-03-22 05:04:00,
2013-03-22 00:05:00,57.5,45.8,29.83,SE,138,0.0,0.0,65,0.00,,,0.00,0.00,VWS V14.00,2013-03-22 05:05:00,
2013-03-22 00:06:00,57.5,45.8,29.83,SE,138,0.0,0.0,65,0.00,,,0.00,0.00,VWS V14.00,2013-03-22 05:06:00,
2013-03-22 00:07:00,57.5,45.8,29.83,SE,138,0.0,0.0,65,0.00,,,0.00,0.00,VWS V14.00,2013-03-22 05:07:00,
2013-03-22 00:08:00,57.5,45.8,29.83,SE,138,0.0,0.0,65,0.00,,,0.00,0.00,VWS V14.00,2013-03-22 05:08:00,
2013-03-22 00:09:00,57.5,45.8,29.83,SE,138,0.0,0.0,65,0.00,,,0.00,0.00,VWS V14.00,2013-03-22 05:09:00,
2013-03-22 00:10:00,57.5,45.8,29.83,SE,138,0.0,0.0,65,0.00,,,0.00,0.00,VWS V14.00,2013-03-22 05:10:00,
2013-03-22 00:11:00,57.5,45.8,29.83,SE,138,0.0,0.0,65,0.00,,,0.00,0.00,VWS V14.00,2013-03-22 05:11:00,
2013-03-22 00:12:00,57.5,45.8,29.83,SE,138,0.0,0.0,65,0.00,,,0.00,0.00,VWS V14.00,2013-03-22 05:12:00,
2013-03-22 00:13:00,57.5,45.8,29.83,SE,138,0.0,0.0,65,0.00,,,0.00,0.00,VWS V14.00,2013-03-22 05:13:00,
2013-03-22 00:14:00,57.5,45.8,29.83,SE,138,0.0,0.0,65,0.00,,,0.00,0.00,VWS V14.00,2013-03-22 05:14:00,
2013-03-22 00:15:00,57.5,45.8,29.83,SE,138,0.0,0.0,65,0.00,,,0.00,0.00,VWS V14.00,2013-03-22 05:15:00,
2013-03-22 00:16:00,57.5,45.8,29.83,SE,138,0.0,0.0,65,0.00,,,0.00,0.00,VWS V14.00,2013-03-22 05:16:00,
2013-03-22 00:17:00,57.5,45.8,29.83,SE,138,0.0,0.0,65,0.00,,,0.00,0.00,VWS V14.00,2013-03-22 05:17:00,
2013-03-22 00:18:00,57.5,45.8,29.83,SE,138,0.0,0.0,65,0.00,,,0.00,0.00,VWS V14.00,2013-03-22 05:18:00,
2013-03-22 00:19:00,57.5,45.8,29.83,SE,138,0.0,0.0,65,0.00,,,0.00,0.00,VWS V14.00,2013-03-22 05:19:00,
2013-03-22 00:20:00,57.5,45.8,29.83,SE,138,0.0,0.0,65,0.00,,,0.00,0.00,VWS V14.00,2013-03-22 05:20:00,
2013-03-22 00:21:00,57.5,45.8,29.83,SE,138,0.0,0.0,65,0.00,,,0.00,0.00,VWS V14.00,2013-03-22 05:21:00,
2013-03-22 00:22:00,57.5,45.8,29.83,SE,138,0.0,0.0,65,0.00,,,0.00,0.00,VWS V14.00,2013-03-22 05:22:00,
2013-03-22 00:23:00,57.5,46.2,29.83,SE,132,0.0,0.0,66,0.00,,,0.00,0.00,VWS V14.00,2013-03-22 05:23:00,
2013-03-22 00:24:00,57.5,46.2,29.83,SE,132,0.0,0.0,66,0.00,,,0.00,0.00,VWS V14.00,2013-03-22 05:24:00,
2013-03-22 00:25:00,57.5,46.2,29.83,SE,132,0.0,0.0,66,0.00,,,0.00,0.00,VWS V14.00,2013-03-22 05:25:00,
2013-03-22 00:26:00,57.5,46.2,29.83,SE,132,0.0,0.0,66,0.00,,,0.00,0.00,VWS V14.00,2013-03-22 05:26:00,
2013-03-22 00:27:00,57.5,46.2,29.83,SE,132,0.0,0.0,66,0.00,,,0.00,0.00,VWS V14.00,2013-03-22 05:27:00,
2013-03-22 00:28:00,57.5,46.2,29.83,SE,132,0.0,0.0,66,0.00,,,0.00,0.00,VWS V14.00,2013-03-22 05:28:00,
2013-03-22 00:29:00,57.5,46.2,29.83,SE,132,0.0,0.0,66,0.00,,,0.00,0.00,VWS V14.00,2013-03-22 05:29:00,
2013-03-22 00:30:00,57.5,46.2,29.83,SE,132,0.0,0.0,66,0.00,,,0.00,0.00,VWS V14.00,2013-03-22 05:30:00,
2013-03-22 00:31:00,57.5,46.6,29.83,SE,132,0.0,0.0,67,0.00,,,0.00,0.00,VWS V14.00,2013-03-22 05:31:00,
2013-03-22 00:32:00,57.3,46.5,29.83,SE,136,0.0,0.0,67,0.00,,,0.00,0.00,VWS V14.00,2013-03-22 05:32:00,
2013-03-22 00:33:00,57.3,46.5,29.83,SE,136,0.0,0.0,67,0.00,,,0.00,0.00,VWS V14.00,2013-03-22 05:33:00,
2013-03-22 00:34:00,57.3,46.5,29.83,SE,136,0.0,0.0,67,0.00,,,0.00,0.00,VWS V14.00,2013-03-22 05:34:00,
2013-03-22 00:35:00,57.3,46.5,29.83,SE,136,0.0,0.0,67,0.00,,,0.00,0.00,VWS V14.00,2013-03-22 05:35:00,
2013-03-22 00:36:00,57.3,46.5,29.83,SE,136,0.0,0.0,67,0.00,,,0.00,0.00,VWS V14.00,2013-03-22 05:36:00,
2013-03-22 00:37:00,57.3,46.5,29.83,SE,136,0.0,0.0,67,0.00,,,0.00,0.00,VWS V14.00,2013-03-22 05:37:00,
2013-03-22 00:38:00,57.3,46.5,29.83,SE,136,0.0,0.0,67,0.00,,,0.00,0.00,VWS V14.00,2013-03-22 05:38:00,
2013-03-22 00:39:00,57.3,46.5,29.83,SE,136,0.0,0.0,67,0.00,,,0.00,0.00,VWS V14.00,2013-03-22 05:39:00,
2013-03-22 00:40:00,57.3,46.5,29.83,SE,136,0.0,0.0,67,0.00,,,0.00,0.00,VWS V14.00,2013-03-22 05:40:00,
2013-03-22 00:41:00,57.3,46.5,29.83,SE,136,0.0,0.0,67,0.00,,,0.00,0.00,VWS V14.00,2013-03-22 05:41:00,
2013-03-22 00:42:00,57.3,46.5,29.83,SE,136,0.0,0.0,67,0.00,,,0.00,0.00,VWS V14.00,2013-03-22 05:42:00,
2013-03-22 00:43:00,57.3,46.5,29.83,SE,136,0.0,0.0,67,0.00,,,0.00,0.00,VWS V14.00,2013-03-22 05:43:00,
2013-03-22 00:44:00,57.3,46.5,29.83,SE,136,0.0,0.0,67,0.00,,,0.00,0.00,VWS V14.00,2013-03-22 05:44:00,
2013-03-22 00:45:00,57.3,46.5,29.83,SE,136,0.0,0.0,67,0.00,,,0.00,0.00,VWS V14.00,2013-03-22 05:45:00,
2013-03-22 00:46:00,57.3,46.5,29.83,SE,136,0.0,0.0,67,0.00,,,0.00,0.00,VWS V14.00,2013-03-22 05:46:00,
2013-03-22 00:47:00,57.3,46.8,29.83,SE,136,0.0,0.0,68,0.00,,,0.00,0.00,VWS V14.00,2013-03-22 05:47:00,
2013-03-22 00:48:00,57.3,46.8,29.83,SE,136,0.0,0.0,68,0.00,,,0.00,0.00,VWS V14.00,2013-03-22 05:48:00,
2013-03-22 00:49:00,57.3,46.8,29.83,ESE,117,0.0,0.0,68,0.00,,,0.00,0.00,VWS V14.00,2013-03-22 05:49:00,
2013-03-22 00:50:00,57.3,46.8,29.83,ESE,117,0.0,0.0,68,0.00,,,0.00,0.00,VWS V14.00,2013-03-22 05:50:00,
2013-03-22 00:51:00,57.3,46.8,29.83,ESE,117,0.0,0.0,68,0.00,,,0.00,0.00,VWS V14.00,2013-03-22 05:51:00,
2013-03-22 00:52:00,57.3,46.8,29.83,ESE,117,0.0,0.0,68,0.00,,,0.00,0.00,VWS V14.00,2013-03-22 05:52:00,
2013-03-22 00:53:00,57.3,46.8,29.83,ESE,121,0.0,0.0,68,0.00,,,0.00,0.00,VWS V14.00,2013-03-22 05:53:00,
2013-03-22 00:54:00,57.3,46.8,29.83,SE,134,0.0,0.0,68,0.00,,,0.00,0.00,VWS V14.00,2013-03-22 05:54:00,
2013-03-22 00:55:00,57.3,47.2,29.83,South,188,0.0,0.0,69,0.00,,,0.00,0.00,VWS V14.00,2013-03-22 05:55:00,
2013-03-22 00:56:00,57.3,47.2,29.83,South,188,0.0,0.0,69,0.00,,,0.00,0.00,VWS V14.00,2013-03-22 05:56:00,
2013-03-22 00:57:00,57.5,47.4,29.83,South,189,0.0,0.0,69,0.00,,,0.00,0.00,VWS V14.00,2013-03-22 05:57:00,
2013-03-22 00:58:00,57.5,47.4,29.83,South,190,0.0,0.0,69,0.00,,,0.00,0.00,VWS V14.00,2013-03-22 05:58:00,
2013-03-22 00:59:00,57.5,47.4,29.82,South,190,0.0,0.0,69,0.00,,,0.00,0.00,VWS V14.00,2013-03-22 05:59:00,
2013-03-22 01:00:00,57.5,47.4,29.82,South,190,0.0,0.0,69,0.00,,,0.00,0.00,VWS V14.00,2013-03-22 06:00:00,
2013-03-22 01:01:00,57.5,47.4,29.82,South,190,0.0,0.0,69,0.00,,,0.00,0.00,VWS V14.00,2013-03-22 06:01:00,
2013-03-22 01:02:00,57.5,47.4,29.82,South,188,0.0,0.0,69,0.00,,,0.00,0.00,VWS V14.00,2013-03-22 06:02:00,
2013-03-22 01:03:00,57.5,47.8,29.82,SE,141,0.0,0.0,70,0.00,,,0.00,0.00,VWS V14.00,2013-03-22 06:03:00,
2013-03-22 01:04:00,57.5,47.8,29.82,SE,141,0.0,0.0,70,0.00,,,0.00,0.00,VWS V14.00,2013-03-22 06:04:00,
2013-03-22 01:05:00,57.5,47.8,29.82,SE,141,0.0,0.0,70,0.00,,,0.00,0.00,VWS V14.00,2013-03-22 06:05:00,
2013-03-22 01:06:00,57.5,47.8,29.82,SE,141,0.0,0.0,70,0.00,,,0.00,0.00,VWS V14.00,2013-03-22 06:06:00,
2013-03-22 01:07:00,57.6,47.9,29.82,SE,146,0.0,0.0,70,0.00,,,0.00,0.00,VWS V14.00,2013-03-22 06:07:00,
2013-03-22 01:08:00,57.6,47.9,29.82,SW,219,0.0,0.0,70,0.00,,,0.00,0.00,VWS V14.00,2013-03-22 06:08:00,
2013-03-22 01:09:00,57.6,47.9,29.82,SW,218,0.0,0.0,70,0.00,,,0.00,0.00,VWS V14.00,2013-03-22 06:09:00,
2013-03-22 01:10:00,57.6,47.9,29.82,SW,218,0.0,0.0,70,0.00,,,0.00,0.00,VWS V14.00,2013-03-22 06:10:00,
2013-03-22 01:11:00,57.6,47.9,29.82,SE,137,0.0,0.0,70,0.00,,,0.00,0.00,VWS V14.00,2013-03-22 06:11:00,
2013-03-22 01:12:00,57.6,47.9,29.82,SE,132,0.0,0.0,70,0.00,,,0.00,0.00,VWS V14.00,2013-03-22 06:12:00,
2013-03-22 01:13:00,57.6,47.9,29.82,SE,132,0.0,0.0,70,0.00,,,0.00,0.00,VWS V14.00,2013-03-22 06:13:00,
2013-03-22 01:14:00,57.6,47.9,29.83,SE,132,0.0,0.0,70,0.00,,,0.00,0.00,VWS V14.00,2013-03-22 06:14:00,
2013-03-22 01:15:00,57.8,48.1,29.83,SE,143,0.0,0.0,70,0.00,,,0.00,0.00,VWS V14.00,2013-03-22 06:15:00,
2013-03-22 01:16:00,57.8,48.1,29.83,SE,136,0.0,0.0,70,0.00,,,0.00,0.00,VWS V14.00,2013-03-22 06:16:00,
2013-03-22 01:17:00,57.8,48.1,29.83,SE,136,0.0,0.0,70,0.00,,,0.00,0.00,VWS V14.00,2013-03-22 06:17:00,
2013-03-22 01:18:00,57.8,48.1,29.83,SE,136,0.0,0.0,70,0.00,,,0.00,0.00,VWS V14.00,2013-03-22 06:18:00,
2013-03-22 01:19:00,57.8,48.5,29.83,SE,136,0.0,0.0,71,0.00,,,0.00,0.00,VWS V14.00,2013-03-22 06:19:00,
2013-03-22 01:20:00,57.8,48.5,29.83,SE,138,0.0,0.0,71,0.00,,,0.00,0.00,VWS V14.00,2013-03-22 06:20:00,
2013-03-22 01:22:00,58.0,48.7,29.83,SE,126,0.0,0.0,71,0.00,,,0.00,0.00,VWS V14.00,2013-03-22 06:22:00,
2013-03-22 01:23:00,58.0,48.7,29.83,SE,141,0.0,0.0,71,0.00,,,0.00,0.00,VWS V14.00,2013-03-22 06:23:00,
2013-03-22 01:24:00,58.0,48.7,29.83,SE,141,0.0,0.0,71,0.00,,,0.00,0.00,VWS V14.00,2013-03-22 06:24:00,
2013-03-22 01:25:00,58.0,48.7,29.83,SE,141,0.0,0.0,71,0.00,,,0.00,0.00,VWS V14.00,2013-03-22 06:25:00,
2013-03-22 01:26:00,58.0,48.7,29.83,SE,142,0.0,0.0,71,0.00,,,0.00,0.00,VWS V14.00,2013-03-22 06:26:00,
2013-03-22 01:27:00,58.1,48.8,29.83,SE,142,0.0,0.0,71,0.00,,,0.00,0.00,VWS V14.00,2013-03-22 06:27:00,
2013-03-22 01:28:00,58.1,48.8,29.83,SE,142,0.0,0.0,71,0.00,,,0.00,0.00,VWS V14.00,2013-03-22 06:28:00,
2013-03-22 01:29:00,58.1,48.8,29.83,SE,142,0.0,0.0,71,0.00,,,0.00,0.00,VWS V14.00,2013-03-22 06:29:00,
2013-03-22 01:30:00,58.1,48.8,29.83,SE,142,0.0,0.0,71,0.00,,,0.00,0.00,VWS V14.00,2013-03-22 06:30:00,
2013-03-22 01:31:00,58.1,48.8,29.83,SE,142,0.0,0.0,71,0.00,,,0.00,0.00,VWS V14.00,2013-03-22 06:31:00,
2013-03-22 01:32:00,58.1,48.8,29.83,SE,142,0.0,0.0,71,0.00,,,0.00,0.00,VWS V14.00,2013-03-22 06:32:00,
2013-03-22 01:33:00,58.1,48.8,29.83,SE,142,0.0,0.0,71,0.00,,,0.00,0.00,VWS V14.00,2013-03-22 06:33:00,
2013-03-22 01:34:00,58.1,48.8,29.83,SE,142,0.0,0.0,71,0.00,,,0.00,0.00,VWS V14.00,2013-03-22 06:34:00,
2013-03-22 01:35:00,58.1,48.8,29.83,SE,141,0.0,0.0,71,0.00,,,0.00,0.00,VWS V14.00,2013-03-22 06:35:00,
2013-03-22 01:36:00,58.1,48.8,29.83,SE,141,0.0,0.0,71,0.00,,,0.00,0.00,VWS V14.00,2013-03-22 06:36:00,
2013-03-22 01:37:00,58.1,48.8,29.83,SE,141,0.0,0.0,71,0.00,,,0.00,0.00,VWS V14.00,2013-03-22 06:37:00,
2013-03-22 01:38:00,58.1,48.8,29.83,SE,141,0.0,0.0,71,0.00,,,0.00,0.00,VWS V14.00,2013-03-22 06:38:00,
2013-03-22 01:39:00,58.1,48.8,29.83,SE,141,0.0,0.0,71,0.00,,,0.00,0.00,VWS V14.00,2013-03-22 06:39:00,
2013-03-22 01:40:00,58.1,48.8,29.83,SE,141,0.0,0.0,71,0.00,,,0.00,0.00,VWS V14.00,2013-03-22 06:40:00,
2013-03-22 01:41:00,58.1,48.8,29.83,SE,141,0.0,0.0,71,0.00,,,0.00,0.00,VWS V14.00,2013-03-22 06:41:00,
2013-03-22 01:42:00,58.1,48.8,29.83,SE,141,0.0,0.0,71,0.00,,,0.00,0.00,VWS V14.00,2013-03-22 06:42:00,
2013-03-22 01:43:00,58.1,48.8,29.83,SE,141,0.0,0.0,71,0.00,,,0.00,0.00,VWS V14.00,2013-03-22 06:43:00,
2013-03-22 01:44:00,58.1,48.8,29.83,SE,141,0.0,0.0,71,0.00,,,0.00,0.00,VWS V14.00,2013-03-22 06:44:00,
2013-03-22 01:45:00,58.1,48.8,29.83,SE,141,0.0,0.0,71,0.00,,,0.00,0.00,VWS V14.00,2013-03-22 06:45:00,
2013-03-22 01:46:00,58.1,48.8,29.83,SE,141,0.0,0.0,71,0.00,,,0.00,0.00,VWS V14.00,2013-03-22 06:46:00,
2013-03-22 01:47:00,58.0,48.7,29.83,SE,141,0.0,0.0,71,0.00,,,0.00,0.00,VWS V14.00,2013-03-22 06:47:00,
2013-03-22 01:48:00,58.0,48.7,29.83,SE,141,0.0,0.0,71,0.00,,,0.00,0.00,VWS V14.00,2013-03-22 06:48:00,
2013-03-22 01:49:00,58.0,48.7,29.83,SE,136,0.0,0.0,71,0.00,,,0.00,0.00,VWS V14.00,2013-03-22 06:49:00,
2013-03-22 01:50:00,58.0,49.0,29.83,SE,136,0.0,0.0,72,0.00,,,0.00,0.00,VWS V14.00,2013-03-22 06:50:00,
2013-03-22 01:51:00,58.0,49.0,29.83,SE,136,0.0,0.0,72,0.00,,,0.00,0.00,VWS V14.00,2013-03-22 06:51:00,
2013-03-22 01:52:00,58.0,49.0,29.83,SE,136,0.0,0.0,72,0.00,,,0.00,0.00,VWS V14.00,2013-03-22 06:52:00,
2013-03-22 01:53:00,58.0,49.0,29.83,SE,136,0.0,0.0,72,0.00,,,0.00,0.00,VWS V14.00,2013-03-22 06:53:00,
2013-03-22 01:54:00,58.0,49.0,29.83,SE,136,0.0,0.0,72,0.00,,,0.00,0.00,VWS V14.00,2013-03-22 06:54:00,
2013-03-22 01:55:00,58.0,49.0,29.83,SE,136,0.0,0.0,72,0.00,,,0.00,0.00,VWS V14.00,2013-03-22 06:55:00,
2013-03-22 01:56:00,57.8,48.8,29.83,SE,136,0.0,0.0,72,0.00,,,0.00,0.00,VWS V14.00,2013-03-22 06:56:00,
2013-03-22 01:57:00,57.8,48.8,29.83,SE,136,0.0,0.0,72,0.00,,,0.00,0.00,VWS V14.00,2013-03-22 06:57:00,
2013-03-22 01:58:00,57.8,48.8,29.83,SE,136,0.0,0.0,72,0.00,,,0.00,0.00,VWS V14.00,2013-03-22 06:58:00,
2013-03-22 01:59:00,57.8,48.8,29.83,SE,136,0.0,0.0,72,0.00,,,0.00,0.00,VWS V14.00,2013-03-22 06:59:00,
2013-03-22 02:00:00,57.8,48.8,29.83,SE,136,0.0,0.0,72,0.00,,,0.00,0.00,VWS V14.00,2013-03-22 07:00:00,
2013-03-22 02:01:00,57.8,48.8,29.83,SE,136,0.0,0.0,72,0.00,,,0.00,0.00,VWS V14.00,2013-03-22 07:01:00,
2013-03-22 02:02:00,57.6,49.0,29.83,SE,136,0.0,0.0,73,0.00,,,0.00,0.00,VWS V14.00,2013-03-22 07:02:00,
2013-03-22 02:03:00,57.6,49.0,29.83,SE,136,0.0,0.0,73,0.00,,,0.00,0.00,VWS V14.00,2013-03-22 07:03:00,
2013-03-22 02:04:00,57.6,49.0,29.83,SE,136,0.0,0.0,73,0.00,,,0.00,0.00,VWS V14.00,2013-03-22 07:04:00,
2013-03-22 02:05:00,57.6,49.0,29.83,SE,136,0.0,0.0,73,0.00,,,0.00,0.00,VWS V14.00,2013-03-22 07:05:00,
2013-03-22 02:06:00,57.6,49.0,29.83,SE,136,0.0,0.0,73,0.00,,,0.00,0.00,VWS V14.00,2013-03-22 07:06:00,
2013-03-22 02:07:00,57.5,48.9,29.83,SE,136,0.0,0.0,73,0.00,,,0.00,0.00,VWS V14.00,2013-03-22 07:07:00,
2013-03-22 02:08:00,57.5,49.3,29.83,SE,136,0.0,0.0,74,0.00,,,0.00,0.00,VWS V14.00,2013-03-22 07:08:00,
2013-03-22 02:09:00,57.5,49.3,29.83,SE,136,0.0,0.0,74,0.00,,,0.00,0.00,VWS V14.00,2013-03-22 07:09:00,
2013-03-22 02:10:00,57.5,49.3,29.83,SE,136,0.0,0.0,74,0.00,,,0.00,0.00,VWS V14.00,2013-03-22 07:10:00,
2013-03-22 02:11:00,57.5,49.3,29.83,SE,136,0.0,0.0,74,0.00,,,0.00,0.00,VWS V14.00,2013-03-22 07:11:00,
2013-03-22 02:12:00,57.3,49.1,29.83,SE,136,0.0,0.0,74,0.00,,,0.00,0.00,VWS V14.00,2013-03-22 07:12:00,
2013-03-22 02:13:00,57.3,49.1,29.83,SE,136,0.0,0.0,74,0.00,,,0.00,0.00,VWS V14.00,2013-03-22 07:13:00,
2013-03-22 02:14:00,57.3,49.1,29.83,SE,136,0.0,0.0,74,0.00,,,0.00,0.00,VWS V14.00,2013-03-22 07:14:00,
2013-03-22 02:15:00,57.3,49.1,29.83,SE,136,0.0,0.0,74,0.00,,,0.00,0.00,VWS V14.00,2013-03-22 07:15:00,
2013-03-22 02:16:00,57.3,49.1,29.83,SE,136,0.0,0.0,74,0.00,,,0.00,0.00,VWS V14.00,2013-03-22 07:16:00,
2013-03-22 02:17:00,57.2,49.4,29.83,SE,136,0.0,0.0,75,0.00,,,0.00,0.00,VWS V14.00,2013-03-22 07:17:00,
2013-03-22 02:18:00,57.2,49.4,29.83,SE,136,0.0,0.0,75,0.00,,,0.00,0.00,VWS V14.00,2013-03-22 07:18:00,
2013-03-22 02:19:00,57.2,49.4,29.83,SE,136,0.0,0.0,75,0.00,,,0.00,0.00,VWS V14.00,2013-03-22 07:19:00,
2013-03-22 02:20:00,57.2,49.4,29.83,SE,136,0.0,0.0,75,0.00,,,0.00,0.00,VWS V14.00,2013-03-22 07:20:00,
2013-03-22 02:21:00,57.0,49.2,29.83,SE,136,0.0,0.0,75,0.00,,,0.00,0.00,VWS V14.00,2013-03-22 07:21:00,
2013-03-22 02:22:00,57.0,49.2,29.83,SE,136,0.0,0.0,75,0.00,,,0.00,0.00,VWS V14.00,2013-03-22 07:22:00,
2013-03-22 02:23:00,57.0,49.5,29.83,SE,136,0.0,0.0,76,0.00,,,0.00,0.00,VWS V14.00,2013-03-22 07:23:00,
2013-03-22 02:24:00,57.0,49.5,29.83,SE,136,0.0,0.0,76,0.00,,,0.00,0.00,VWS V14.00,2013-03-22 07:24:00,
2013-03-22 02:25:00,57.0,49.5,29.83,SE,136,0.0,0.0,76,0.00,,,0.00,0.00,VWS V14.00,2013-03-22 07:25:00,
2013-03-22 02:26:00,57.0,49.5,29.83,SE,136,0.0,0.0,76,0.00,,,0.00,0.00,VWS V14.00,2013-03-22 07:26:00,
2013-03-22 02:27:00,57.0,49.5,29.83,SE,136,0.0,0.0,76,0.00,,,0.00,0.00,VWS V14.00,2013-03-22 07:27:00,
2013-03-22 02:28:00,57.0,49.5,29.83,SE,136,0.0,0.0,76,0.00,,,0.00,0.00,VWS V14.00,2013-03-22 07:28:00,
2013-03-22 02:29:00,57.0,49.5,29.83,SE,136,0.0,0.0,76,0.00,,,0.00,0.00,VWS V14.00,2013-03-22 07:29:00,
2013-03-22 02:30:00,57.0,49.5,29.83,SE,136,0.0,0.0,76,0.00,,,0.00,0.00,VWS V14.00,2013-03-22 07:30:00,
2013-03-22 02:31:00,57.0,49.5,29.83,SE,136,0.0,0.0,76,0.00,,,0.00,0.00,VWS V14.00,2013-03-22 07:31:00,
2013-03-22 02:32:00,57.0,49.5,29.83,SE,136,0.0,0.0,76,0.00,,,0.00,0.00,VWS V14.00,2013-03-22 07:32:00,
2013-03-22 02:33:00,57.0,49.5,29.83,SE,136,0.0,0.0,76,0.00,,,0.00,0.00,VWS V14.00,2013-03-22 07:33:00,
2013-03-22 02:34:00,57.0,49.5,29.83,SE,136,0.0,0.0,76,0.00,,,0.00,0.00,VWS V14.00,2013-03-22 07:34:00,
2013-03-22 02:35:00,57.2,49.7,29.83,SE,136,0.0,0.0,76,0.00,,,0.00,0.00,VWS V14.00,2013-03-22 07:35:00,
2013-03-22 02:36:00,57.2,49.7,29.83,SE,136,0.0,0.0,76,0.00,,,0.00,0.00,VWS V14.00,2013-03-22 07:36:00,
2013-03-22 02:37:00,57.2,49.7,29.83,SE,136,0.0,0.0,76,0.00,,,0.00,0.00,VWS V14.00,2013-03-22 07:37:00,
2013-03-22 02:38:00,57.2,49.7,29.83,SE,136,0.0,0.0,76,0.00,,,0.00,0.00,VWS V14.00,2013-03-22 07:38:00,
2013-03-22 02:39:00,57.3,49.8,29.83,SE,136,0.0,0.0,76,0.00,,,0.00,0.00,VWS V14.00,2013-03-22 07:39:00,
2013-03-22 02:40:00,57.3,49.8,29.83,SE,136,0.0,0.0,76,0.00,,,0.00,0.00,VWS V14.00,2013-03-22 07:40:00,
2013-03-22 02:41:00,57.3,49.8,29.83,SE,136,0.0,0.0,76,0.00,,,0.00,0.00,VWS V14.00,2013-03-22 07:41:00,
2013-03-22 02:42:00,57.3,49.8,29.83,SE,136,0.0,0.0,76,0.00,,,0.00,0.00,VWS V14.00,2013-03-22 07:42:00,
2013-03-22 02:43:00,57.5,50.0,29.83,SE,136,0.0,0.0,76,0.00,,,0.00,0.00,VWS V14.00,2013-03-22 07:43:00,
2013-03-22 02:44:00,57.5,50.0,29.80,SE,136,0.0,0.0,76,0.00,,,0.00,0.00,VWS V14.00,2013-03-22 07:44:00,
2013-03-22 02:45:00,57.5,50.0,29.80,SE,136,0.0,0.0,76,0.00,,,0.00,0.00,VWS V14.00,2013-03-22 07:45:00,
2013-03-22 02:46:00,57.5,50.0,29.80,SE,136,0.0,0.0,76,0.00,,,0.00,0.00,VWS V14.00,2013-03-22 07:46:00,
2013-03-22 02:47:00,57.5,50.0,29.80,SE,136,0.0,0.0,76,0.00,,,0.00,0.00,VWS V14.00,2013-03-22 07:47:00,
2013-03-22 02:48:00,57.6,50.1,29.80,SE,136,0.0,0.0,76,0.00,,,0.00,0.00,VWS V14.00,2013-03-22 07:48:00,
2013-03-22 02:49:00,57.6,50.1,29.80,SE,136,0.0,0.0,76,0.00,,,0.00,0.00,VWS V14.00,2013-03-22 07:49:00,
2013-03-22 02:50:00,57.6,50.1,29.80,SE,135,0.0,0.0,76,0.00,,,0.00,0.00,VWS V14.00,2013-03-22 07:50:00,
2013-03-22 02:51:00,57.8,50.3,29.80,ESE,107,0.0,0.0,76,0.00,,,0.00,0.00,VWS V14.00,2013-03-22 07:51:00,
2013-03-22 02:52:00,57.8,49.9,29.80,SW,215,0.0,0.0,75,0.00,,,0.00,0.00,VWS V14.00,2013-03-22 07:52:00,
2013-03-22 02:53:00,57.8,49.9,29.80,SSE,163,0.0,0.0,75,0.00,,,0.00,0.00,VWS V14.00,2013-03-22 07:53:00,
2013-03-22 02:54:00,58.0,50.1,29.80,ESE,103,0.0,0.0,75,0.00,,,0.00,0.00,VWS V14.00,2013-03-22 07:54:00,
2013-03-22 02:55:00,58.0,50.1,29.80,ESE,104,0.0,0.0,75,0.00,,,0.00,0.00,VWS V14.00,2013-03-22 07:55:00,
2013-03-22 02:56:00,58.1,50.2,29.80,ESE,104,0.0,0.0,75,0.00,,,0.00,0.00,VWS V14.00,2013-03-22 07:56:00,
2013-03-22 02:57:00,58.1,50.2,29.80,SSE,157,0.0,0.0,75,0.00,,,0.00,0.00,VWS V14.00,2013-03-22 07:57:00,
2013-03-22 03:00:00,58.3,50.1,29.79,SSE,151,0.0,0.0,74,0.00,,,0.00,0.00,VWS V14.00,2013-03-22 08:00:00,
2013-03-22 03:01:00,58.3,50.1,29.79,SSE,151,0.0,0.0,74,0.00,,,0.00,0.00,VWS V14.00,2013-03-22 08:01:00,
2013-03-22 03:02:00,58.3,50.1,29.79,SSE,159,0.0,0.0,74,0.00,,,0.00,0.00,VWS V14.00,2013-03-22 08:02:00,
2013-03-22 03:03:00,58.4,50.2,29.79,East,100,0.0,0.0,74,0.00,,,0.00,0.00,VWS V14.00,2013-03-22 08:03:00,
2013-03-22 03:04:00,58.4,50.2,29.79,East,100,0.0,0.0,74,0.00,,,0.00,0.00,VWS V14.00,2013-03-22 08:04:00,
2013-03-22 03:05:00,58.4,50.2,29.79,East,101,0.0,0.0,74,0.00,,,0.00,0.00,VWS V14.00,2013-03-22 08:05:00,
2013-03-22 03:06:00,58.6,50.3,29.79,East,100,0.0,0.0,74,0.00,,,0.00,0.00,VWS V14.00,2013-03-22 08:06:00,
2013-03-22 03:07:00,58.6,50.3,29.79,East,101,0.0,0.0,74,0.00,,,0.00,0.00,VWS V14.00,2013-03-22 08:07:00,
2013-03-22 03:08:00,58.6,50.3,29.79,East,97,0.0,0.0,74,0.00,,,0.00,0.00,VWS V14.00,2013-03-22 08:08:00,
2013-03-22 03:09:00,58.6,50.3,29.79,East,97,0.0,0.0,74,0.00,,,0.00,0.00,VWS V14.00,2013-03-22 08:09:00,
2013-03-22 03:10:00,58.7,50.5,29.79,East,97,0.0,0.0,74,0.00,,,0.00,0.00,VWS V14.00,2013-03-22 08:10:00,
2013-03-22 03:11:00,58.7,50.5,29.79,East,98,0.0,0.0,74,0.00,,,0.00,0.00,VWS V14.00,2013-03-22 08:11:00,
2013-03-22 03:12:00,58.7,50.5,29.79,SE,143,0.0,0.0,74,0.00,,,0.00,0.00,VWS V14.00,2013-03-22 08:12:00,
2013-03-22 03:13:00,58.7,50.5,29.79,SE,145,0.0,0.0,74,0.00,,,0.00,0.00,VWS V14.00,2013-03-22 08:13:00,
2013-03-22 03:14:00,58.7,50.1,29.79,ENE,65,0.0,0.0,73,0.00,,,0.00,0.00,VWS V14.00,2013-03-22 08:14:00,
2013-03-22 03:15:00,58.7,50.1,29.79,ENE,63,0.0,0.0,73,0.00,,,0.00,0.00,VWS V14.00,2013-03-22 08:15:00,
2013-03-22 03:16:00,58.7,49.7,29.79,ESE,105,0.0,0.0,72,0.00,,,0.00,0.00,VWS V14.00,2013-03-22 08:16:00,
2013-03-22 03:17:00,58.7,49.7,29.79,ESE,107,0.0,0.0,72,0.00,,,0.00,0.00,VWS V14.00,2013-03-22 08:17:00,
2013-03-22 03:18:00,58.9,49.9,29.79,ESE,107,0.0,0.0,72,0.00,,,0.00,0.00,VWS V14.00,2013-03-22 08:18:00,
2013-03-22 03:19:00,58.9,49.9,29.79,ESE,107,0.0,0.0,72,0.00,,,0.00,0.00,VWS V14.00,2013-03-22 08:19:00,
2013-03-22 03:20:00,58.9,49.9,29.79,ESE,106,0.0,0.0,72,0.00,,,0.00,0.00,VWS V14.00,2013-03-22 08:20:00,
2013-03-22 03:21:00,58.9,49.9,29.79,ESE,106,0.0,0.0,72,0.00,,,0.00,0.00,VWS V14.00,2013-03-22 08:21:00,
2013-03-22 03:22:00,58.9,49.9,29.79,ESE,111,0.0,0.0,72,0.00,,,0.00,0.00,VWS V14.00,2013-03-22 08:22:00,
2013-03-22 03:23:00,58.9,49.5,29.79,ESE,111,0.0,0.0,71,0.00,,,0.00,0.00,VWS V14.00,2013-03-22 08:23:00,
2013-03-22 03:24:00,58.9,49.5,29.79,ESE,109,0.0,0.0,71,0.00,,,0.00,0.00,VWS V14.00,2013-03-22 08:24:00,
2013-03-22 03:25:00,58.9,49.5,29.79,ESE,109,0.0,0.0,71,0.00,,,0.00,0.00,VWS V14.00,2013-03-22 08:25:00,
2013-03-22 03:26:00,59.0,49.6,29.79,ESE,111,0.0,0.0,71,0.00,,,0.00,0.00,VWS V14.00,2013-03-22 08:26:00,
2013-03-22 03:27:00,59.0,49.6,29.79,ESE,105,0.0,0.0,71,0.00,,,0.00,0.00,VWS V14.00,2013-03-22 08:27:00,
2013-03-22 03:28:00,59.0,49.6,29.79,ESE,103,0.0,0.0,71,0.00,,,0.00,0.00,VWS V14.00,2013-03-22 08:28:00,
2013-03-22 03:29:00,59.0,49.2,29.78,ESE,103,0.0,0.0,70,0.00,,,0.00,0.00,VWS V14.00,2013-03-22 08:29:00,
2013-03-22 03:30:00,59.0,49.2,29.78,East,98,0.0,0.0,70,0.00,,,0.00,0.00,VWS V14.00,2013-03-22 08:30:00,
2013-03-22 03:31:00,59.0,49.2,29.78,SE,133,0.0,0.0,70,0.00,,,0.00,0.00,VWS V14.00,2013-03-22 08:31:00,
2013-03-22 03:32:00,59.0,49.2,29.78,ESE,122,0.0,0.0,70,0.00,,,0.00,0.00,VWS V14.00,2013-03-22 08:32:00,
2013-03-22 03:33:00,59.0,49.2,29.78,ESE,102,0.0,0.0,70,0.00,,,0.00,0.00,VWS V14.00,2013-03-22 08:33:00,
2013-03-22 03:34:00,59.2,49.0,29.78,SE,126,0.0,0.0,69,0.00,,,0.00,0.00,VWS V14.00,2013-03-22 08:34:00,
2013-03-22 03:35:00,59.2,48.7,29.78,East,88,0.0,0.0,68,0.00,,,0.00,0.00,VWS V14.00,2013-03-22 08:35:00,
2013-03-22 03:36:00,59.2,48.7,29.78,East,89,0.0,0.0,68,0.00,,,0.00,0.00,VWS V14.00,2013-03-22 08:36:00,
2013-03-22 03:37:00,59.2,48.3,29.78,NE,47,0.0,0.0,67,0.00,,,0.00,0.00,VWS V14.00,2013-03-22 08:37:00,
2013-03-22 03:38:00,59.0,47.7,29.78,East,91,0.0,0.0,66,0.00,,,0.00,0.00,VWS V14.00,2013-03-22 08:38:00,
2013-03-22 03:39:00,59.0,46.8,29.78,East,91,0.0,0.0,64,0.00,,,0.00,0.00,VWS V14.00,2013-03-22 08:39:00,
2013-03-22 03:40:00,59.2,47.0,29.78,East,91,0.0,0.0,64,0.00,,,0.00,0.00,VWS V14.00,2013-03-22 08:40:00,
2013-03-22 03:41:00,59.2,47.0,29.78,East,101,0.0,0.0,64,0.00,,,0.00,0.00,VWS V14.00,2013-03-22 08:41:00,
2013-03-22 03:42:00,59.2,47.0,29.78,East,101,0.0,0.0,64,0.00,,,0.00,0.00,VWS V14.00,2013-03-22 08:42:00,
2013-03-22 03:43:00,59.2,46.6,29.78,East,101,0.0,0.0,63,0.00,,,0.00,0.00,VWS V14.00,2013-03-22 08:43:00,
2013-03-22 03:44:00,59.2,46.6,29.78,NE,52,0.0,0.0,63,0.00,,,0.00,0.00,VWS V14.00,2013-03-22 08:44:00,
2013-03-22 03:45:00,59.2,46.6,29.78,ENE,61,0.0,0.0,63,0.00,,,0.00,0.00,VWS V14.00,2013-03-22 08:45:00,
2013-03-22 03:46:00,59.2,46.2,29.78,ESE,117,0.0,0.0,62,0.00,,,0.00,0.00,VWS V14.00,2013-03-22 08:46:00,
2013-03-22 03:47:00,59.2,46.2,29.78,East,97,0.0,0.0,62,0.00,,,0.00,0.00,VWS V14.00,2013-03-22 08:47:00,
2013-03-22 03:48:00,59.2,45.8,29.78,East,99,0.0,0.0,61,0.00,,,0.00,0.00,VWS V14.00,2013-03-22 08:48:00,
2013-03-22 03:49:00,59.2,45.8,29.78,East,96,0.0,0.0,61,0.00,,,0.00,0.00,VWS V14.00,2013-03-22 08:49:00,
2013-03-22 03:50:00,59.2,45.8,29.78,East,96,0.0,0.0,61,0.00,,,0.00,0.00,VWS V14.00,2013-03-22 08:50:00,
2013-03-22 03:51:00,59.2,45.8,29.78,East,96,0.0,0.0,61,0.00,,,0.00,0.00,VWS V14.00,2013-03-22 08:51:00,
2013-03-22 03:52:00,59.2,45.8,29.78,East,97,0.0,0.0,61,0.00,,,0.00,0.00,VWS V14.00,2013-03-22 08:52:00,
2013-03-22 03:53:00,59.2,45.8,29.78,ESE,103,0.0,0.0,61,0.00,,,0.00,0.00,VWS V14.00,2013-03-22 08:53:00,
2013-03-22 03:54:00,59.3,45.9,29.78,East,94,0.0,0.0,61,0.00,,,0.00,0.00,VWS V14.00,2013-03-22 08:54:00,
2013-03-22 03:55:00,59.3,45.9,29.78,East,94,0.0,0.0,61,0.00,,,0.00,0.00,VWS V14.00,2013-03-22 08:55:00,
2013-03-22 03:56:00,59.3,45.9,29.78,SE,128,0.0,0.0,61,0.00,,,0.00,0.00,VWS V14.00,2013-03-22 08:56:00,
2013-03-22 03:57:00,59.3,45.4,29.78,SE,128,0.0,0.0,60,0.00,,,0.00,0.00,VWS V14.00,2013-03-22 08:57:00,
2013-03-22 03:58:00,59.3,45.9,29.78,SE,128,0.0,0.0,61,0.00,,,0.00,0.00,VWS V14.00,2013-03-22 08:58:00,
2013-03-22 03:59:00,59.3,45.4,29.78,SE,128,0.0,0.0,60,0.00,,,0.00,0.00,VWS V14.00,2013-03-22 08:59:00,
2013-03-22 04:00:00,59.3,45.4,29.78,SE,128,0.0,0.0,60,0.00,,,0.00,0.00,VWS V14.00,2013-03-22 09:00:00,
2013-03-22 04:01:00,59.3,45.4,29.78,SE,128,0.0,0.0,60,0.00,,,0.00,0.00,VWS V14.00,2013-03-22 09:01:00,
2013-03-22 04:02:00,59.5,45.6,29.78,SE,128,0.0,0.0,60,0.00,,,0.00,0.00,VWS V14.00,2013-03-22 09:02:00,
2013-03-22 04:03:00,59.5,45.6,29.78,SSE,148,0.0,0.0,60,0.00,,,0.00,0.00,VWS V14.00,2013-03-22 09:03:00,
2013-03-22 04:04:00,59.5,45.6,29.78,ENE,69,0.0,0.0,60,0.00,,,0.00,0.00,VWS V14.00,2013-03-22 09:04:00,
2013-03-22 04:05:00,59.5,45.6,29.78,ENE,71,0.0,0.0,60,0.00,,,0.00,0.00,VWS V14.00,2013-03-22 09:05:00,
2013-03-22 04:06:00,59.5,45.6,29.78,NE,56,0.0,0.0,60,0.00,,,0.00,0.00,VWS V14.00,2013-03-22 09:06:00,
2013-03-22 04:07:00,59.5,45.2,29.78,NE,46,0.0,0.0,59,0.00,,,0.00,0.00,VWS V14.00,2013-03-22 09:07:00,
2013-03-22 04:08:00,59.6,45.7,29.78,East,86,0.0,0.0,60,0.00,,,0.00,0.00,VWS V14.00,2013-03-22 09:08:00,
2013-03-22 04:09:00,59.6,45.3,29.78,East,98,0.0,0.0,59,0.00,,,0.00,0.00,VWS V14.00,2013-03-22 09:09:00,
2013-03-22 04:10:00,59.6,45.3,29.78,ESE,107,0.0,0.0,59,0.00,,,0.00,0.00,VWS V14.00,2013-03-22 09:10:00,
2013-03-22 04:11:00,59.6,45.3,29.78,East,92,0.0,0.0,59,0.00,,,0.00,0.00,VWS V14.00,2013-03-22 09:11:00,
2013-03-22 04:12:00,59.6,45.3,29.78,East,92,0.0,0.0,59,0.00,,,0.00,0.00,VWS V14.00,2013-03-22 09:12:00,
2013-03-22 04:13:00,59.6,44.8,29.78,East,82,0.0,0.0,58,0.00,,,0.00,0.00,VWS V14.00,2013-03-22 09:13:00,
2013-03-22 04:14:00,59.6,44.8,29.77,SE,144,0.0,0.0,58,0.00,,,0.00,0.00,VWS V14.00,2013-03-22 09:14:00,
2013-03-22 04:15:00,59.8,45.0,29.77,SE,126,0.0,0.0,58,0.00,,,0.00,0.00,VWS V14.00,2013-03-22 09:15:00,
2013-03-22 04:16:00,59.8,45.0,29.77,ESE,122,0.0,0.0,58,0.00,,,0.00,0.00,VWS V14.00,2013-03-22 09:16:00,
2013-03-22 04:17:00,59.8,45.5,29.77,ESE,122,0.0,0.0,59,0.00,,,0.00,0.00,VWS V14.00,2013-03-22 09:17:00,
2013-03-22 04:18:00,59.8,45.5,29.77,ESE,121,0.0,0.0,59,0.00,,,0.00,0.00,VWS V14.00,2013-03-22 09:18:00,
2013-03-22 04:19:00,59.8,45.5,29.77,South,179,0.0,0.0,59,0.00,,,0.00,0.00,VWS V14.00,2013-03-22 09:19:00,
2013-03-22 04:20:00,59.8,45.5,29.77,SSE,165,0.0,0.0,59,0.00,,,0.00,0.00,VWS V14.00,2013-03-22 09:20:00,
2013-03-22 04:22:00,59.8,45.0,29.77,SSE,156,0.0,0.0,58,0.00,,,0.00,0.00,VWS V14.00,2013-03-22 09:22:00,
2013-03-22 04:23:00,59.8,45.0,29.77,East,83,0.0,0.0,58,0.00,,,0.00,0.00,VWS V14.00,2013-03-22 09:23:00,
2013-03-22 04:24:00,59.8,45.0,29.77,ENE,75,0.0,0.0,58,0.00,,,0.00,0.00,VWS V14.00,2013-03-22 09:24:00,
2013-03-22 04:25:00,59.8,45.0,29.77,East,82,0.0,0.0,58,0.00,,,0.00,0.00,VWS V14.00,2013-03-22 09:25:00,
2013-03-22 04:26:00,59.9,44.7,29.77,SE,137,0.0,0.0,57,0.00,,,0.00,0.00,VWS V14.00,2013-03-22 09:26:00,
2013-03-22 04:27:00,59.9,44.7,29.77,SE,136,0.0,0.0,57,0.00,,,0.00,0.00,VWS V14.00,2013-03-22 09:27:00,
2013-03-22 04:28:00,59.9,44.7,29.77,SE,143,0.0,0.0,57,0.00,,,0.00,0.00,VWS V14.00,2013-03-22 09:28:00,
2013-03-22 04:29:00,59.9,44.7,29.77,SE,142,0.0,0.0,57,0.00,,,0.00,0.00,VWS V14.00,2013-03-22 09:29:00,
2013-03-22 04:30:00,59.9,45.1,29.77,SE,142,0.0,0.0,58,0.00,,,0.00,0.00,VWS V14.00,2013-03-22 09:30:00,
2013-03-22 04:31:00,59.9,45.1,29.77,ESE,119,0.0,0.0,58,0.00,,,0.00,0.00,VWS V14.00,2013-03-22 09:31:00,
2013-03-22 04:32:00,60.1,45.3,29.77,ESE,107,0.0,0.0,58,0.00,,,0.00,0.00,VWS V14.00,2013-03-22 09:32:00,
2013-03-22 04:33:00,60.1,45.3,29.77,ESE,115,0.0,0.0,58,0.00,,,0.00,0.00,VWS V14.00,2013-03-22 09:33:00,
2013-03-22 04:34:00,60.1,45.3,29.77,SSE,155,0.0,0.0,58,0.00,,,0.00,0.00,VWS V14.00,2013-03-22 09:34:00,
2013-03-22 04:35:00,60.1,45.3,29.77,SSE,152,0.0,0.0,58,0.00,,,0.00,0.00,VWS V14.00,2013-03-22 09:35:00,
2013-03-22 04:36:00,60.1,45.3,29.77,SSE,151,0.0,0.0,58,0.00,,,0.00,0.00,VWS V14.00,2013-03-22 09:36:00,
2013-03-22 04:37:00,60.1,44.8,29.77,SE,144,0.0,0.0,57,0.00,,,0.00,0.00,VWS V14.00,2013-03-22 09:37:00,
2013-03-22 04:38:00,60.1,44.8,29.77,NE,55,0.0,0.0,57,0.00,,,0.00,0.00,VWS V14.00,2013-03-22 09:38:00,
2013-03-22 04:39:00,60.1,44.8,29.77,SE,125,0.0,0.0,57,0.00,,,0.00,0.00,VWS V14.00,2013-03-22 09:39:00,
2013-03-22 04:40:00,60.1,44.8,29.77,ENE,65,0.0,0.0,57,0.00,,,0.00,0.00,VWS V14.00,2013-03-22 09:40:00,
2013-03-22 04:41:00,60.1,45.3,29.77,SE,126,0.0,0.0,58,0.00,,,0.00,0.00,VWS V14.00,2013-03-22 09:41:00,
2013-03-22 04:42:00,60.1,45.3,29.77,SSE,149,0.0,0.0,58,0.00,,,0.00,0.00,VWS V14.00,2013-03-22 09:42:00,
2013-03-22 04:43:00,60.1,45.3,29.77,SE,146,0.0,0.0,58,0.00,,,0.00,0.00,VWS V14.00,2013-03-22 09:43:00,
2013-03-22 04:44:00,60.2,45.4,29.77,ESE,103,0.0,0.0,58,0.00,,,0.00,0.00,VWS V14.00,2013-03-22 09:44:00,
2013-03-22 04:45:00,60.2,45.4,29.76,ESE,110,0.0,0.0,58,0.00,,,0.00,0.00,VWS V14.00,2013-03-22 09:45:00,
2013-03-22 04:46:00,60.2,45.4,29.76,ESE,103,0.0,0.0,58,0.00,,,0.00,0.00,VWS V14.00,2013-03-22 09:46:00,
2013-03-22 04:47:00,60.2,45.4,29.76,East,94,0.0,0.0,58,0.00,,,0.00,0.00,VWS V14.00,2013-03-22 09:47:00,
2013-03-22 04:48:00,60.2,45.4,29.76,SE,133,0.0,0.0,58,0.00,,,0.00,0.00,VWS V14.00,2013-03-22 09:48:00,
2013-03-22 04:49:00,60.2,45.4,29.76,ESE,116,0.0,0.0,58,0.00,,,0.00,0.00,VWS V14.00,2013-03-22 09:49:00,
2013-03-22 04:50:00,60.4,45.6,29.76,SE,126,0.0,0.0,58,0.00,,,0.00,0.00,VWS V14.00,2013-03-22 09:50:00,
2013-03-22 04:51:00,60.4,46.0,29.76,East,95,0.0,0.0,59,0.00,,,0.00,0.00,VWS V14.00,2013-03-22 09:51:00,
2013-03-22 04:52:00,60.4,46.0,29.76,SE,128,0.0,0.0,59,0.00,,,0.00,0.00,VWS V14.00,2013-03-22 09:52:00,
2013-03-22 04:53:00,60.4,46.0,29.76,East,90,0.0,0.0,59,0.00,,,0.00,0.00,VWS V14.00,2013-03-22 09:53:00,
2013-03-22 04:54:00,60.4,46.5,29.76,SE,132,0.0,0.0,60,0.00,,,0.00,0.00,VWS V14.00,2013-03-22 09:54:00,
2013-03-22 04:55:00,60.4,46.5,29.76,ESE,121,0.0,0.0,60,0.00,,,0.00,0.00,VWS V14.00,2013-03-22 09:55:00,
2013-03-22 04:56:00,60.4,46.5,29.76,ESE,102,0.0,0.0,60,0.00,,,0.00,0.00,VWS V14.00,2013-03-22 09:56:00,
2013-03-22 04:57:00,60.4,46.5,29.76,SE,128,0.0,0.0,60,0.00,,,0.00,0.00,VWS V14.00,2013-03-22 09:57:00,
2013-03-22 04:58:00,60.5,46.6,29.76,NE,35,0.0,0.0,60,0.00,,,0.00,0.00,VWS V14.00,2013-03-22 09:58:00,
2013-03-22 04:59:00,60.5,46.6,29.76,NE,51,0.0,0.0,60,0.00,,,0.00,0.00,VWS V14.00,2013-03-22 09:59:00,
2013-03-22 05:00:00,60.5,46.6,29.76,West,261,0.0,0.0,60,0.00,,,0.00,0.00,VWS V14.00,2013-03-22 10:00:00,
2013-03-22 05:01:00,60.5,46.6,29.76,East,88,0.0,0.0,60,0.00,,,0.00,0.00,VWS V14.00,2013-03-22 10:01:00,
2013-03-22 05:02:00,60.5,46.6,29.76,East,96,0.0,0.0,60,0.00,,,0.00,0.00,VWS V14.00,2013-03-22 10:02:00,
2013-03-22 05:03:00,60.5,46.6,29.76,SE,128,0.0,0.0,60,0.00,,,0.00,0.00,VWS V14.00,2013-03-22 10:03:00,
2013-03-22 05:04:00,60.5,46.6,29.76,East,94,0.0,0.0,60,0.00,,,0.00,0.00,VWS V14.00,2013-03-22 10:04:00,
2013-03-22 05:05:00,60.5,46.6,29.76,East,86,0.0,0.0,60,0.00,,,0.00,0.00,VWS V14.00,2013-03-22 10:05:00,
2013-03-22 05:06:00,60.5,46.6,29.76,East,88,0.0,0.0,60,0.00,,,0.00,0.00,VWS V14.00,2013-03-22 10:06:00,
2013-03-22 05:07:00,60.5,46.6,29.76,ENE,77,0.0,0.0,60,0.00,,,0.00,0.00,VWS V14.00,2013-03-22 10:07:00,
2013-03-22 05:08:00,60.5,46.6,29.76,South,177,0.0,0.0,60,0.00,,,0.00,0.00,VWS V14.00,2013-03-22 10:08:00,
2013-03-22 05:09:00,60.5,46.6,29.76,SSE,155,0.0,0.0,60,0.00,,,0.00,0.00,VWS V14.00,2013-03-22 10:09:00,
2013-03-22 05:10:00,60.5,46.6,29.76,East,84,0.0,0.0,60,0.00,,,0.00,0.00,VWS V14.00,2013-03-22 10:10:00,
2013-03-22 05:11:00,60.5,46.6,29.76,East,85,0.0,0.0,60,0.00,,,0.00,0.00,VWS V14.00,2013-03-22 10:11:00,
2013-03-22 05:12:00,60.7,46.3,29.76,SSE,155,0.0,0.0,59,0.00,,,0.00,0.00,VWS V14.00,2013-03-22 10:12:00,
2013-03-22 05:13:00,60.7,46.8,29.76,ESE,108,0.0,0.0,60,0.00,,,0.00,0.00,VWS V14.00,2013-03-22 10:13:00,
2013-03-22 05:14:00,60.7,46.8,29.77,SE,126,0.0,0.0,60,0.00,,,0.00,0.00,VWS V14.00,2013-03-22 10:14:00,
2013-03-22 05:15:00,60.7,46.8,29.77,East,91,0.0,0.0,60,0.00,,,0.00,0.00,VWS V14.00,2013-03-22 10:15:00,
2013-03-22 05:16:00,60.7,46.8,29.77,ESE,121,0.0,0.0,60,0.00,,,0.00,0.00,VWS V14.00,2013-03-22 10:16:00,
2013-03-22 05:17:00,60.7,46.8,29.77,NE,47,0.0,0.0,60,0.00,,,0.00,0.00,VWS V14.00,2013-03-22 10:17:00,
2013-03-22 05:18:00,60.7,47.2,29.77,East,96,0.0,0.0,61,0.00,,,0.00,0.00,VWS V14.00,2013-03-22 10:18:00,
2013-03-22 05:19:00,60.7,47.2,29.77,ESE,118,0.0,0.0,61,0.00,,,0.00,0.00,VWS V14.00,2013-03-22 10:19:00,
2013-03-22 05:20:00,60.7,47.2,29.77,East,92,0.0,0.0,61,0.00,,,0.00,0.00,VWS V14.00,2013-03-22 10:20:00,
2013-03-22 05:21:00,60.7,47.2,29.77,ESE,116,0.0,0.0,61,0.00,,,0.00,0.00,VWS V14.00,2013-03-22 10:21:00,
2013-03-22 05:22:00,60.7,47.2,29.77,NE,39,0.0,0.0,61,0.00,,,0.00,0.00,VWS V14.00,2013-03-22 10:22:00,
2013-03-22 05:23:00,60.7,47.2,29.77,East,86,0.0,0.0,61,0.00,,,0.00,0.00,VWS V14.00,2013-03-22 10:23:00,
2013-03-22 05:24:00,60.9,47.8,29.77,NE,56,0.0,0.0,62,0.00,,,0.00,0.00,VWS V14.00,2013-03-22 10:24:00,
2013-03-22 05:25:00,60.9,47.8,29.77,SE,143,0.0,0.0,62,0.00,,,0.00,0.00,VWS V14.00,2013-03-22 10:25:00,
2013-03-22 05:26:00,60.9,47.8,29.77,ESE,105,0.0,0.0,62,0.00,,,0.00,0.00,VWS V14.00,2013-03-22 10:26:00,
2013-03-22 05:27:00,60.9,47.8,29.77,ESE,119,0.0,0.0,62,0.00,,,0.00,0.00,VWS V14.00,2013-03-22 10:27:00,
2013-03-22 05:28:00,60.9,47.8,29.77,SSW,196,0.0,0.0,62,0.00,,,0.00,0.00,VWS V14.00,2013-03-22 10:28:00,
2013-03-22 05:29:00,60.9,47.8,29.77,ESE,116,0.0,0.0,62,0.00,,,0.00,0.00,VWS V14.00,2013-03-22 10:29:00,
2013-03-22 05:30:00,60.9,47.8,29.77,ESE,123,0.0,0.0,62,0.00,,,0.00,0.00,VWS V14.00,2013-03-22 10:30:00,
2013-03-22 05:31:00,60.9,47.8,29.77,ESE,110,0.0,0.0,62,0.00,,,0.00,0.00,VWS V14.00,2013-03-22 10:31:00,
2013-03-22 05:32:00,60.9,47.8,29.77,SE,146,0.0,0.0,62,0.00,,,0.00,0.00,VWS V14.00,2013-03-22 10:32:00,
2013-03-22 05:33:00,60.9,48.2,29.77,East,86,0.0,0.0,63,0.00,,,0.00,0.00,VWS V14.00,2013-03-22 10:33:00,
2013-03-22 05:34:00,60.9,48.2,29.77,ENE,60,0.0,0.0,63,0.00,,,0.00,0.00,VWS V14.00,2013-03-22 10:34:00,
2013-03-22 05:35:00,61.0,48.3,29.77,ENE,65,0.0,0.0,63,0.00,,,0.00,0.00,VWS V14.00,2013-03-22 10:35:00,
2013-03-22 05:36:00,61.0,48.3,29.77,ENE,76,0.0,0.0,63,0.00,,,0.00,0.00,VWS V14.00,2013-03-22 10:36:00,
2013-03-22 05:37:00,61.0,48.8,29.77,East,88,0.0,0.0,64,0.00,,,0.00,0.00,VWS V14.00,2013-03-22 10:37:00,
2013-03-22 05:38:00,61.0,48.8,29.77,ENE,78,0.0,0.0,64,0.00,,,0.00,0.00,VWS V14.00,2013-03-22 10:38:00,
2013-03-22 05:39:00,61.0,48.8,29.77,East,98,0.0,0.0,64,0.00,,,0.00,0.00,VWS V14.00,2013-03-22 10:39:00,
2013-03-22 05:40:00,61.0,48.8,29.77,ENE,57,0.0,0.0,64,0.00,,,0.00,0.00,VWS V14.00,2013-03-22 10:40:00,
2013-03-22 05:41:00,61.0,48.8,29.77,East,100,0.0,0.0,64,0.00,,,0.00,0.00,VWS V14.00,2013-03-22 10:41:00,
2013-03-22 05:42:00,61.0,49.2,29.77,ESE,110,0.0,0.0,65,0.00,,,0.00,0.00,VWS V14.00,2013-03-22 10:42:00,
2013-03-22 05:43:00,61.0,49.2,29.77,East,84,0.0,0.0,65,0.00,,,0.00,0.00,VWS V14.00,2013-03-22 10:43:00,
2013-03-22 05:44:00,61.0,49.2,29.77,SE,132,0.0,0.0,65,0.00,,,0.00,0.00,VWS V14.00,2013-03-22 10:44:00,
2013-03-22 05:45:00,61.0,49.2,29.77,ESE,115,0.0,0.0,65,0.00,,,0.00,0.00,VWS V14.00,2013-03-22 10:45:00,
2013-03-22 05:46:00,61.0,49.2,29.77,ESE,111,0.0,0.0,65,0.00,,,0.00,0.00,VWS V14.00,2013-03-22 10:46:00,
2013-03-22 05:47:00,61.0,49.2,29.77,ESE,115,0.0,0.0,65,0.00,,,0.00,0.00,VWS V14.00,2013-03-22 10:47:00,
2013-03-22 05:48:00,61.0,49.2,29.77,NNE,15,0.0,0.0,65,0.00,,,0.00,0.00,VWS V14.00,2013-03-22 10:48:00,
2013-03-22 05:49:00,61.0,49.2,29.77,East,95,0.0,0.0,65,0.00,,,0.00,0.00,VWS V14.00,2013-03-22 10:49:00,
2013-03-22 05:50:00,61.0,49.2,29.77,SE,142,0.0,0.0,65,0.00,,,0.00,0.00,VWS V14.00,2013-03-22 10:50:00,
2013-03-22 05:51:00,61.0,49.2,29.77,SE,137,0.0,0.0,65,0.00,,,0.00,0.00,VWS V14.00,2013-03-22 10:51:00,
2013-03-22 05:52:00,61.0,49.2,29.77,SE,140,0.0,0.0,65,0.00,,,0.00,0.00,VWS V14.00,2013-03-22 10:52:00,
2013-03-22 05:53:00,61.0,49.2,29.77,ESE,123,0.0,0.0,65,0.00,,,0.00,0.00,VWS V14.00,2013-03-22 10:53:00,
2013-03-22 05:54:00,61.0,49.6,29.77,ENE,69,0.0,0.0,66,0.00,,,0.00,0.00,VWS V14.00,2013-03-22 10:54:00,
2013-03-22 05:55:00,61.0,49.6,29.77,ENE,69,0.0,0.0,66,0.00,,,0.00,0.00,VWS V14.00,2013-03-22 10:55:00,
2013-03-22 05:56:00,61.2,49.8,29.77,ENE,69,0.0,0.0,66,0.00,,,0.00,0.00,VWS V14.00,2013-03-22 10:56:00,
2013-03-22 05:58:00,61.2,49.8,29.77,ENE,72,0.0,0.0,66,0.00,,,0.00,0.00,VWS V14.00,2013-03-22 10:58:00,
2013-03-22 05:59:00,61.2,49.8,29.77,ESE,109,0.0,0.0,66,0.00,,,0.00,0.00,VWS V14.00,2013-03-22 10:59:00,
2013-03-22 06:00:00,61.2,49.8,29.77,SE,138,0.0,0.0,66,0.00,,,0.00,0.00,VWS V14.00,2013-03-22 11:00:00,
2013-03-22 06:01:00,61.2,50.2,29.77,ESE,111,0.0,0.0,67,0.00,,,0.00,0.00,VWS V14.00,2013-03-22 11:01:00,
2013-03-22 06:02:00,61.2,50.2,29.77,East,100,0.0,0.0,67,0.00,,,0.00,0.00,VWS V14.00,2013-03-22 11:02:00,
2013-03-22 06:03:00,61.2,50.2,29.77,SSE,147,0.0,0.0,67,0.00,,,0.00,0.00,VWS V14.00,2013-03-22 11:03:00,
2013-03-22 06:04:00,61.2,50.2,29.77,NE,47,0.0,0.0,67,0.00,,,0.00,0.00,VWS V14.00,2013-03-22 11:04:00,
2013-03-22 06:05:00,61.2,50.2,29.77,ENE,70,0.0,0.0,67,0.00,,,0.00,0.00,VWS V14.00,2013-03-22 11:05:00,
2013-03-22 06:06:00,61.2,50.2,29.77,ENE,75,0.0,0.0,67,0.00,,,0.00,0.00,VWS V14.00,2013-03-22 11:06:00,
2013-03-22 06:07:00,61.2,50.2,29.77,SE,125,0.0,0.0,67,0.00,,,0.00,0.00,VWS V14.00,2013-03-22 11:07:00,
2013-03-22 06:08:00,61.2,50.2,29.77,East,90,0.0,0.0,67,0.00,,,0.00,0.00,VWS V14.00,2013-03-22 11:08:00,
2013-03-22 06:09:00,61.2,50.2,29.77,ESE,112,0.0,0.0,67,0.00,,,0.00,0.00,VWS V14.00,2013-03-22 11:09:00,
2013-03-22 06:10:00,61.3,50.3,29.77,East,82,0.0,0.0,67,0.00,,,0.00,0.00,VWS V14.00,2013-03-22 11:10:00,
2013-03-22 06:11:00,61.3,50.3,29.77,SE,132,0.0,0.0,67,0.00,,,0.00,0.00,VWS V14.00,2013-03-22 11:11:00,
2013-03-22 06:12:00,61.3,50.3,29.77,ENE,68,0.0,0.0,67,0.00,,,0.00,0.00,VWS V14.00,2013-03-22 11:12:00,
2013-03-22 06:13:00,61.3,50.3,29.77,ENE,63,0.0,0.0,67,0.00,,,0.00,0.00,VWS V14.00,2013-03-22 11:13:00,
2013-03-22 06:14:00,61.3,50.3,29.78,ENE,74,0.0,0.0,67,0.00,,,0.00,0.00,VWS V14.00,2013-03-22 11:14:00,
2013-03-22 06:15:00,61.3,50.3,29.78,East,96,0.0,0.0,67,0.00,,,0.00,0.00,VWS V14.00,2013-03-22 11:15:00,
2013-03-22 06:16:00,61.3,50.3,29.78,East,96,0.0,0.0,67,0.00,,,0.00,0.00,VWS V14.00,2013-03-22 11:16:00,
2013-03-22 06:17:00,61.3,50.3,29.78,East,96,0.0,0.0,67,0.00,,,0.00,0.00,VWS V14.00,2013-03-22 11:17:00,
2013-03-22 06:18:00,61.3,50.3,29.78,NE,44,0.0,0.0,67,0.00,,,0.00,0.00,VWS V14.00,2013-03-22 11:18:00,
2013-03-22 06:19:00,61.3,50.3,29.78,East,81,0.0,0.0,67,0.00,,,0.00,0.00,VWS V14.00,2013-03-22 11:19:00,
2013-03-22 06:20:00,61.3,50.3,29.78,ENE,72,0.0,0.0,67,0.00,,,0.00,0.00,VWS V14.00,2013-03-22 11:20:00,
2013-03-22 06:21:00,61.3,50.7,29.78,SE,128,0.0,0.0,68,0.00,,,0.00,0.00,VWS V14.00,2013-03-22 11:21:00,
2013-03-22 06:22:00,61.3,50.7,29.78,SSE,150,0.0,0.0,68,0.00,,,0.00,0.00,VWS V14.00,2013-03-22 11:22:00,
2013-03-22 06:23:00,61.3,50.7,29.78,ENE,70,0.0,0.0,68,0.00,,,0.00,0.00,VWS V14.00,2013-03-22 11:23:00,
2013-03-22 06:24:00,61.3,50.7,29.78,ENE,70,0.0,0.0,68,0.00,,,0.00,0.00,VWS V14.00,2013-03-22 11:24:00,
2013-03-22 06:25:00,61.3,50.7,29.78,SE,130,0.0,0.0,68,0.00,,,0.00,0.00,VWS V14.00,2013-03-22 11:25:00,
2013-03-22 06:26:00,61.3,50.7,29.78,NNE,29,0.0,0.0,68,0.00,,,0.00,0.00,VWS V14.00,2013-03-22 11:26:00,
2013-03-22 06:27:00,61.3,50.7,29.78,ESE,120,0.0,0.0,68,0.00,,,0.00,0.00,VWS V14.00,2013-03-22 11:27:00,
2013-03-22 06:28:00,61.3,50.3,29.78,ENE,77,0.0,0.0,67,0.00,,,0.00,0.00,VWS V14.00,2013-03-22 11:28:00,
2013-03-22 06:29:00,61.3,50.3,29.78,NE,53,0.0,0.0,67,0.00,,,0.00,0.00,VWS V14.00,2013-03-22 11:29:00,
2013-03-22 06:30:00,61.3,50.3,29.79,ENE,65,0.0,0.0,67,0.00,,,0.00,0.00,VWS V14.00,2013-03-22 11:30:00,
2013-03-22 06:31:00,61.3,50.3,29.79,East,97,0.0,0.0,67,0.00,,,0.00,0.00,VWS V14.00,2013-03-22 11:31:00,
2013-03-22 06:32:00,61.3,50.3,29.79,East,97,0.0,0.0,67,0.00,,,0.00,0.00,VWS V14.00,2013-03-22 11:32:00,
2013-03-22 06:33:00,61.3,50.3,29.79,SE,137,0.0,0.0,67,0.00,,,0.00,0.00,VWS V14.00,2013-03-22 11:33:00,
2013-03-22 06:34:00,61.5,50.8,29.79,SSE,148,0.0,0.0,68,0.00,,,0.00,0.00,VWS V14.00,2013-03-22 11:34:00,
2013-03-22 06:35:00,61.5,50.8,29.79,SE,128,0.0,0.0,68,0.00,,,0.00,0.00,VWS V14.00,2013-03-22 11:35:00,
2013-03-22 06:36:00,61.5,50.8,29.79,East,84,0.0,0.0,68,0.00,,,0.00,0.00,VWS V14.00,2013-03-22 11:36:00,
2013-03-22 06:37:00,61.5,50.5,29.79,East,88,0.0,0.0,67,0.00,,,0.00,0.00,VWS V14.00,2013-03-22 11:37:00,
2013-03-22 06:38:00,61.5,50.5,29.79,SSE,163,0.0,0.0,67,0.00,,,0.00,0.00,VWS V14.00,2013-03-22 11:38:00,
2013-03-22 06:39:00,61.5,50.5,29.79,SE,132,0.0,0.0,67,0.00,,,0.00,0.00,VWS V14.00,2013-03-22 11:39:00,
2013-03-22 06:40:00,61.5,50.0,29.79,ESE,119,0.0,0.0,66,0.00,,,0.00,0.00,VWS V14.00,2013-03-22 11:40:00,
2013-03-22 06:41:00,61.5,50.0,29.79,ESE,115,0.0,0.0,66,0.00,,,0.00,0.00,VWS V14.00,2013-03-22 11:41:00,
2013-03-22 06:42:00,61.5,50.0,29.79,SE,140,0.0,0.0,66,0.00,,,0.00,0.00,VWS V14.00,2013-03-22 11:42:00,
2013-03-22 06:43:00,61.5,50.5,29.79,ESE,104,0.0,0.0,67,0.00,,,0.00,0.00,VWS V14.00,2013-03-22 11:43:00,
2013-03-22 06:44:00,61.5,50.5,29.79,ESE,105,0.0,0.0,67,0.00,,,0.00,0.00,VWS V14.00,2013-03-22 11:44:00,
2013-03-22 06:45:00,61.5,50.5,29.79,East,90,0.0,0.0,67,0.00,,,0.00,0.00,VWS V14.00,2013-03-22 11:45:00,
2013-03-22 06:46:00,61.5,50.5,29.79,East,101,0.0,0.0,67,0.00,,,0.00,0.00,VWS V14.00,2013-03-22 11:46:00,
2013-03-22 06:47:00,61.5,50.5,29.79,ENE,72,0.0,0.0,67,0.00,,,0.00,0.00,VWS V14.00,2013-03-22 11:47:00,
2013-03-22 06:48:00,61.5,50.5,29.79,ENE,60,0.0,0.0,67,0.00,,,0.00,0.00,VWS V14.00,2013-03-22 11:48:00,
2013-03-22 06:49:00,61.5,50.5,29.79,SE,145,0.0,0.0,67,0.00,,,0.00,0.00,VWS V14.00,2013-03-22 11:49:00,
2013-03-22 06:50:00,61.5,50.0,29.79,East,94,0.0,0.0,66,0.00,,,0.00,0.00,VWS V14.00,2013-03-22 11:50:00,
2013-03-22 06:51:00,61.5,50.0,29.79,East,101,0.0,0.0,66,0.00,,,0.00,0.00,VWS V14.00,2013-03-22 11:51:00,
2013-03-22 06:52:00,61.5,49.6,29.79,SE,146,0.0,0.0,65,0.00,,,0.00,0.00,VWS V14.00,2013-03-22 11:52:00,
2013-03-22 06:53:00,61.5,49.6,29.79,SE,134,0.0,0.0,65,0.00,,,0.00,0.00,VWS V14.00,2013-03-22 11:53:00,
2013-03-22 06:54:00,61.5,49.6,29.79,ESE,111,0.0,0.0,65,0.00,,,0.00,5.00,VWS V14.00,2013-03-22 11:54:00,
2013-03-22 06:55:00,61.5,49.6,29.79,East,92,0.0,0.0,65,0.00,,,0.00,5.00,VWS V14.00,2013-03-22 11:55:00,
2013-03-22 06:56:00,61.5,49.6,29.79,ENE,57,0.0,0.0,65,0.00,,,0.00,5.00,VWS V14.00,2013-03-22 11:56:00,
2013-03-22 06:57:00,61.5,49.6,29.79,ENE,62,0.0,0.0,65,0.00,,,0.00,5.00,VWS V14.00,2013-03-22 11:57:00,
2013-03-22 06:58:00,61.6,49.7,29.79,ENE,77,0.0,0.0,65,0.00,,,0.00,5.00,VWS V14.00,2013-03-22 11:58:00,
2013-03-22 06:59:00,61.6,49.7,29.79,North,5,0.0,0.0,65,0.00,,,0.00,5.00,VWS V14.00,2013-03-22 11:59:00,
2013-03-22 07:00:00,61.6,49.7,29.79,NE,54,0.0,0.0,65,0.00,,,0.00,5.00,VWS V14.00,2013-03-22 12:00:00,
2013-03-22 07:01:00,61.6,50.1,29.79,ESE,121,0.0,0.0,66,0.00,,,0.00,5.00,VWS V14.00,2013-03-22 12:01:00,
2013-03-22 07:02:00,61.6,50.1,29.79,North,5,0.0,0.0,66,0.00,,,0.00,5.00,VWS V14.00,2013-03-22 12:02:00,
2013-03-22 07:03:00,61.6,50.1,29.79,East,82,0.0,0.0,66,0.00,,,0.00,7.00,VWS V14.00,2013-03-22 12:03:00,
2013-03-22 07:04:00,61.6,50.1,29.79,SE,132,0.0,0.0,66,0.00,,,0.00,7.00,VWS V14.00,2013-03-22 12:04:00,
2013-03-22 07:05:00,61.6,50.1,29.79,ENE,63,0.0,0.0,66,0.00,,,0.00,7.00,VWS V14.00,2013-03-22 12:05:00,
2013-03-22 07:06:00,61.6,50.1,29.79,ESE,103,0.0,0.0,66,0.00,,,0.00,7.00,VWS V14.00,2013-03-22 12:06:00,
2013-03-22 07:07:00,61.6,50.1,29.79,ENE,69,0.0,0.0,66,0.00,,,0.00,7.00,VWS V14.00,2013-03-22 12:07:00,
2013-03-22 07:08:00,61.6,50.1,29.79,East,82,0.0,0.0,66,0.00,,,0.00,7.00,VWS V14.00,2013-03-22 12:08:00,
2013-03-22 07:09:00,61.6,50.1,29.79,East,96,0.0,0.0,66,0.00,,,0.00,7.00,VWS V14.00,2013-03-22 12:09:00,
2013-03-22 07:10:00,61.6,50.5,29.79,NE,55,0.0,0.0,67,0.00,,,0.00,7.00,VWS V14.00,2013-03-22 12:10:00,
2013-03-22 07:11:00,61.6,50.5,29.79,ENE,75,0.0,0.0,67,0.00,,,0.00,7.00,VWS V14.00,2013-03-22 12:11:00,
2013-03-22 07:12:00,61.6,50.5,29.79,ENE,77,0.0,0.0,67,0.00,,,0.00,7.00,VWS V14.00,2013-03-22 12:12:00,
2013-03-22 07:13:00,61.6,50.5,29.79,East,89,0.0,0.0,67,0.00,,,0.00,7.00,VWS V14.00,2013-03-22 12:13:00,
2013-03-22 07:14:00,61.6,50.5,29.80,East,90,0.0,0.0,67,0.00,,,0.00,7.00,VWS V14.00,2013-03-22 12:14:00,
2013-03-22 07:15:00,61.6,50.5,29.80,NNE,24,0.0,0.0,67,0.00,,,0.00,7.00,VWS V14.00,2013-03-22 12:15:00,
2013-03-22 07:16:00,61.8,51.1,29.80,ENE,78,0.0,0.0,68,0.00,,,0.00,9.00,VWS V14.00,2013-03-22 12:16:00,
2013-03-22 07:17:00,61.8,51.1,29.80,SE,142,0.0,0.0,68,0.00,,,0.00,9.00,VWS V14.00,2013-03-22 12:17:00,
2013-03-22 07:18:00,61.8,51.1,29.80,ESE,121,0.0,0.0,68,0.00,,,0.00,9.00,VWS V14.00,2013-03-22 12:18:00,
2013-03-22 07:19:00,61.8,51.1,29.80,East,82,0.0,0.0,68,0.00,,,0.00,9.00,VWS V14.00,2013-03-22 12:19:00,
2013-03-22 07:20:00,61.8,51.1,29.80,NNE,32,0.0,0.0,68,0.00,,,0.00,9.00,VWS V14.00,2013-03-22 12:20:00,
2013-03-22 07:21:00,61.8,51.1,29.80,ESE,108,0.0,0.0,68,0.00,,,0.00,9.00,VWS V14.00,2013-03-22 12:21:00,
2013-03-22 07:22:00,61.8,51.1,29.80,SE,132,0.0,0.0,68,0.00,,,0.00,9.00,VWS V14.00,2013-03-22 12:22:00,
2013-03-22 07:23:00,61.8,51.1,29.80,NE,49,0.0,0.0,68,0.00,,,0.00,9.00,VWS V14.00,2013-03-22 12:23:00,
2013-03-22 07:24:00,61.8,51.1,29.80,East,100,0.0,0.0,68,0.00,,,0.00,7.00,VWS V14.00,2013-03-22 12:24:00,
2013-03-22 07:25:00,61.8,51.1,29.80,ENE,65,0.0,0.0,68,0.00,,,0.00,7.00,VWS V14.00,2013-03-22 12:25:00,
2013-03-22 07:26:00,61.8,51.1,29.80,ENE,63,0.0,0.0,68,0.00,,,0.00,7.00,VWS V14.00,2013-03-22 12:26:00,
2013-03-22 07:27:00,61.8,51.1,29.80,SSE,161,0.0,0.0,68,0.00,,,0.00,7.00,VWS V14.00,2013-03-22 12:27:00,
2013-03-22 07:28:00,61.8,51.1,29.80,East,84,0.0,0.0,68,0.00,,,0.00,7.00,VWS V14.00,2013-03-22 12:28:00,
2013-03-22 07:29:00,61.8,51.1,29.81,ENE,59,0.0,0.0,68,0.00,,,0.00,7.00,VWS V14.00,2013-03-22 12:29:00,
2013-03-22 07:30:00,61.8,51.1,29.81,ENE,59,0.0,0.0,68,0.00,,,0.00,7.00,VWS V14.00,2013-03-22 12:30:00,
2013-03-22 07:31:00,61.8,51.1,29.81,ESE,107,0.0,0.0,68,0.00,,,0.00,7.00,VWS V14.00,2013-03-22 12:31:00,
2013-03-22 07:32:00,61.8,51.1,29.81,NNE,13,0.0,0.0,68,0.00,,,0.00,7.00,VWS V14.00,2013-03-22 12:32:00,
2013-03-22 07:33:00,61.8,51.1,29.81,NE,40,0.0,0.0,68,0.00,,,0.00,7.00,VWS V14.00,2013-03-22 12:33:00,
2013-03-22 07:34:00,61.8,51.1,29.81,East,97,0.0,0.0,68,0.00,,,0.00,7.00,VWS V14.00,2013-03-22 12:34:00,
2013-03-22 07:35:00,61.8,51.1,29.81,East,92,0.0,0.0,68,0.00,,,0.00,7.00,VWS V14.00,2013-03-22 12:35:00,
2013-03-22 07:36:00,61.8,51.1,29.81,ESE,111,0.0,0.0,68,0.00,,,0.00,7.00,VWS V14.00,2013-03-22 12:36:00,
2013-03-22 07:37:00,61.8,51.1,29.81,ENE,68,0.0,0.0,68,0.00,,,0.00,7.00,VWS V14.00,2013-03-22 12:37:00,
2013-03-22 07:38:00,61.8,51.1,29.81,ENE,69,0.0,0.0,68,0.00,,,0.00,7.00,VWS V14.00,2013-03-22 12:38:00,
2013-03-22 07:39:00,61.8,51.5,29.81,ESE,105,0.0,0.0,69,0.00,,,0.00,7.00,VWS V14.00,2013-03-22 12:39:00,
2013-03-22 07:40:00,61.8,51.5,29.81,ENE,63,0.0,0.0,69,0.00,,,0.00,7.00,VWS V14.00,2013-03-22 12:40:00,
2013-03-22 07:41:00,61.8,51.5,29.81,ENE,64,0.0,0.0,69,0.00,,,0.00,7.00,VWS V14.00,2013-03-22 12:41:00,
2013-03-22 07:42:00,61.8,51.5,29.81,NE,56,0.0,0.0,69,0.00,,,0.00,9.00,VWS V14.00,2013-03-22 12:42:00,
2013-03-22 07:43:00,61.8,51.5,29.81,SE,135,0.0,0.0,69,0.00,,,0.00,9.00,VWS V14.00,2013-03-22 12:43:00,
2013-03-22 07:44:00,61.8,51.5,29.82,SE,135,0.0,0.0,69,0.00,,,0.00,11.00,VWS V14.00,2013-03-22 12:44:00,
2013-03-22 07:45:00,61.8,51.5,29.82,SE,126,0.0,0.0,69,0.00,,,0.00,11.00,VWS V14.00,2013-03-22 12:45:00,
2013-03-22 07:46:00,61.8,51.5,29.82,SE,126,0.0,0.0,69,0.00,,,0.00,11.00,VWS V14.00,2013-03-22 12:46:00,
2013-03-22 07:47:00,61.8,51.5,29.82,ESE,120,0.0,0.0,69,0.00,,,0.00,12.00,VWS V14.00,2013-03-22 12:47:00,
2013-03-22 07:48:00,61.8,51.9,29.82,ESE,111,0.0,0.0,70,0.00,,,0.00,12.00,VWS V14.00,2013-03-22 12:48:00,
2013-03-22 07:49:00,61.8,51.9,29.82,ENE,63,0.0,0.0,70,0.00,,,0.00,14.00,VWS V14.00,2013-03-22 12:49:00,
2013-03-22 07:50:00,61.8,51.9,29.82,SSE,150,0.0,0.0,70,0.00,,,0.00,14.00,VWS V14.00,2013-03-22 12:50:00,
2013-03-22 07:51:00,61.8,51.9,29.82,SE,145,0.0,0.0,70,0.00,,,0.00,16.00,VWS V14.00,2013-03-22 12:51:00,
2013-03-22 07:52:00,61.8,51.9,29.82,ESE,114,0.0,0.0,70,0.00,,,0.00,19.00,VWS V14.00,2013-03-22 12:52:00,
2013-03-22 07:53:00,61.8,51.9,29.82,SE,140,0.0,0.0,70,0.00,,,0.00,21.00,VWS V14.00,2013-03-22 12:53:00,
2013-03-22 07:54:00,61.8,51.9,29.82,East,89,0.0,0.0,70,0.00,,,0.00,23.00,VWS V14.00,2013-03-22 12:54:00,
2013-03-22 07:55:00,61.8,51.9,29.82,ESE,117,0.0,0.0,70,0.00,,,0.00,21.00,VWS V14.00,2013-03-22 12:55:00,
2013-03-22 07:56:00,61.8,51.9,29.82,SE,126,0.0,0.0,70,0.00,,,0.00,21.00,VWS V14.00,2013-03-22 12:56:00,
2013-03-22 07:57:00,61.8,52.3,29.82,East,84,0.0,0.0,71,0.00,,,0.00,21.00,VWS V14.00,2013-03-22 12:57:00,
2013-03-22 07:58:00,61.8,52.3,29.82,SE,138,0.0,0.0,71,0.00,,,0.00,23.00,VWS V14.00,2013-03-22 12:58:00,
2013-03-22 07:59:00,61.8,52.3,29.81,SE,138,0.0,0.0,71,0.00,,,0.00,25.00,VWS V14.00,2013-03-22 12:59:00,
2013-03-22 08:00:00,61.8,52.3,29.81,SE,136,0.0,0.0,71,0.00,,,0.00,28.00,VWS V14.00,2013-03-22 13:00:00,
2013-03-22 08:01:00,61.8,52.3,29.81,SE,129,0.0,0.0,71,0.00,,,0.00,33.00,VWS V14.00,2013-03-22 13:01:00,
2013-03-22 08:02:00,61.8,52.7,29.81,SE,129,0.0,0.0,72,0.00,,,0.00,39.00,VWS V14.00,2013-03-22 13:02:00,
2013-03-22 08:03:00,61.8,52.7,29.81,SE,129,0.0,0.0,72,0.00,,,0.00,44.00,VWS V14.00,2013-03-22 13:03:00,
2013-03-22 08:04:00,61.8,52.7,29.81,SE,129,0.0,0.0,72,0.00,,,0.00,51.00,VWS V14.00,2013-03-22 13:04:00,
2013-03-22 08:05:00,61.8,52.7,29.81,ESE,117,0.0,0.0,72,0.00,,,0.00,56.00,VWS V14.00,2013-03-22 13:05:00,
2013-03-22 08:06:00,61.8,52.7,29.81,SE,134,0.0,0.0,72,0.00,,,0.00,58.00,VWS V14.00,2013-03-22 13:06:00,
2013-03-22 08:08:00,62.0,53.3,29.81,SE,138,0.0,0.0,73,0.00,,,0.00,56.00,VWS V14.00,2013-03-22 13:08:00,
2013-03-22 08:09:00,62.0,53.3,29.81,ESE,119,0.0,0.0,73,0.00,,,0.00,60.00,VWS V14.00,2013-03-22 13:09:00,
2013-03-22 08:10:00,62.0,53.3,29.81,ESE,112,0.0,0.0,73,0.00,,,0.00,74.00,VWS V14.00,2013-03-22 13:10:00,
2013-03-22 08:11:00,62.0,53.3,29.81,SE,125,0.0,0.0,73,0.00,,,0.00,102.00,VWS V14.00,2013-03-22 13:11:00,
2013-03-22 08:12:00,62.0,53.3,29.81,East,92,0.0,0.0,73,0.00,,,0.00,114.00,VWS V14.00,2013-03-22 13:12:00,
2013-03-22 08:13:00,62.0,53.3,29.81,SSE,147,0.0,0.0,73,0.00,,,0.00,120.00,VWS V14.00,2013-03-22 13:13:00,
2013-03-22 08:14:00,62.0,53.3,29.79,East,98,0.0,0.0,73,0.00,,,0.00,135.00,VWS V14.00,2013-03-22 13:14:00,
2013-03-22 08:15:00,62.0,53.3,29.79,ENE,78,0.0,0.0,73,0.00,,,0.00,132.00,VWS V14.00,2013-03-22 13:15:00,
2013-03-22 08:16:00,62.0,53.3,29.79,ESE,121,0.0,0.0,73,0.00,,,0.00,134.00,VWS V14.00,2013-03-22 13:16:00,
2013-03-22 08:17:00,62.1,53.3,29.79,East,98,0.0,0.0,73,0.00,,,0.00,144.00,VWS V14.00,2013-03-22 13:17:00,
2013-03-22 08:18:00,62.1,53.3,29.79,ESE,103,0.0,0.0,73,0.00,,,0.00,116.00,VWS V14.00,2013-03-22 13:18:00,
2013-03-22 08:19:00,62.3,53.5,29.79,SSE,160,0.0,0.0,73,0.00,,,0.00,111.00,VWS V14.00,2013-03-22 13:19:00,
2013-03-22 08:20:00,62.3,53.5,29.79,ESE,111,0.0,0.0,73,0.00,,,0.00,111.00,VWS V14.00,2013-03-22 13:20:00,
2013-03-22 08:21:00,62.3,53.9,29.79,ESE,123,0.0,0.0,74,0.00,,,0.00,114.00,VWS V14.00,2013-03-22 13:21:00,
2013-03-22 08:22:00,62.3,53.9,29.79,ESE,107,0.0,0.0,74,0.00,,,0.00,120.00,VWS V14.00,2013-03-22 13:22:00,
2013-03-22 08:23:00,62.4,54.0,29.79,SE,136,0.0,0.0,74,0.00,,,0.00,125.00,VWS V14.00,2013-03-22 13:23:00,
2013-03-22 08:24:00,62.4,54.0,29.79,SE,146,0.0,0.0,74,0.00,,,0.00,130.00,VWS V14.00,2013-03-22 13:24:00,
2013-03-22 08:25:00,62.4,54.0,29.79,ENE,59,0.0,0.0,74,0.00,,,0.00,127.00,VWS V14.00,2013-03-22 13:25:00,
2013-03-22 08:26:00,62.6,54.2,29.79,SE,140,0.0,0.0,74,0.00,,,0.00,123.00,VWS V14.00,2013-03-22 13:26:00,
2013-03-22 08:27:00,62.6,54.2,29.79,SSE,151,0.0,0.0,74,0.00,,,0.00,134.00,VWS V14.00,2013-03-22 13:27:00,
2013-03-22 08:28:00,62.6,54.2,29.79,SSE,164,0.0,0.0,74,0.00,,,0.00,146.00,VWS V14.00,2013-03-22 13:28:00,
2013-03-22 08:29:00,62.6,53.8,29.79,ENE,71,0.0,0.0,73,0.00,,,0.00,155.00,VWS V14.00,2013-03-22 13:29:00,
2013-03-22 08:30:00,62.6,53.8,29.79,East,98,0.0,0.0,73,0.00,,,0.00,149.00,VWS V14.00,2013-03-22 13:30:00,
2013-03-22 08:32:00,62.7,53.9,29.79,East,86,0.0,0.0,73,0.00,,,0.00,121.00,VWS V14.00,2013-03-22 13:32:00,
2013-03-22 08:33:00,62.7,53.5,29.79,ESE,114,0.0,0.0,72,0.00,,,0.00,128.00,VWS V14.00,2013-03-22 13:33:00,
2013-03-22 08:34:00,62.7,53.5,29.79,ESE,118,0.0,0.0,72,0.00,,,0.00,130.00,VWS V14.00,2013-03-22 13:34:00,
2013-03-22 08:35:00,62.9,53.8,29.79,SE,124,0.0,0.0,72,0.00,,,0.00,114.00,VWS V14.00,2013-03-22 13:35:00,
2013-03-22 08:36:00,62.9,53.8,29.79,ESE,107,0.0,0.0,72,0.00,,,0.00,107.00,VWS V14.00,2013-03-22 13:36:00,
2013-03-22 08:37:00,62.9,53.8,29.79,ENE,61,0.0,0.0,72,0.00,,,0.00,118.00,VWS V14.00,2013-03-22 13:37:00,
2013-03-22 08:38:00,62.9,53.8,29.79,SSE,150,0.0,0.0,72,0.00,,,0.00,132.00,VWS V14.00,2013-03-22 13:38:00,
2013-03-22 08:39:00,62.9,53.8,29.79,South,182,0.0,0.0,72,0.00,,,0.00,128.00,VWS V14.00,2013-03-22 13:39:00,
2013-03-22 08:40:00,63.1,53.9,29.79,SE,142,0.0,0.0,72,0.00,,,0.00,116.00,VWS V14.00,2013-03-22 13:40:00,
2013-03-22 08:41:00,63.1,53.9,29.79,ESE,104,0.0,0.0,72,0.00,,,0.00,118.00,VWS V14.00,2013-03-22 13:41:00,
2013-03-22 08:42:00,63.1,53.9,29.79,ESE,117,0.0,0.0,72,0.00,,,0.00,125.00,VWS V14.00,2013-03-22 13:42:00,
2013-03-22 08:43:00,63.1,53.6,29.79,ESE,104,0.0,0.0,71,0.00,,,0.00,127.00,VWS V14.00,2013-03-22 13:43:00,
2013-03-22 08:44:00,63.1,53.6,29.80,ESE,123,0.0,0.0,71,0.00,,,0.00,118.00,VWS V14.00,2013-03-22 13:44:00,
2013-03-22 08:45:00,63.1,53.6,29.80,East,87,0.0,0.0,71,0.00,,,0.00,118.00,VWS V14.00,2013-03-22 13:45:00,
2013-03-22 08:46:00,63.1,53.6,29.80,SSE,161,0.0,0.0,71,0.00,,,0.00,123.00,VWS V14.00,2013-03-22 13:46:00,
2013-03-22 08:47:00,63.2,53.7,29.80,ENE,74,0.0,0.0,71,0.00,,,0.00,111.00,VWS V14.00,2013-03-22 13:47:00,
2013-03-22 08:48:00,63.2,53.7,29.80,SE,124,0.0,0.0,71,0.00,,,0.00,105.00,VWS V14.00,2013-03-22 13:48:00,
2013-03-22 08:49:00,63.2,53.7,29.80,SE,144,0.0,0.0,71,0.00,,,0.00,109.00,VWS V14.00,2013-03-22 13:49:00,
2013-03-22 08:50:00,63.2,53.7,29.80,ENE,59,0.0,0.0,71,0.00,,,0.00,148.00,VWS V14.00,2013-03-22 13:50:00,
2013-03-22 08:51:00,63.2,53.7,29.80,ENE,76,0.0,0.0,71,0.00,,,0.00,121.00,VWS V14.00,2013-03-22 13:51:00,
2013-03-22 08:52:00,63.2,53.7,29.80,East,92,0.0,0.0,71,0.00,,,0.00,109.00,VWS V14.00,2013-03-22 13:52:00,
2013-03-22 08:53:00,63.2,54.0,29.80,ESE,107,0.0,0.0,72,0.00,,,0.00,114.00,VWS V14.00,2013-03-22 13:53:00,
2013-03-22 08:54:00,63.2,53.7,29.80,East,96,0.0,0.0,71,0.00,,,0.00,118.00,VWS V14.00,2013-03-22 13:54:00,
2013-03-22 08:55:00,63.2,53.7,29.80,ESE,110,0.0,0.0,71,0.00,,,0.00,114.00,VWS V14.00,2013-03-22 13:55:00,
2013-03-22 08:56:00,63.2,53.7,29.80,NE,50,0.0,0.0,71,0.00,,,0.00,93.00,VWS V14.00,2013-03-22 13:56:00,
2013-03-22 08:57:00,63.2,53.7,29.80,East,92,0.0,0.0,71,0.00,,,0.00,84.00,VWS V14.00,2013-03-22 13:57:00,
2013-03-22 08:58:00,63.2,53.7,29.80,ESE,104,0.0,0.0,71,0.00,,,0.00,83.00,VWS V14.00,2013-03-22 13:58:00,
2013-03-22 08:59:00,63.4,53.8,29.81,ESE,121,0.0,0.0,71,0.00,,,0.00,84.00,VWS V14.00,2013-03-22 13:59:00,
2013-03-22 09:00:00,63.4,53.8,29.81,NE,46,0.0,0.0,71,0.00,,,0.00,88.00,VWS V14.00,2013-03-22 14:00:00,
2013-03-22 09:01:00,63.4,54.2,29.81,SSE,148,0.0,0.0,72,0.00,,,0.00,84.00,VWS V14.00,2013-03-22 14:01:00,
2013-03-22 09:02:00,63.4,54.2,29.81,SE,127,0.0,0.0,72,0.00,,,0.00,79.00,VWS V14.00,2013-03-22 14:02:00,
2013-03-22 09:03:00,63.4,54.2,29.81,ENE,66,0.0,0.0,72,0.00,,,0.00,79.00,VWS V14.00,2013-03-22 14:03:00,
2013-03-22 09:04:00,63.4,54.2,29.81,ESE,114,0.0,0.0,72,0.00,,,0.00,83.00,VWS V14.00,2013-03-22 14:04:00,
2013-03-22 09:05:00,63.4,54.2,29.81,ENE,76,0.0,0.0,72,0.00,,,0.00,84.00,VWS V14.00,2013-03-22 14:05:00,
2013-03-22 09:06:00,63.4,54.2,29.81,ESE,104,0.0,0.0,72,0.00,,,0.00,83.00,VWS V14.00,2013-03-22 14:06:00,
2013-03-22 09:07:00,63.4,54.2,29.81,SSE,153,0.0,0.0,72,0.00,,,0.00,88.00,VWS V14.00,2013-03-22 14:07:00,
2013-03-22 09:08:00,63.4,54.2,29.81,SE,144,0.0,0.0,72,0.00,,,0.00,116.00,VWS V14.00,2013-03-22 14:08:00,
2013-03-22 09:09:00,63.4,54.2,29.81,NE,42,0.0,0.0,72,0.00,,,0.00,121.00,VWS V14.00,2013-03-22 14:09:00,
2013-03-22 09:10:00,63.4,54.2,29.81,SSE,155,0.0,0.0,72,0.00,,,0.00,123.00,VWS V14.00,2013-03-22 14:10:00,
2013-03-22 09:11:00,63.4,54.2,29.81,SE,138,0.0,0.0,72,0.00,,,0.00,118.00,VWS V14.00,2013-03-22 14:11:00,
2013-03-22 09:12:00,63.4,54.2,29.81,East,90,0.0,0.0,72,0.00,,,0.00,107.00,VWS V14.00,2013-03-22 14:12:00,
2013-03-22 09:13:00,63.4,54.2,29.81,East,90,0.0,0.0,72,0.00,,,0.00,97.00,VWS V14.00,2013-03-22 14:13:00,
2013-03-22 09:14:00,63.4,54.2,29.81,South,191,0.0,0.0,72,0.00,,,0.00,90.00,VWS V14.00,2013-03-22 14:14:00,
2013-03-22 09:15:00,63.4,54.2,29.81,East,90,0.0,0.0,72,0.00,,,0.00,86.00,VWS V14.00,2013-03-22 14:15:00,
2013-03-22 09:16:00,63.4,54.2,29.81,South,184,0.0,0.0,72,0.00,,,0.00,84.00,VWS V14.00,2013-03-22 14:16:00,
2013-03-22 09:17:00,63.4,54.2,29.81,ENE,78,0.0,0.0,72,0.00,,,0.00,88.00,VWS V14.00,2013-03-22 14:17:00,
2013-03-22 09:18:00,63.4,54.2,29.81,ESE,120,0.0,0.0,72,0.00,,,0.00,95.00,VWS V14.00,2013-03-22 14:18:00,
2013-03-22 09:19:00,63.4,54.2,29.81,ESE,113,0.0,0.0,72,0.00,,,0.00,104.00,VWS V14.00,2013-03-22 14:19:00,
2013-03-22 09:20:00,63.4,54.2,29.81,ENE,74,0.0,0.0,72,0.00,,,0.00,118.00,VWS V14.00,2013-03-22 14:20:00,
2013-03-22 09:21:00,63.4,54.2,29.81,SE,130,0.0,0.0,72,0.00,,,0.00,134.00,VWS V14.00,2013-03-22 14:21:00,
2013-03-22 09:22:00,63.4,54.2,29.81,SE,126,0.0,0.0,72,0.00,,,0.00,127.00,VWS V14.00,2013-03-22 14:22:00,
2013-03-22 09:23:00,63.4,54.2,29.81,SE,126,0.0,0.0,72,0.00,,,0.00,114.00,VWS V14.00,2013-03-22 14:23:00,
2013-03-22 09:24:00,63.4,54.2,29.81,SE,127,0.0,0.0,72,0.00,,,0.00,105.00,VWS V14.00,2013-03-22 14:24:00,
2013-03-22 09:25:00,63.4,54.2,29.81,SE,141,0.0,0.0,72,0.00,,,0.00,90.00,VWS V14.00,2013-03-22 14:25:00,
2013-03-22 09:26:00,63.4,54.2,29.81,ENE,67,0.0,0.0,72,0.00,,,0.00,91.00,VWS V14.00,2013-03-22 14:26:00,
2013-03-22 09:27:00,63.4,54.2,29.81,NE,44,0.0,0.0,72,0.00,,,0.00,93.00,VWS V14.00,2013-03-22 14:27:00,
2013-03-22 09:28:00,63.4,54.2,29.81,SSW,199,0.0,0.0,72,0.00,,,0.00,95.00,VWS V14.00,2013-03-22 14:28:00,
2013-03-22 09:29:00,63.4,54.2,29.81,SE,131,0.0,0.0,72,0.00,,,0.00,93.00,VWS V14.00,2013-03-22 14:29:00,
2013-03-22 09:30:00,63.5,54.3,29.81,SE,125,0.0,0.0,72,0.00,,,0.00,91.00,VWS V14.00,2013-03-22 14:30:00,
2013-03-22 09:31:00,63.5,54.3,29.81,SE,126,0.0,0.0,72,0.00,,,0.00,91.00,VWS V14.00,2013-03-22 14:31:00,
2013-03-22 09:32:00,63.5,54.7,29.81,NE,46,0.0,0.0,73,0.00,,,0.00,90.00,VWS V14.00,2013-03-22 14:32:00,
2013-03-22 09:33:00,63.5,54.7,29.81,ENE,57,0.0,0.0,73,0.00,,,0.00,90.00,VWS V14.00,2013-03-22 14:33:00,
2013-03-22 09:34:00,63.5,54.3,29.81,East,89,0.0,0.0,72,0.00,,,0.00,95.00,VWS V14.00,2013-03-22 14:34:00,
2013-03-22 09:35:00,63.5,54.3,29.81,SE,142,0.0,0.0,72,0.00,,,0.00,98.00,VWS V14.00,2013-03-22 14:35:00,
2013-03-22 09:36:00,63.5,54.3,29.81,SE,131,0.0,0.0,72,0.00,,,0.00,109.00,VWS V14.00,2013-03-22 14:36:00,
2013-03-22 09:37:00,63.5,54.7,29.81,ESE,109,0.0,0.0,73,0.00,,,0.00,127.00,VWS V14.00,2013-03-22 14:37:00,
2013-03-22 09:38:00,63.5,54.7,29.81,NE,37,0.0,0.0,73,0.00,,,0.00,130.00,VWS V14.00,2013-03-22 14:38:00,
2013-03-22 09:39:00,63.5,54.7,29.81,ESE,112,0.0,0.0,73,0.00,,,0.00,105.00,VWS V14.00,2013-03-22 14:39:00,
2013-03-22 09:40:00,63.5,54.7,29.81,ESE,120,0.0,0.0,73,0.00,,,0.00,95.00,VWS V14.00,2013-03-22 14:40:00,
2013-03-22 09:41:00,63.5,54.7,29.81,ENE,65,0.0,0.0,73,0.00,,,0.00,91.00,VWS V14.00,2013-03-22 14:41:00,
2013-03-22 09:42:00,63.5,54.7,29.81,East,90,0.0,0.0,73,0.00,,,0.00,98.00,VWS V14.00,2013-03-22 14:42:00,
2013-03-22 09:43:00,63.5,54.7,29.81,ESE,104,0.0,0.0,73,0.00,,,0.00,98.00,VWS V14.00,2013-03-22 14:43:00,
2013-03-22 09:44:00,63.5,54.7,29.82,ESE,104,0.0,0.0,73,0.00,,,0.00,118.00,VWS V14.00,2013-03-22 14:44:00,
2013-03-22 09:45:00,63.5,54.7,29.82,East,96,0.0,0.0,73,0.00,,,0.00,114.00,VWS V14.00,2013-03-22 14:45:00,
2013-03-22 09:46:00,63.5,54.7,29.82,ENE,73,0.0,0.0,73,0.00,,,0.00,118.00,VWS V14.00,2013-03-22 14:46:00,
2013-03-22 09:47:00,63.7,54.9,29.82,ESE,109,0.0,0.0,73,0.00,,,0.00,123.00,VWS V14.00,2013-03-22 14:47:00,
2013-03-22 09:48:00,63.7,54.9,29.82,NE,55,0.0,0.0,73,0.00,,,0.00,123.00,VWS V14.00,2013-03-22 14:48:00,
2013-03-22 09:49:00,63.7,54.9,29.82,ENE,77,0.0,0.0,73,0.00,,,0.00,156.00,VWS V14.00,2013-03-22 14:49:00,
2013-03-22 09:50:00,63.7,54.9,29.82,East,94,0.0,0.0,73,0.00,,,0.00,172.00,VWS V14.00,2013-03-22 14:50:00,
2013-03-22 09:51:00,63.7,54.9,29.82,East,86,0.0,0.0,73,0.00,,,0.00,160.00,VWS V14.00,2013-03-22 14:51:00,
2013-03-22 09:52:00,63.7,54.9,29.82,East,84,0.0,0.0,73,0.00,,,0.00,130.00,VWS V14.00,2013-03-22 14:52:00,
2013-03-22 09:53:00,63.7,54.9,29.82,SE,125,0.0,0.0,73,0.00,,,0.00,111.00,VWS V14.00,2013-03-22 14:53:00,
2013-03-22 09:54:00,63.7,54.9,29.82,ENE,62,0.0,0.0,73,0.00,,,0.00,109.00,VWS V14.00,2013-03-22 14:54:00,
2013-03-22 09:55:00,63.7,55.3,29.82,ENE,62,0.0,0.0,74,0.00,,,0.00,114.00,VWS V14.00,2013-03-22 14:55:00,
2013-03-22 09:56:00,63.9,55.5,29.82,East,85,0.0,0.0,74,0.00,,,0.00,118.00,VWS V14.00,2013-03-22 14:56:00,
2013-03-22 09:57:00,63.9,55.5,29.82,ENE,75,0.0,0.0,74,0.00,,,0.00,125.00,VWS V14.00,2013-03-22 14:57:00,
2013-03-22 09:58:00,63.9,55.5,29.82,SE,136,0.0,0.0,74,0.00,,,0.00,120.00,VWS V14.00,2013-03-22 14:58:00,
2013-03-22 09:59:00,63.9,55.5,29.82,SE,129,0.0,0.0,74,0.00,,,0.00,116.00,VWS V14.00,2013-03-22 14:59:00,
2013-03-22 10:00:00,63.9,55.5,29.82,SE,142,0.0,0.0,74,0.00,,,0.00,123.00,VWS V14.00,2013-03-22 15:00:00,
2013-03-22 10:01:00,63.9,55.5,29.82,East,87,0.0,0.0,74,0.00,,,0.00,137.00,VWS V14.00,2013-03-22 15:01:00,
2013-03-22 10:02:00,63.9,55.5,29.82,SSE,149,0.0,0.0,74,0.00,,,0.00,151.00,VWS V14.00,2013-03-22 15:02:00,
2013-03-22 10:03:00,63.9,55.5,29.82,East,80,0.0,0.0,74,0.00,,,0.00,149.00,VWS V14.00,2013-03-22 15:03:00,
2013-03-22 10:04:00,63.9,55.5,29.82,NE,36,0.0,0.0,74,0.00,,,0.00,155.00,VWS V14.00,2013-03-22 15:04:00,
2013-03-22 10:05:00,63.9,55.5,29.82,ENE,74,0.0,0.0,74,0.00,,,0.00,149.00,VWS V14.00,2013-03-22 15:05:00,
2013-03-22 10:06:00,63.9,55.5,29.82,East,98,0.0,0.0,74,0.00,,,0.00,142.00,VWS V14.00,2013-03-22 15:06:00,
2013-03-22 10:07:00,63.9,55.1,29.82,SE,126,0.0,0.0,73,0.00,,,0.00,127.00,VWS V14.00,2013-03-22 15:07:00,
2013-03-22 10:08:00,64.0,55.2,29.82,ESE,115,0.0,0.0,73,0.00,,,0.00,116.00,VWS V14.00,2013-03-22 15:08:00,
2013-03-22 10:09:00,64.0,55.2,29.82,SSE,159,0.0,0.0,73,0.00,,,0.00,114.00,VWS V14.00,2013-03-22 15:09:00,
2013-03-22 10:10:00,64.0,55.6,29.82,East,86,0.0,0.0,74,0.00,,,0.00,116.00,VWS V14.00,2013-03-22 15:10:00,
2013-03-22 10:11:00,64.0,55.6,29.82,East,81,0.0,0.0,74,0.00,,,0.00,116.00,VWS V14.00,2013-03-22 15:11:00,
2013-03-22 10:12:00,64.0,55.6,29.82,ENE,78,0.0,0.0,74,0.00,,,0.00,100.00,VWS V14.00,2013-03-22 15:12:00,
2013-03-22 10:13:00,64.0,55.6,29.82,ENE,78,0.0,0.0,74,0.00,,,0.00,88.00,VWS V14.00,2013-03-22 15:13:00,
2013-03-22 10:14:00,64.0,55.6,29.82,ENE,58,0.0,0.0,74,0.00,,,0.00,88.00,VWS V14.00,2013-03-22 15:14:00,
2013-03-22 10:15:00,64.0,55.6,29.82,ENE,72,0.0,0.0,74,0.00,,,0.00,93.00,VWS V14.00,2013-03-22 15:15:00,
2013-03-22 10:16:00,64.0,55.6,29.82,ENE,61,0.0,0.0,74,0.00,,,0.00,102.00,VWS V14.00,2013-03-22 15:16:00,
2013-03-22 10:17:00,64.2,55.8,29.82,ENE,66,0.0,0.0,74,0.00,,,0.00,111.00,VWS V14.00,2013-03-22 15:17:00,
2013-03-22 10:18:00,64.2,55.8,29.82,NE,56,0.0,0.0,74,0.00,,,0.00,102.00,VWS V14.00,2013-03-22 15:18:00,
2013-03-22 10:19:00,64.2,55.8,29.82,ENE,64,0.0,0.0,74,0.00,,,0.00,102.00,VWS V14.00,2013-03-22 15:19:00,
2013-03-22 10:20:00,64.2,55.8,29.82,SE,128,0.0,0.0,74,0.00,,,0.00,102.00,VWS V14.00,2013-03-22 15:20:00,
2013-03-22 10:21:00,64.2,55.8,29.82,SE,133,0.0,0.0,74,0.00,,,0.00,98.00,VWS V14.00,2013-03-22 15:21:00,
2013-03-22 10:22:00,64.2,56.1,29.82,East,96,0.0,0.0,75,0.00,,,0.00,91.00,VWS V14.00,2013-03-22 15:22:00,
2013-03-22 10:23:00,64.2,56.1,29.82,East,96,0.0,0.0,75,0.00,,,0.00,81.00,VWS V14.00,2013-03-22 15:23:00,
2013-03-22 10:24:00,64.2,56.1,29.82,NE,50,0.0,0.0,75,0.00,,,0.00,74.00,VWS V14.00,2013-03-22 15:24:00,
2013-03-22 10:25:00,64.2,56.1,29.82,NE,53,0.0,0.0,75,0.00,,,0.00,70.00,VWS V14.00,2013-03-22 15:25:00,
2013-03-22 10:26:00,64.2,56.1,29.82,SE,146,0.0,0.0,75,0.00,,,0.00,69.00,VWS V14.00,2013-03-22 15:26:00,
2013-03-22 10:27:00,64.2,56.1,29.82,ENE,59,0.0,0.0,75,0.00,,,0.00,69.00,VWS V14.00,2013-03-22 15:27:00,
2013-03-22 10:28:00,64.2,56.1,29.82,East,85,0.0,0.0,75,0.00,,,0.00,69.00,VWS V14.00,2013-03-22 15:28:00,
2013-03-22 10:29:00,64.2,56.1,29.82,NE,53,0.0,0.0,75,0.00,,,0.00,74.00,VWS V14.00,2013-03-22 15:29:00,
2013-03-22 10:30:00,64.0,55.9,29.82,NE,50,0.0,0.0,75,0.00,,,0.00,83.00,VWS V14.00,2013-03-22 15:30:00,
2013-03-22 10:31:00,64.0,55.9,29.82,East,100,0.0,0.0,75,0.00,,,0.00,86.00,VWS V14.00,2013-03-22 15:31:00,
2013-03-22 10:32:00,64.0,55.9,29.82,SE,130,0.0,0.0,75,0.00,,,0.00,90.00,VWS V14.00,2013-03-22 15:32:00,
2013-03-22 10:33:00,64.0,56.3,29.82,SE,144,0.0,0.0,76,0.00,,,0.00,91.00,VWS V14.00,2013-03-22 15:33:00,
2013-03-22 10:34:00,64.0,56.3,29.82,SE,144,0.0,0.0,76,0.00,,,0.00,93.00,VWS V14.00,2013-03-22 15:34:00,
2013-03-22 10:35:00,64.0,56.3,29.82,SE,142,0.0,0.0,76,0.00,,,0.00,95.00,VWS V14.00,2013-03-22 15:35:00,
2013-03-22 10:36:00,64.0,56.3,29.82,SE,142,0.0,0.0,76,0.00,,,0.00,98.00,VWS V14.00,2013-03-22 15:36:00,
2013-03-22 10:37:00,64.0,56.3,29.82,SE,132,0.0,0.0,76,0.00,,,0.00,100.00,VWS V14.00,2013-03-22 15:37:00,
2013-03-22 10:38:00,64.0,56.3,29.82,NE,56,0.0,0.0,76,0.00,,,0.00,105.00,VWS V14.00,2013-03-22 15:38:00,
2013-03-22 10:39:00,64.0,56.3,29.82,ESE,112,0.0,0.0,76,0.00,,,0.00,111.00,VWS V14.00,2013-03-22 15:39:00,
2013-03-22 10:40:00,64.0,56.3,29.82,SE,134,0.0,0.0,76,0.00,,,0.00,109.00,VWS V14.00,2013-03-22 15:40:00,
2013-03-22 10:41:00,64.0,56.3,29.82,SE,134,0.0,0.0,76,0.00,,,0.00,104.00,VWS V14.00,2013-03-22 15:41:00,
2013-03-22 10:42:00,64.0,56.3,29.82,SE,133,0.0,0.0,76,0.00,,,0.00,98.00,VWS V14.00,2013-03-22 15:42:00,
2013-03-22 10:43:00,64.0,56.3,29.82,SE,129,0.0,0.0,76,0.00,,,0.00,97.00,VWS V14.00,2013-03-22 15:43:00,
2013-03-22 10:44:00,64.0,56.3,29.83,SE,136,0.0,0.0,76,0.00,,,0.00,93.00,VWS V14.00,2013-03-22 15:44:00,
2013-03-22 10:45:00,64.0,56.7,29.83,ENE,62,0.0,0.0,77,0.00,,,0.00,88.00,VWS V14.00,2013-03-22 15:45:00,
2013-03-22 10:46:00,64.0,56.7,29.83,ENE,61,0.0,0.0,77,0.00,,,0.00,86.00,VWS V14.00,2013-03-22 15:46:00,
2013-03-22 10:47:00,64.0,56.7,29.83,ENE,68,0.0,0.0,77,0.00,,,0.00,93.00,VWS V14.00,2013-03-22 15:47:00,
2013-03-22 10:48:00,64.0,56.7,29.83,ENE,68,0.0,0.0,77,0.00,,,0.00,93.00,VWS V14.00,2013-03-22 15:48:00,
2013-03-22 10:49:00,64.0,56.7,29.83,ENE,73,0.0,0.0,77,0.00,,,0.00,102.00,VWS V14.00,2013-03-22 15:49:00,
2013-03-22 10:50:00,64.0,56.7,29.83,ENE,66,0.0,0.0,77,0.00,,,0.00,116.00,VWS V14.00,2013-03-22 15:50:00,
2013-03-22 10:51:00,64.0,56.7,29.83,ENE,66,0.0,0.0,77,0.00,,,0.00,114.00,VWS V14.00,2013-03-22 15:51:00,
2013-03-22 10:52:00,64.0,56.7,29.83,ENE,65,0.0,0.0,77,0.00,,,0.00,111.00,VWS V14.00,2013-03-22 15:52:00,
2013-03-22 10:53:00,64.0,56.7,29.83,ENE,63,0.0,0.0,77,0.00,,,0.00,113.00,VWS V14.00,2013-03-22 15:53:00,
2013-03-22 10:54:00,64.0,56.7,29.83,ESE,123,0.0,0.0,77,0.00,,,0.00,149.00,VWS V14.00,2013-03-22 15:54:00,
2013-03-22 10:55:00,64.2,56.8,29.83,ENE,69,0.0,0.0,77,0.00,,,0.00,149.00,VWS V14.00,2013-03-22 15:55:00,
2013-03-22 10:56:00,64.2,56.8,29.83,SE,134,0.0,0.0,77,0.00,,,0.00,156.00,VWS V14.00,2013-03-22 15:56:00,
2013-03-22 10:57:00,64.2,56.8,29.83,ESE,111,0.0,0.0,77,0.00,,,0.00,139.00,VWS V14.00,2013-03-22 15:57:00,
2013-03-22 10:58:00,64.2,56.8,29.83,ESE,111,0.0,0.0,77,0.00,,,0.00,121.00,VWS V14.00,2013-03-22 15:58:00,
2013-03-22 10:59:00,64.2,56.8,29.82,ESE,108,0.0,0.0,77,0.00,,,0.00,113.00,VWS V14.00,2013-03-22 15:59:00,
2013-03-22 11:00:00,64.2,56.8,29.82,ESE,103,0.0,0.0,77,0.00,,,0.00,113.00,VWS V14.00,2013-03-22 16:00:00,
2013-03-22 11:01:00,64.2,56.8,29.82,ENE,69,0.0,0.0,77,0.00,,,0.00,107.00,VWS V14.00,2013-03-22 16:01:00,
2013-03-22 11:02:00,64.2,56.8,29.82,ENE,62,0.0,0.0,77,0.00,,,0.00,109.00,VWS V14.00,2013-03-22 16:02:00,
2013-03-22 11:03:00,64.2,56.8,29.82,ENE,60,0.0,0.0,77,0.00,,,0.00,113.00,VWS V14.00,2013-03-22 16:03:00,
2013-03-22 11:04:00,64.2,56.8,29.82,NE,51,0.0,0.0,77,0.00,,,0.00,111.00,VWS V14.00,2013-03-22 16:04:00,
2013-03-22 11:05:00,64.2,56.8,29.82,East,91,0.0,0.0,77,0.00,,,0.00,121.00,VWS V14.00,2013-03-22 16:05:00,
2013-03-22 11:06:00,64.2,56.8,29.82,ENE,59,0.0,0.0,77,0.00,,,0.00,120.00,VWS V14.00,2013-03-22 16:06:00,
2013-03-22 11:07:00,64.2,56.8,29.82,SE,128,0.0,0.0,77,0.00,,,0.00,111.00,VWS V14.00,2013-03-22 16:07:00,
2013-03-22 11:08:00,64.2,56.8,29.82,SE,128,0.0,0.0,77,0.00,,,0.00,98.00,VWS V14.00,2013-03-22 16:08:00,
2013-03-22 11:09:00,64.2,56.8,29.82,SE,126,0.0,0.0,77,0.00,,,0.00,86.00,VWS V14.00,2013-03-22 16:09:00,
2013-03-22 11:10:00,64.2,56.8,29.82,ESE,111,0.0,0.0,77,0.00,,,0.00,84.00,VWS V14.00,2013-03-22 16:10:00,
2013-03-22 11:11:00,64.2,56.8,29.82,ESE,109,0.0,0.0,77,0.00,,,0.00,91.00,VWS V14.00,2013-03-22 16:11:00,
2013-03-22 11:12:00,64.2,56.8,29.82,NE,53,0.0,0.0,77,0.00,,,0.00,93.00,VWS V14.00,2013-03-22 16:12:00,
2013-03-22 11:13:00,64.2,56.8,29.82,ENE,64,0.0,0.0,77,0.00,,,0.00,91.00,VWS V14.00,2013-03-22 16:13:00,
2013-03-22 11:14:00,64.2,56.8,29.82,ENE,77,0.0,0.0,77,0.00,,,0.00,90.00,VWS V14.00,2013-03-22 16:14:00,
2013-03-22 11:15:00,64.2,56.8,29.82,East,100,0.0,0.0,77,0.00,,,0.00,98.00,VWS V14.00,2013-03-22 16:15:00,
2013-03-22 11:16:00,64.2,56.8,29.82,East,95,0.0,0.0,77,0.00,,,0.00,107.00,VWS V14.00,2013-03-22 16:16:00,
2013-03-22 11:17:00,64.2,56.8,29.82,East,95,0.0,0.0,77,0.00,,,0.00,102.00,VWS V14.00,2013-03-22 16:17:00,
2013-03-22 11:18:00,64.2,56.8,29.82,East,95,0.0,0.0,77,0.00,,,0.00,102.00,VWS V14.00,2013-03-22 16:18:00,
2013-03-22 11:19:00,64.2,56.8,29.82,ENE,61,0.0,0.0,77,0.00,,,0.00,98.00,VWS V14.00,2013-03-22 16:19:00,
2013-03-22 11:20:00,64.2,56.8,29.82,ENE,63,0.0,0.0,77,0.00,,,0.00,93.00,VWS V14.00,2013-03-22 16:20:00,
2013-03-22 11:21:00,64.2,57.2,29.82,NE,34,0.0,0.0,78,0.00,,,0.00,91.00,VWS V14.00,2013-03-22 16:21:00,
2013-03-22 11:22:00,64.2,57.2,29.82,ENE,73,0.0,0.0,78,0.00,,,0.00,100.00,VWS V14.00,2013-03-22 16:22:00,
2013-03-22 11:23:00,64.2,57.2,29.82,ENE,73,0.0,0.0,78,0.00,,,0.00,105.00,VWS V14.00,2013-03-22 16:23:00,
2013-03-22 11:24:00,64.2,57.2,29.82,East,90,0.0,0.0,78,0.00,,,0.00,111.00,VWS V14.00,2013-03-22 16:24:00,
2013-03-22 11:25:00,64.2,57.2,29.82,East,94,0.0,0.0,78,0.00,,,0.00,109.00,VWS V14.00,2013-03-22 16:25:00,
2013-03-22 11:26:00,64.2,57.2,29.82,East,80,0.0,0.0,78,0.00,,,0.00,107.00,VWS V14.00,2013-03-22 16:26:00,
2013-03-22 11:27:00,64.2,57.2,29.82,ESE,113,0.0,0.0,78,0.00,,,0.00,104.00,VWS V14.00,2013-03-22 16:27:00,
2013-03-22 11:28:00,64.2,57.2,29.82,ENE,77,0.0,0.0,78,0.00,,,0.00,102.00,VWS V14.00,2013-03-22 16:28:00,
2013-03-22 11:29:00,64.2,57.2,29.83,East,82,0.0,0.0,78,0.00,,,0.00,111.00,VWS V14.00,2013-03-22 16:29:00,
2013-03-22 11:30:00,64.2,57.2,29.83,East,90,0.0,0.0,78,0.00,,,0.00,111.00,VWS V14.00,2013-03-22 16:30:00,
2013-03-22 11:32:00,64.2,57.2,29.83,ENE,66,0.0,0.0,78,0.00,,,0.00,105.00,VWS V14.00,2013-03-22 16:32:00,
2013-03-22 11:33:00,64.2,57.2,29.83,East,101,0.0,0.0,78,0.00,,,0.00,107.00,VWS V14.00,2013-03-22 16:33:00,
2013-03-22 11:34:00,64.2,57.6,29.83,East,101,0.0,0.0,79,0.00,,,0.00,105.00,VWS V14.00,2013-03-22 16:34:00,
2013-03-22 11:35:00,64.2,57.6,29.83,East,97,0.0,0.0,79,0.00,,,0.00,100.00,VWS V14.00,2013-03-22 16:35:00,
2013-03-22 11:36:00,64.2,57.6,29.83,East,84,0.0,0.0,79,0.00,,,0.00,114.00,VWS V14.00,2013-03-22 16:36:00,
2013-03-22 11:37:00,64.2,57.6,29.83,ENE,60,0.0,0.0,79,0.00,,,0.00,120.00,VWS V14.00,2013-03-22 16:37:00,
2013-03-22 11:38:00,64.2,57.6,29.83,ENE,63,0.0,0.0,79,0.00,,,0.00,120.00,VWS V14.00,2013-03-22 16:38:00,
2013-03-22 11:39:00,64.2,57.6,29.83,NE,34,0.0,0.0,79,0.00,,,0.00,102.00,VWS V14.00,2013-03-22 16:39:00,
2013-03-22 11:40:00,64.2,57.6,29.83,NE,56,0.0,0.0,79,0.00,,,0.00,58.00,VWS V14.00,2013-03-22 16:40:00,
2013-03-22 11:41:00,64.2,57.6,29.83,ENE,64,0.0,0.0,79,0.00,,,0.00,51.00,VWS V14.00,2013-03-22 16:41:00,
2013-03-22 11:42:00,64.0,57.4,29.83,ESE,115,0.0,0.0,79,0.00,,,0.00,58.00,VWS V14.00,2013-03-22 16:42:00,
2013-03-22 11:43:00,64.0,57.4,29.83,ESE,117,0.0,0.0,79,0.00,,,0.00,70.00,VWS V14.00,2013-03-22 16:43:00,
2013-03-22 11:44:00,64.0,57.4,29.83,NE,47,0.0,0.0,79,0.00,,,0.00,81.00,VWS V14.00,2013-03-22 16:44:00,
2013-03-22 11:45:00,64.0,57.7,29.83,NE,47,0.0,0.0,80,0.00,,,0.00,81.00,VWS V14.00,2013-03-22 16:45:00,
2013-03-22 11:46:00,64.2,57.9,29.83,ENE,66,0.0,0.0,80,0.00,,,0.00,91.00,VWS V14.00,2013-03-22 16:46:00,
2013-03-22 11:47:00,64.2,58.3,29.83,NE,52,0.0,0.0,81,0.00,,,0.00,100.00,VWS V14.00,2013-03-22 16:47:00,
2013-03-22 11:48:00,64.0,58.1,29.83,ENE,63,0.0,0.0,81,0.00,,,0.00,100.00,VWS V14.00,2013-03-22 16:48:00,
2013-03-22 11:49:00,64.0,58.4,29.83,ENE,63,0.0,0.0,82,0.00,,,0.00,105.00,VWS V14.00,2013-03-22 16:49:00,
2013-03-22 11:50:00,64.0,58.7,29.83,ENE,63,0.0,0.0,83,0.00,,,0.00,113.00,VWS V14.00,2013-03-22 16:50:00,
2013-03-22 11:51:00,64.0,58.7,29.83,SE,137,0.0,0.0,83,0.00,,,0.00,102.00,VWS V14.00,2013-03-22 16:51:00,
2013-03-22 11:52:00,63.9,58.6,29.83,NE,47,0.0,0.0,83,0.00,,,0.00,114.00,VWS V14.00,2013-03-22 16:52:00,
2013-03-22 11:53:00,63.9,58.6,29.83,ENE,69,0.0,0.0,83,0.00,,,0.00,114.00,VWS V14.00,2013-03-22 16:53:00,
2013-03-22 11:54:00,63.7,58.8,29.83,ESE,109,0.0,0.0,84,0.00,,,0.00,128.00,VWS V14.00,2013-03-22 16:54:00,
2013-03-22 11:55:00,63.5,58.6,29.83,ENE,59,0.0,0.0,84,0.00,,,0.00,130.00,VWS V14.00,2013-03-22 16:55:00,
2013-03-22 11:56:00,63.5,58.6,29.83,ENE,78,0.0,0.0,84,0.00,,,0.00,135.00,VWS V14.00,2013-03-22 16:56:00,
2013-03-22 11:57:00,63.4,58.8,29.83,ENE,78,0.0,0.0,85,0.00,,,0.00,123.00,VWS V14.00,2013-03-22 16:57:00,
2013-03-22 11:58:00,63.4,58.8,29.83,ENE,78,0.0,0.0,85,0.00,,,0.00,102.00,VWS V14.00,2013-03-22 16:58:00,
2013-03-22 11:59:00,63.4,58.8,29.83,ENE,78,0.0,0.0,85,0.00,,,0.00,79.00,VWS V14.00,2013-03-22 16:59:00,
2013-03-22 12:00:00,63.4,58.8,29.83,ENE,78,0.0,0.0,85,0.00,,,0.00,77.00,VWS V14.00,2013-03-22 17:00:00,
2013-03-22 12:01:00,63.2,59.0,29.83,ENE,78,0.0,0.0,86,0.00,,,0.00,77.00,VWS V14.00,2013-03-22 17:01:00,
2013-03-22 12:02:00,63.2,59.0,29.83,ESE,112,0.0,0.0,86,0.00,,,0.00,76.00,VWS V14.00,2013-03-22 17:02:00,
2013-03-22 12:03:00,63.2,59.0,29.83,ENE,69,0.0,0.0,86,0.00,,,0.00,77.00,VWS V14.00,2013-03-22 17:03:00,
2013-03-22 12:04:00,63.1,58.8,29.83,ENE,69,0.0,0.0,86,0.00,,,0.00,100.00,VWS V14.00,2013-03-22 17:04:00,
2013-03-22 12:05:00,63.1,58.8,29.83,ENE,70,0.0,0.0,86,0.00,,,0.00,111.00,VWS V14.00,2013-03-22 17:05:00,
2013-03-22 12:06:00,63.1,58.8,29.83,ENE,76,0.0,0.0,86,0.00,,,0.00,123.00,VWS V14.00,2013-03-22 17:06:00,
2013-03-22 12:07:00,63.1,59.2,29.83,ENE,76,0.0,0.0,87,0.00,,,0.00,128.00,VWS V14.00,2013-03-22 17:07:00,
2013-03-22 12:08:00,63.1,59.2,29.83,ENE,61,0.0,0.0,87,0.00,,,0.00,113.00,VWS V14.00,2013-03-22 17:08:00,
2013-03-22 12:09:00,63.1,59.2,29.83,ENE,77,0.0,0.0,87,0.00,,,0.00,100.00,VWS V14.00,2013-03-22 17:09:00,
2013-03-22 12:10:00,62.9,59.0,29.83,ENE,78,0.0,0.0,87,0.00,,,0.00,127.00,VWS V14.00,2013-03-22 17:10:00,
2013-03-22 12:11:00,62.9,59.0,29.83,ENE,76,0.0,0.0,87,0.00,,,0.00,153.00,VWS V14.00,2013-03-22 17:11:00,
2013-03-22 12:12:00,62.9,59.0,29.83,NE,51,0.0,0.0,87,0.00,,,0.00,163.00,VWS V14.00,2013-03-22 17:12:00,
2013-03-22 12:13:00,62.7,58.8,29.83,ENE,66,0.0,0.0,87,0.00,,,0.00,176.00,VWS V14.00,2013-03-22 17:13:00,
2013-03-22 12:14:00,62.7,58.8,29.83,ENE,69,0.0,0.0,87,0.00,,,0.00,167.00,VWS V14.00,2013-03-22 17:14:00,
2013-03-22 12:15:00,62.7,58.8,29.83,ESE,109,0.0,0.0,87,0.00,,,0.00,142.00,VWS V14.00,2013-03-22 17:15:00,
2013-03-22 12:16:00,62.7,58.8,29.83,ENE,76,0.0,0.0,87,0.00,,,0.00,123.00,VWS V14.00,2013-03-22 17:16:00,
2013-03-22 12:17:00,62.7,58.8,29.83,East,85,0.0,0.0,87,0.00,,,0.00,125.00,VWS V14.00,2013-03-22 17:17:00,
2013-03-22 12:18:00,62.7,58.8,29.83,ESE,108,0.0,0.0,87,0.00,,,0.00,113.00,VWS V14.00,2013-03-22 17:18:00,
2013-03-22 12:19:00,62.7,58.8,29.83,East,80,0.0,0.0,87,0.00,,,0.00,116.00,VWS V14.00,2013-03-22 17:19:00,
2013-03-22 12:20:00,62.7,58.8,29.83,East,80,0.0,0.0,87,0.00,,,0.00,116.00,VWS V14.00,2013-03-22 17:20:00,
2013-03-22 12:21:00,62.7,58.8,29.83,ENE,67,0.0,0.0,87,0.00,,,0.00,123.00,VWS V14.00,2013-03-22 17:21:00,
2013-03-22 12:22:00,62.7,58.8,29.83,SE,126,0.0,0.0,87,0.00,,,0.00,127.00,VWS V14.00,2013-03-22 17:22:00,
2013-03-22 12:23:00,62.7,58.8,29.83,ENE,70,0.0,0.0,87,0.00,,,0.00,125.00,VWS V14.00,2013-03-22 17:23:00,
2013-03-22 12:24:00,62.7,58.8,29.83,NE,38,0.0,0.0,87,0.00,,,0.00,123.00,VWS V14.00,2013-03-22 17:24:00,
2013-03-22 12:25:00,62.7,58.8,29.83,ENE,63,0.0,0.0,87,0.00,,,0.00,134.00,VWS V14.00,2013-03-22 17:25:00,
2013-03-22 12:26:00,62.7,58.8,29.83,East,87,0.0,0.0,87,0.00,,,0.00,155.00,VWS V14.00,2013-03-22 17:26:00,
2013-03-22 12:27:00,62.7,58.8,29.83,East,92,0.0,0.0,87,0.00,,,0.00,209.00,VWS V14.00,2013-03-22 17:27:00,
2013-03-22 12:28:00,62.7,58.8,29.83,East,94,0.0,0.0,87,0.00,,,0.00,206.00,VWS V14.00,2013-03-22 17:28:00,
2013-03-22 12:29:00,62.7,58.8,29.83,ESE,122,0.0,0.0,87,0.00,,,0.00,172.00,VWS V14.00,2013-03-22 17:29:00,
2013-03-22 12:30:00,62.7,58.8,29.83,ENE,69,0.0,0.0,87,0.00,,,0.00,139.00,VWS V14.00,2013-03-22 17:30:00,
2013-03-22 12:32:00,62.7,58.8,29.83,NE,51,0.0,0.0,87,0.00,,,0.00,125.00,VWS V14.00,2013-03-22 17:32:00,
2013-03-22 12:33:00,62.7,58.8,29.83,NE,49,0.0,0.0,87,0.00,,,0.00,141.00,VWS V14.00,2013-03-22 17:33:00,
2013-03-22 12:34:00,62.7,58.8,29.83,SE,142,0.0,0.0,87,0.00,,,0.00,176.00,VWS V14.00,2013-03-22 17:34:00,
2013-03-22 12:35:00,62.7,58.8,29.83,ENE,66,0.0,0.0,87,0.00,,,0.00,192.00,VWS V14.00,2013-03-22 17:35:00,
2013-03-22 12:36:00,62.7,58.8,29.83,NE,55,0.0,0.0,87,0.00,,,0.00,239.00,VWS V14.00,2013-03-22 17:36:00,
2013-03-22 12:37:00,62.7,58.8,29.83,NE,55,0.0,0.0,87,0.00,,,0.00,297.00,VWS V14.00,2013-03-22 17:37:00,
2013-03-22 12:38:00,62.7,58.8,29.83,East,94,0.0,0.0,87,0.00,,,0.00,332.00,VWS V14.00,2013-03-22 17:38:00,
2013-03-22 12:39:00,62.9,59.0,29.83,East,88,0.0,0.0,87,0.00,,,0.00,406.00,VWS V14.00,2013-03-22 17:39:00,
2013-03-22 12:40:00,62.9,59.0,29.83,East,95,0.0,0.0,87,0.00,,,0.00,406.00,VWS V14.00,2013-03-22 17:40:00,
2013-03-22 12:41:00,62.9,59.0,29.83,NE,49,0.0,0.0,87,0.00,,,0.00,406.00,VWS V14.00,2013-03-22 17:41:00,
2013-03-22 12:42:00,62.9,59.0,29.83,ENE,64,0.0,0.0,87,0.00,,,0.00,884.00,VWS V14.00,2013-03-22 17:42:00,
2013-03-22 12:43:00,63.1,58.8,29.83,SE,136,0.0,0.0,86,0.00,,,0.00,842.00,VWS V14.00,2013-03-22 17:43:00,
2013-03-22 12:44:00,63.2,59.3,29.80,East,97,0.0,0.0,87,0.00,,,0.00,457.00,VWS V14.00,2013-03-22 17:44:00,
2013-03-22 12:45:00,63.4,59.2,29.80,East,99,0.0,0.0,86,0.00,,,0.00,457.00,VWS V14.00,2013-03-22 17:45:00,
2013-03-22 12:46:00,63.4,59.2,29.80,East,86,0.0,0.0,86,0.00,,,0.00,457.00,VWS V14.00,2013-03-22 17:46:00,
2013-03-22 12:47:00,63.4,58.8,29.80,East,90,0.0,0.0,85,0.00,,,0.00,457.00,VWS V14.00,2013-03-22 17:47:00,
2013-03-22 12:48:00,63.5,58.9,29.80,SE,130,0.0,0.0,85,0.00,,,0.00,851.00,VWS V14.00,2013-03-22 17:48:00,
2013-03-22 12:49:00,63.9,59.3,29.80,East,92,0.0,0.0,85,0.00,,,0.00,851.00,VWS V14.00,2013-03-22 17:49:00,
2013-03-22 12:50:00,63.9,59.0,29.80,East,86,0.0,0.0,84,0.00,,,0.00,851.00,VWS V14.00,2013-03-22 17:50:00,
2013-03-22 12:51:00,64.0,59.1,29.80,East,92,0.0,0.0,84,0.00,,,0.00,851.00,VWS V14.00,2013-03-22 17:51:00,
2013-03-22 12:52:00,64.2,58.9,29.80,NE,36,0.0,0.0,83,0.00,,,0.00,851.00,VWS V14.00,2013-03-22 17:52:00,
2013-03-22 12:53:00,64.3,59.0,29.80,SE,128,0.0,0.0,83,0.00,,,0.00,336.00,VWS V14.00,2013-03-22 17:53:00,
2013-03-22 12:54:00,64.3,58.7,29.80,ESE,113,0.0,0.0,82,0.00,,,0.00,874.00,VWS V14.00,2013-03-22 17:54:00,
2013-03-22 12:55:00,64.5,58.9,29.80,ENE,57,0.0,0.0,82,0.00,,,0.00,874.00,VWS V14.00,2013-03-22 17:55:00,
2013-03-22 12:56:00,64.7,58.7,29.80,SE,138,0.0,0.0,81,0.00,,,0.00,874.00,VWS V14.00,2013-03-22 17:56:00,
2013-03-22 12:57:00,64.8,59.2,29.80,ESE,103,0.0,0.0,82,0.00,,,0.00,874.00,VWS V14.00,2013-03-22 17:57:00,
2013-03-22 12:58:00,65.0,59.0,29.80,NE,55,0.0,0.0,81,0.00,,,0.00,800.00,VWS V14.00,2013-03-22 17:58:00,
2013-03-22 12:59:00,65.2,58.9,29.79,NE,42,0.0,0.0,80,0.00,,,0.00,803.00,VWS V14.00,2013-03-22 17:59:00,
2013-03-22 13:00:00,65.3,59.3,29.79,ESE,118,0.0,0.0,81,0.00,,,0.00,824.00,VWS V14.00,2013-03-22 18:00:00,
2013-03-22 13:01:00,65.6,59.3,29.79,East,85,0.0,0.0,80,0.00,,,0.00,824.00,VWS V14.00,2013-03-22 18:01:00,
2013-03-22 13:02:00,65.8,59.5,29.79,ESE,105,0.0,0.0,80,0.00,,,0.00,824.00,VWS V14.00,2013-03-22 18:02:00,
2013-03-22 13:03:00,66.0,59.7,29.79,ESE,108,0.0,0.0,80,0.00,,,0.00,824.00,VWS V14.00,2013-03-22 18:03:00,
2013-03-22 13:04:00,66.1,59.4,29.79,NE,49,0.0,0.0,79,0.00,,,0.00,824.00,VWS V14.00,2013-03-22 18:04:00,
2013-03-22 13:05:00,66.1,59.4,29.79,NE,53,0.0,0.0,79,0.00,,,0.00,865.00,VWS V14.00,2013-03-22 18:05:00,
2013-03-22 13:06:00,66.3,60.0,29.79,SE,139,0.0,0.0,80,0.00,,,0.00,865.00,VWS V14.00,2013-03-22 18:06:00,
2013-03-22 13:07:00,66.3,58.9,29.79,ESE,111,0.0,0.0,77,0.00,,,0.00,206.00,VWS V14.00,2013-03-22 18:07:00,
2013-03-22 13:08:00,66.3,58.9,29.79,SE,130,0.0,0.0,77,0.00,,,0.00,239.00,VWS V14.00,2013-03-22 18:08:00,
2013-03-22 13:09:00,66.3,58.9,29.79,East,100,0.0,0.0,77,0.00,,,0.00,315.00,VWS V14.00,2013-03-22 18:09:00,
2013-03-22 13:10:00,66.3,58.9,29.79,NE,56,0.0,0.0,77,0.00,,,0.00,283.00,VWS V14.00,2013-03-22 18:10:00,
2013-03-22 13:11:00,66.1,58.3,29.79,SSE,159,0.0,0.0,76,0.00,,,0.00,216.00,VWS V14.00,2013-03-22 18:11:00,
2013-03-22 13:12:00,66.1,58.7,29.79,ENE,67,0.0,0.0,77,0.00,,,0.00,171.00,VWS V14.00,2013-03-22 18:12:00,
2013-03-22 13:13:00,66.1,58.7,29.79,ENE,58,0.0,0.0,77,0.00,,,0.00,142.00,VWS V14.00,2013-03-22 18:13:00,
2013-03-22 13:14:00,66.1,58.7,29.80,ESE,118,0.0,0.0,77,0.00,,,0.00,104.00,VWS V14.00,2013-03-22 18:14:00,
2013-03-22 13:15:00,66.0,58.6,29.80,East,90,0.0,0.0,77,0.00,,,0.00,72.00,VWS V14.00,2013-03-22 18:15:00,
2013-03-22 13:16:00,66.0,58.6,29.80,ESE,111,0.0,0.0,77,0.00,,,0.00,46.00,VWS V14.00,2013-03-22 18:16:00,
2013-03-22 13:17:00,65.8,58.4,29.80,SE,145,0.0,0.0,77,0.00,,,0.00,39.00,VWS V14.00,2013-03-22 18:17:00,
2013-03-22 13:18:00,65.8,58.4,29.80,SE,143,0.0,0.0,77,0.00,,,0.00,46.00,VWS V14.00,2013-03-22 18:18:00,
2013-03-22 13:19:00,65.8,58.4,29.80,ENE,78,0.0,0.0,77,0.01,,,0.01,46.00,VWS V14.00,2013-03-22 18:19:00,
2013-03-22 13:20:00,65.6,58.6,29.80,ESE,122,0.0,0.0,78,0.03,,,0.03,44.00,VWS V14.00,2013-03-22 18:20:00,
2013-03-22 13:21:00,65.5,58.8,29.80,ESE,123,0.0,0.0,79,0.04,,,0.04,44.00,VWS V14.00,2013-03-22 18:21:00,
2013-03-22 13:22:00,65.5,59.2,29.80,ESE,123,0.0,0.0,80,0.06,,,0.06,42.00,VWS V14.00,2013-03-22 18:22:00,
2013-03-22 13:23:00,65.3,59.3,29.80,ESE,118,0.0,0.0,81,0.07,,,0.07,40.00,VWS V14.00,2013-03-22 18:23:00,
2013-03-22 13:24:00,65.3,59.7,29.80,ESE,118,0.0,0.0,82,0.08,,,0.08,39.00,VWS V14.00,2013-03-22 18:24:00,
2013-03-22 13:25:00,65.3,59.7,29.80,ESE,118,0.0,0.0,82,0.08,,,0.08,35.00,VWS V14.00,2013-03-22 18:25:00,
2013-03-22 13:26:00,65.2,59.9,29.80,ESE,118,0.0,0.0,83,0.08,,,0.08,39.00,VWS V14.00,2013-03-22 18:26:00,
2013-03-22 13:27:00,65.0,59.7,29.80,ESE,118,0.0,0.0,83,0.08,,,0.08,44.00,VWS V14.00,2013-03-22 18:27:00,
2013-03-22 13:28:00,64.7,59.4,29.80,ESE,118,0.0,0.0,83,0.08,,,0.08,53.00,VWS V14.00,2013-03-22 18:28:00,
2013-03-22 13:29:00,64.7,59.8,29.80,East,101,0.0,0.0,84,0.09,,,0.09,63.00,VWS V14.00,2013-03-22 18:29:00,
2013-03-22 13:30:00,64.5,59.6,29.80,East,101,0.0,0.0,84,0.09,,,0.09,65.00,VWS V14.00,2013-03-22 18:30:00,
2013-03-22 13:31:00,64.3,59.7,29.80,East,86,0.0,0.0,85,0.09,,,0.09,79.00,VWS V14.00,2013-03-22 18:31:00,
2013-03-22 13:32:00,64.2,59.6,29.80,East,86,0.0,0.0,85,0.09,,,0.09,93.00,VWS V14.00,2013-03-22 18:32:00,
2013-03-22 13:33:00,64.2,59.9,29.80,East,86,0.0,0.0,86,0.09,,,0.09,102.00,VWS V14.00,2013-03-22 18:33:00,
2013-03-22 13:34:00,64.0,59.7,29.80,East,80,0.0,0.0,86,0.09,,,0.09,105.00,VWS V14.00,2013-03-22 18:34:00,
2013-03-22 13:35:00,64.0,59.7,29.80,NE,40,0.0,0.0,86,0.09,,,0.09,116.00,VWS V14.00,2013-03-22 18:35:00,
2013-03-22 13:36:00,63.9,60.0,29.80,NE,45,0.0,0.0,87,0.09,,,0.09,132.00,VWS V14.00,2013-03-22 18:36:00,
2013-03-22 13:37:00,63.7,59.8,29.80,ENE,74,0.0,0.0,87,0.09,,,0.09,153.00,VWS V14.00,2013-03-22 18:37:00,
2013-03-22 13:38:00,63.5,59.9,29.80,ENE,74,0.0,0.0,88,0.09,,,0.09,153.00,VWS V14.00,2013-03-22 18:38:00,
2013-03-22 13:39:00,63.5,59.9,29.80,ENE,65,0.0,0.0,88,0.09,,,0.09,135.00,VWS V14.00,2013-03-22 18:39:00,
2013-03-22 13:40:00,63.4,59.8,29.80,ENE,66,0.0,0.0,88,0.09,,,0.09,130.00,VWS V14.00,2013-03-22 18:40:00,
2013-03-22 13:41:00,63.4,59.8,29.80,ENE,59,0.0,0.0,88,0.09,,,0.09,130.00,VWS V14.00,2013-03-22 18:41:00,
2013-03-22 13:42:00,63.2,59.9,29.80,SE,139,0.0,0.0,89,0.09,,,0.09,125.00,VWS V14.00,2013-03-22 18:42:00,
2013-03-22 13:43:00,63.2,59.9,29.80,ENE,61,0.0,0.0,89,0.09,,,0.09,111.00,VWS V14.00,2013-03-22 18:43:00,
2013-03-22 13:44:00,63.2,59.9,29.79,East,92,0.0,0.0,89,0.09,,,0.09,98.00,VWS V14.00,2013-03-22 18:44:00,
2013-03-22 13:45:00,63.1,59.8,29.79,SE,129,0.0,0.0,89,0.09,,,0.09,93.00,VWS V14.00,2013-03-22 18:45:00,
2013-03-22 13:46:00,62.9,59.6,29.79,SE,146,0.0,0.0,89,0.09,,,0.09,102.00,VWS V14.00,2013-03-22 18:46:00,
2013-03-22 13:47:00,62.9,59.9,29.79,SE,131,0.0,0.0,90,0.09,,,0.09,123.00,VWS V14.00,2013-03-22 18:47:00,
2013-03-22 13:48:00,62.7,59.7,29.79,SE,131,0.0,0.0,90,0.09,,,0.09,139.00,VWS V14.00,2013-03-22 18:48:00,
2013-03-22 13:49:00,62.7,59.7,29.79,SE,130,0.0,0.0,90,0.09,,,0.09,153.00,VWS V14.00,2013-03-22 18:49:00,
2013-03-22 13:50:00,62.7,60.0,29.79,ESE,114,0.0,0.0,91,0.09,,,0.09,167.00,VWS V14.00,2013-03-22 18:50:00,
2013-03-22 13:51:00,62.7,60.0,29.79,East,84,0.0,0.0,91,0.09,,,0.09,149.00,VWS V14.00,2013-03-22 18:51:00,
2013-03-22 13:52:00,62.6,59.9,29.79,East,85,0.0,0.0,91,0.09,,,0.09,144.00,VWS V14.00,2013-03-22 18:52:00,
2013-03-22 13:53:00,62.6,59.9,29.79,ENE,61,0.0,0.0,91,0.09,,,0.09,121.00,VWS V14.00,2013-03-22 18:53:00,
2013-03-22 13:54:00,62.6,60.2,29.79,ENE,67,0.0,0.0,92,0.09,,,0.09,97.00,VWS V14.00,2013-03-22 18:54:00,
2013-03-22 13:55:00,62.6,60.2,29.79,ENE,70,0.0,0.0,92,0.09,,,0.09,77.00,VWS V14.00,2013-03-22 18:55:00,
2013-03-22 13:56:00,62.6,60.2,29.79,East,94,0.0,0.0,92,0.09,,,0.09,65.00,VWS V14.00,2013-03-22 18:56:00,
2013-03-22 13:57:00,62.6,60.2,29.79,ESE,109,0.0,0.0,92,0.09,,,0.09,63.00,VWS V14.00,2013-03-22 18:57:00,
2013-03-22 13:58:00,62.6,60.2,29.79,ESE,103,0.0,0.0,92,0.09,,,0.09,63.00,VWS V14.00,2013-03-22 18:58:00,
2013-03-22 13:59:00,62.4,60.3,29.78,East,96,0.0,0.0,93,0.09,,,0.09,88.00,VWS V14.00,2013-03-22 18:59:00,
2013-03-22 14:00:00,62.4,60.3,29.78,NE,46,0.0,0.0,93,0.09,,,0.09,107.00,VWS V14.00,2013-03-22 19:00:00,
2013-03-22 14:01:00,62.4,60.3,29.78,NE,46,0.0,0.0,93,0.09,,,0.09,120.00,VWS V14.00,2013-03-22 19:01:00,
2013-03-22 14:02:00,62.4,60.3,29.78,East,86,0.0,0.0,93,0.09,,,0.09,144.00,VWS V14.00,2013-03-22 19:02:00,
2013-03-22 14:03:00,62.4,60.3,29.78,ENE,73,0.0,0.0,93,0.09,,,0.09,178.00,VWS V14.00,2013-03-22 19:03:00,
2013-03-22 14:04:00,62.4,60.3,29.78,ENE,66,0.0,0.0,93,0.09,,,0.09,163.00,VWS V14.00,2013-03-22 19:04:00,
2013-03-22 14:05:00,62.4,60.3,29.78,ENE,75,0.0,0.0,93,0.09,,,0.09,146.00,VWS V14.00,2013-03-22 19:05:00,
2013-03-22 14:06:00,62.4,60.3,29.78,ENE,76,0.0,0.0,93,0.09,,,0.09,130.00,VWS V14.00,2013-03-22 19:06:00,
2013-03-22 14:07:00,62.3,60.2,29.78,ENE,76,0.0,0.0,93,0.09,,,0.09,113.00,VWS V14.00,2013-03-22 19:07:00,
2013-03-22 14:08:00,62.3,60.2,29.78,East,88,0.0,0.0,93,0.09,,,0.09,79.00,VWS V14.00,2013-03-22 19:08:00,
2013-03-22 14:09:00,62.3,60.2,29.78,East,88,0.0,0.0,93,0.09,,,0.09,69.00,VWS V14.00,2013-03-22 19:09:00,
2013-03-22 14:10:00,62.3,60.6,29.78,East,91,0.0,0.0,94,0.09,,,0.09,70.00,VWS V14.00,2013-03-22 19:10:00,
2013-03-22 14:11:00,62.3,60.2,29.78,ESE,115,0.0,0.0,93,0.09,,,0.09,88.00,VWS V14.00,2013-03-22 19:11:00,
2013-03-22 14:12:00,62.3,60.6,29.78,ESE,109,0.0,0.0,94,0.09,,,0.09,109.00,VWS V14.00,2013-03-22 19:12:00,
2013-03-22 14:13:00,62.3,60.6,29.78,East,99,0.0,0.0,94,0.09,,,0.09,113.00,VWS V14.00,2013-03-22 19:13:00,
2013-03-22 14:14:00,62.3,60.6,29.77,SE,140,0.0,0.0,94,0.09,,,0.09,128.00,VWS V14.00,2013-03-22 19:14:00,
2013-03-22 14:15:00,62.3,60.6,29.77,SE,140,0.0,0.0,94,0.09,,,0.09,141.00,VWS V14.00,2013-03-22 19:15:00,
2013-03-22 14:16:00,62.3,60.6,29.77,SE,131,0.0,0.0,94,0.09,,,0.09,137.00,VWS V14.00,2013-03-22 19:16:00,
2013-03-22 14:17:00,62.3,60.6,29.77,ESE,121,0.0,0.0,94,0.09,,,0.09,130.00,VWS V14.00,2013-03-22 19:17:00,
2013-03-22 14:18:00,62.3,60.6,29.77,NNE,30,0.0,0.0,94,0.09,,,0.09,134.00,VWS V14.00,2013-03-22 19:18:00,
2013-03-22 14:19:00,62.3,60.6,29.77,SE,142,0.0,0.0,94,0.09,,,0.09,146.00,VWS V14.00,2013-03-22 19:19:00,
2013-03-22 14:20:00,62.3,60.6,29.77,SE,140,0.0,0.0,94,0.09,,,0.09,153.00,VWS V14.00,2013-03-22 19:20:00,
2013-03-22 14:21:00,62.3,60.6,29.77,SE,144,0.0,0.0,94,0.09,,,0.09,172.00,VWS V14.00,2013-03-22 19:21:00,
2013-03-22 14:22:00,62.3,60.6,29.77,SE,144,0.0,0.0,94,0.09,,,0.09,174.00,VWS V14.00,2013-03-22 19:22:00,
2013-03-22 14:23:00,62.3,60.6,29.77,East,84,0.0,0.0,94,0.09,,,0.09,167.00,VWS V14.00,2013-03-22 19:23:00,
2013-03-22 14:24:00,62.4,60.7,29.77,SE,132,0.0,0.0,94,0.09,,,0.09,174.00,VWS V14.00,2013-03-22 19:24:00,
2013-03-22 14:25:00,62.3,60.6,29.77,SE,130,0.0,0.0,94,0.09,,,0.09,176.00,VWS V14.00,2013-03-22 19:25:00,
2013-03-22 14:26:00,62.4,60.7,29.77,SE,130,0.0,0.0,94,0.09,,,0.09,141.00,VWS V14.00,2013-03-22 19:26:00,
2013-03-22 14:27:00,62.4,60.7,29.77,SE,130,0.0,0.0,94,0.09,,,0.09,141.00,VWS V14.00,2013-03-22 19:27:00,
2013-03-22 14:28:00,62.4,60.7,29.77,SE,130,0.0,0.0,94,0.09,,,0.09,144.00,VWS V14.00,2013-03-22 19:28:00,
2013-03-22 14:29:00,62.4,60.7,29.77,ENE,74,0.0,0.0,94,0.09,,,0.09,148.00,VWS V14.00,2013-03-22 19:29:00,
2013-03-22 14:30:00,62.4,60.7,29.77,East,81,0.0,0.0,94,0.09,,,0.09,172.00,VWS V14.00,2013-03-22 19:30:00,
2013-03-22 14:31:00,62.4,60.7,29.77,ENE,71,0.0,0.0,94,0.00,,,0.09,211.00,VWS V14.00,2013-03-22 19:31:00,
2013-03-22 14:32:00,62.4,61.0,29.77,SE,124,0.0,0.0,95,0.00,,,0.09,230.00,VWS V14.00,2013-03-22 19:32:00,
2013-03-22 14:33:00,62.4,60.7,29.77,SSE,150,0.0,0.0,94,0.00,,,0.09,232.00,VWS V14.00,2013-03-22 19:33:00,
2013-03-22 14:34:00,62.4,61.0,29.77,SE,126,0.0,0.0,95,0.00,,,0.09,176.00,VWS V14.00,2013-03-22 19:34:00,
2013-03-22 14:35:00,62.4,61.0,29.77,SE,126,0.0,0.0,95,0.00,,,0.09,114.00,VWS V14.00,2013-03-22 19:35:00,
2013-03-22 14:36:00,62.6,61.2,29.77,ENE,61,0.0,0.0,95,0.00,,,0.09,88.00,VWS V14.00,2013-03-22 19:36:00,
2013-03-22 14:37:00,62.6,61.2,29.77,ENE,61,0.0,0.0,95,0.00,,,0.09,65.00,VWS V14.00,2013-03-22 19:37:00,
2013-03-22 14:38:00,62.6,61.2,29.77,ENE,64,0.0,0.0,95,0.00,,,0.09,56.00,VWS V14.00,2013-03-22 19:38:00,
2013-03-22 14:39:00,62.6,60.8,29.77,ENE,72,0.0,0.0,94,0.00,,,0.09,56.00,VWS V14.00,2013-03-22 19:39:00,
2013-03-22 14:40:00,62.6,61.2,29.77,East,81,0.0,0.0,95,0.00,,,0.09,67.00,VWS V14.00,2013-03-22 19:40:00,
2013-03-22 14:41:00,62.6,61.2,29.77,East,82,0.0,0.0,95,0.00,,,0.09,77.00,VWS V14.00,2013-03-22 19:41:00,
2013-03-22 14:42:00,62.6,60.8,29.77,East,82,0.0,0.0,94,0.00,,,0.09,93.00,VWS V14.00,2013-03-22 19:42:00,
2013-03-22 14:43:00,62.6,60.8,29.77,East,84,0.0,0.0,94,0.00,,,0.09,127.00,VWS V14.00,2013-03-22 19:43:00,
2013-03-22 14:44:00,62.6,60.8,29.77,East,84,0.0,0.0,94,0.00,,,0.09,151.00,VWS V14.00,2013-03-22 19:44:00,
2013-03-22 14:45:00,62.6,60.8,29.77,East,84,0.0,0.0,94,0.00,,,0.09,158.00,VWS V14.00,2013-03-22 19:45:00,
2013-03-22 14:46:00,62.6,60.8,29.77,South,170,0.0,0.0,94,0.00,,,0.09,174.00,VWS V14.00,2013-03-22 19:46:00,
2013-03-22 14:47:00,62.6,60.8,29.77,SE,126,0.0,0.0,94,0.00,,,0.09,179.00,VWS V14.00,2013-03-22 19:47:00,
2013-03-22 14:48:00,62.6,61.2,29.77,ESE,123,0.0,0.0,95,0.00,,,0.09,197.00,VWS V14.00,2013-03-22 19:48:00,
2013-03-22 14:49:00,62.7,61.2,29.77,NNE,28,0.0,0.0,95,0.00,,,0.09,230.00,VWS V14.00,2013-03-22 19:49:00,
2013-03-22 14:50:00,62.7,61.2,29.77,ENE,60,0.0,0.0,95,0.00,,,0.09,218.00,VWS V14.00,2013-03-22 19:50:00,
2013-03-22 14:51:00,62.7,61.2,29.77,NE,55,0.0,0.0,95,0.00,,,0.09,185.00,VWS V14.00,2013-03-22 19:51:00,
2013-03-22 14:52:00,62.7,61.2,29.77,NE,39,0.0,0.0,95,0.00,,,0.09,183.00,VWS V14.00,2013-03-22 19:52:00,
2013-03-22 14:53:00,62.9,61.5,29.77,East,91,0.0,0.0,95,0.00,,,0.09,207.00,VWS V14.00,2013-03-22 19:53:00,
2013-03-22 14:54:00,62.9,61.5,29.77,NE,38,0.0,0.0,95,0.00,,,0.09,223.00,VWS V14.00,2013-03-22 19:54:00,
2013-03-22 14:55:00,62.9,61.5,29.77,ESE,111,0.0,0.0,95,0.00,,,0.09,195.00,VWS V14.00,2013-03-22 19:55:00,
2013-03-22 14:56:00,62.9,61.5,29.77,ESE,108,0.0,0.0,95,0.00,,,0.09,163.00,VWS V14.00,2013-03-22 19:56:00,
2013-03-22 14:57:00,62.9,61.5,29.77,SE,142,0.0,0.0,95,0.00,,,0.09,186.00,VWS V14.00,2013-03-22 19:57:00,
2013-03-22 14:58:00,62.9,61.5,29.77,ESE,119,0.0,0.0,95,0.00,,,0.09,206.00,VWS V14.00,2013-03-22 19:58:00,
2013-03-22 14:59:00,62.9,61.2,29.77,SE,127,0.0,0.0,94,0.00,,,0.09,227.00,VWS V14.00,2013-03-22 19:59:00,
2013-03-22 15:00:00,62.9,61.2,29.77,East,84,0.0,0.0,94,0.00,,,0.09,237.00,VWS V14.00,2013-03-22 20:00:00,
2013-03-22 15:01:00,62.9,61.2,29.77,NE,55,0.0,0.0,94,0.00,,,0.09,214.00,VWS V14.00,2013-03-22 20:01:00,
2013-03-22 15:02:00,62.9,61.2,29.77,NE,55,0.0,0.0,94,0.00,,,0.09,200.00,VWS V14.00,2013-03-22 20:02:00,
2013-03-22 15:03:00,62.9,61.2,29.77,ENE,75,0.0,0.0,94,0.00,,,0.09,190.00,VWS V14.00,2013-03-22 20:03:00,
2013-03-22 15:04:00,62.9,61.2,29.77,NE,49,0.0,0.0,94,0.00,,,0.09,172.00,VWS V14.00,2013-03-22 20:04:00,
2013-03-22 15:05:00,62.9,61.2,29.77,ESE,103,0.0,0.0,94,0.00,,,0.09,162.00,VWS V14.00,2013-03-22 20:05:00,
2013-03-22 15:06:00,62.9,61.2,29.77,East,84,0.0,0.0,94,0.00,,,0.09,176.00,VWS V14.00,2013-03-22 20:06:00,
2013-03-22 15:07:00,62.9,61.2,29.77,ENE,68,0.0,0.0,94,0.00,,,0.09,167.00,VWS V14.00,2013-03-22 20:07:00,
2013-03-22 15:08:00,62.9,61.2,29.77,ENE,69,0.0,0.0,94,0.00,,,0.09,171.00,VWS V14.00,2013-03-22 20:08:00,
2013-03-22 15:09:00,62.9,61.2,29.77,ENE,59,0.0,0.0,94,0.00,,,0.09,195.00,VWS V14.00,2013-03-22 20:09:00,
2013-03-22 15:10:00,62.9,61.2,29.77,East,86,0.0,0.0,94,0.00,,,0.09,227.00,VWS V14.00,2013-03-22 20:10:00,
2013-03-22 15:11:00,62.9,61.2,29.77,ENE,73,0.0,0.0,94,0.00,,,0.09,199.00,VWS V14.00,2013-03-22 20:11:00,
2013-03-22 15:12:00,62.9,61.2,29.77,East,84,0.0,0.0,94,0.00,,,0.09,162.00,VWS V14.00,2013-03-22 20:12:00,
2013-03-22 15:13:00,62.9,61.2,29.77,ENE,62,0.0,0.0,94,0.00,,,0.09,134.00,VWS V14.00,2013-03-22 20:13:00,
2013-03-22 15:14:00,62.9,61.2,29.76,ENE,63,0.0,0.0,94,0.00,,,0.09,120.00,VWS V14.00,2013-03-22 20:14:00,
2013-03-22 15:15:00,62.9,61.2,29.76,ENE,63,0.0,0.0,94,0.00,,,0.09,120.00,VWS V14.00,2013-03-22 20:15:00,
2013-03-22 15:16:00,62.9,61.2,29.76,NE,44,0.0,0.0,94,0.00,,,0.09,120.00,VWS V14.00,2013-03-22 20:16:00,
2013-03-22 15:17:00,62.9,60.8,29.76,ENE,65,0.0,0.0,93,0.00,,,0.09,163.00,VWS V14.00,2013-03-22 20:17:00,
2013-03-22 15:18:00,62.9,60.8,29.76,ENE,69,0.0,0.0,93,0.00,,,0.09,199.00,VWS V14.00,2013-03-22 20:18:00,
2013-03-22 15:19:00,62.9,60.8,29.76,ENE,58,0.0,0.0,93,0.00,,,0.09,216.00,VWS V14.00,2013-03-22 20:19:00,
2013-03-22 15:20:00,62.9,60.8,29.76,NE,56,0.0,0.0,93,0.00,,,0.09,206.00,VWS V14.00,2013-03-22 20:20:00,
2013-03-22 15:21:00,62.9,60.8,29.76,East,84,0.0,0.0,93,0.00,,,0.09,165.00,VWS V14.00,2013-03-22 20:21:00,
2013-03-22 15:22:00,62.9,60.8,29.76,ENE,74,0.0,0.0,93,0.00,,,0.09,130.00,VWS V14.00,2013-03-22 20:22:00,
2013-03-22 15:23:00,62.9,60.8,29.76,ENE,64,0.0,0.0,93,0.00,,,0.09,114.00,VWS V14.00,2013-03-22 20:23:00,
2013-03-22 15:24:00,62.9,60.8,29.76,ENE,57,0.0,0.0,93,0.00,,,0.09,91.00,VWS V14.00,2013-03-22 20:24:00,
2013-03-22 15:25:00,62.9,60.8,29.76,NE,53,0.0,0.0,93,0.00,,,0.09,91.00,VWS V14.00,2013-03-22 20:25:00,
2013-03-22 15:26:00,62.9,60.8,29.76,East,95,0.0,0.0,93,0.00,,,0.09,93.00,VWS V14.00,2013-03-22 20:26:00,
2013-03-22 15:27:00,62.9,60.5,29.76,ENE,65,0.0,0.0,92,0.00,,,0.09,98.00,VWS V14.00,2013-03-22 20:27:00,
2013-03-22 15:28:00,62.9,60.5,29.76,ENE,58,0.0,0.0,92,0.00,,,0.09,105.00,VWS V14.00,2013-03-22 20:28:00,
2013-03-22 15:29:00,62.9,60.5,29.75,SE,131,0.0,0.0,92,0.00,,,0.09,121.00,VWS V14.00,2013-03-22 20:29:00,
2013-03-22 15:30:00,62.9,60.5,29.75,East,80,0.0,0.0,92,0.00,,,0.09,121.00,VWS V14.00,2013-03-22 20:30:00,
2013-03-22 15:31:00,62.9,60.5,29.75,NE,46,0.0,0.0,92,0.00,,,0.09,118.00,VWS V14.00,2013-03-22 20:31:00,
2013-03-22 15:32:00,62.9,60.5,29.75,ENE,74,0.0,0.0,92,0.00,,,0.09,111.00,VWS V14.00,2013-03-22 20:32:00,
2013-03-22 15:33:00,62.9,60.5,29.75,SSE,157,0.0,0.0,92,0.00,,,0.09,120.00,VWS V14.00,2013-03-22 20:33:00,
2013-03-22 15:34:00,62.9,60.5,29.75,ENE,76,0.0,0.0,92,0.00,,,0.09,116.00,VWS V14.00,2013-03-22 20:34:00,
2013-03-22 15:35:00,62.9,60.5,29.75,East,93,0.0,0.0,92,0.00,,,0.09,114.00,VWS V14.00,2013-03-22 20:35:00,
2013-03-22 15:36:00,62.9,60.5,29.75,ENE,69,0.0,0.0,92,0.00,,,0.09,114.00,VWS V14.00,2013-03-22 20:36:00,
2013-03-22 15:37:00,62.7,60.3,29.75,East,80,0.0,0.0,92,0.00,,,0.09,176.00,VWS V14.00,2013-03-22 20:37:00,
2013-03-22 15:38:00,62.7,60.0,29.75,ENE,76,0.0,0.0,91,0.00,,,0.09,202.00,VWS V14.00,2013-03-22 20:38:00,
2013-03-22 15:39:00,62.7,60.3,29.75,ENE,76,0.0,0.0,92,0.00,,,0.09,200.00,VWS V14.00,2013-03-22 20:39:00,
2013-03-22 15:40:00,62.7,60.3,29.75,ESE,107,0.0,0.0,92,0.00,,,0.09,197.00,VWS V14.00,2013-03-22 20:40:00,
2013-03-22 15:41:00,62.7,60.3,29.75,South,169,0.0,0.0,92,0.00,,,0.09,193.00,VWS V14.00,2013-03-22 20:41:00,
2013-03-22 15:42:00,62.9,60.2,29.75,ENE,73,0.0,0.0,91,0.00,,,0.09,176.00,VWS V14.00,2013-03-22 20:42:00,
2013-03-22 15:43:00,62.9,60.2,29.75,East,81,0.0,0.0,91,0.00,,,0.09,146.00,VWS V14.00,2013-03-22 20:43:00,
2013-03-22 15:44:00,62.9,60.2,29.75,East,95,0.0,0.0,91,0.00,,,0.09,132.00,VWS V14.00,2013-03-22 20:44:00,
2013-03-22 15:45:00,62.9,60.2,29.75,East,98,0.0,0.0,91,0.00,,,0.09,144.00,VWS V14.00,2013-03-22 20:45:00,
2013-03-22 15:46:00,62.9,60.2,29.75,ENE,65,0.0,0.0,91,0.00,,,0.09,190.00,VWS V14.00,2013-03-22 20:46:00,
2013-03-22 15:47:00,62.9,60.2,29.75,East,84,0.0,0.0,91,0.00,,,0.09,206.00,VWS V14.00,2013-03-22 20:47:00,
2013-03-22 15:48:00,62.7,60.0,29.75,NE,54,0.0,0.0,91,0.00,,,0.09,232.00,VWS V14.00,2013-03-22 20:48:00,
2013-03-22 15:49:00,62.7,60.0,29.75,ENE,64,0.0,0.0,91,0.00,,,0.09,267.00,VWS V14.00,2013-03-22 20:49:00,
2013-03-22 15:50:00,62.7,60.0,29.75,East,98,0.0,0.0,91,0.00,,,0.09,262.00,VWS V14.00,2013-03-22 20:50:00,
2013-03-22 15:51:00,62.9,60.2,29.75,ENE,77,0.0,0.0,91,0.00,,,0.09,220.00,VWS V14.00,2013-03-22 20:51:00,
2013-03-22 15:52:00,62.9,60.2,29.75,SSE,164,0.0,0.0,91,0.00,,,0.09,199.00,VWS V14.00,2013-03-22 20:52:00,
2013-03-22 15:53:00,62.9,60.2,29.75,ENE,75,0.0,0.0,91,0.00,,,0.09,195.00,VWS V14.00,2013-03-22 20:53:00,
2013-03-22 15:54:00,63.1,60.4,29.75,ESE,113,0.0,0.0,91,0.00,,,0.09,190.00,VWS V14.00,2013-03-22 20:54:00,
2013-03-22 15:55:00,63.1,60.4,29.75,ENE,78,0.0,0.0,91,0.00,,,0.09,176.00,VWS V14.00,2013-03-22 20:55:00,
2013-03-22 15:56:00,63.1,60.4,29.75,ENE,73,0.0,0.0,91,0.00,,,0.09,158.00,VWS V14.00,2013-03-22 20:56:00,
2013-03-22 15:57:00,63.1,60.4,29.75,East,89,0.0,0.0,91,0.00,,,0.09,158.00,VWS V14.00,2013-03-22 20:57:00,
2013-03-22 15:58:00,63.1,60.4,29.75,North,355,0.0,0.0,91,0.00,,,0.09,221.00,VWS V14.00,2013-03-22 20:58:00,
2013-03-22 15:59:00,63.2,60.5,29.74,ENE,72,0.0,0.0,91,0.00,,,0.09,271.00,VWS V14.00,2013-03-22 20:59:00,
2013-03-22 16:00:00,63.2,60.5,29.74,ENE,74,0.0,0.0,91,0.00,,,0.09,265.00,VWS V14.00,2013-03-22 21:00:00,
2013-03-22 16:01:00,63.2,60.5,29.74,ENE,77,0.0,0.0,91,0.00,,,0.09,255.00,VWS V14.00,2013-03-22 21:01:00,
2013-03-22 16:02:00,63.2,60.5,29.74,ENE,74,0.0,0.0,91,0.00,,,0.09,287.00,VWS V14.00,2013-03-22 21:02:00,
2013-03-22 16:03:00,63.4,60.7,29.74,East,85,0.0,0.0,91,0.00,,,0.09,387.00,VWS V14.00,2013-03-22 21:03:00,
2013-03-22 16:04:00,63.4,60.7,29.74,ENE,78,0.0,0.0,91,0.00,,,0.09,387.00,VWS V14.00,2013-03-22 21:04:00,
2013-03-22 16:05:00,63.4,60.7,29.74,East,99,0.0,0.0,91,0.00,,,0.09,334.00,VWS V14.00,2013-03-22 21:05:00,
2013-03-22 16:06:00,63.5,60.8,29.74,NE,50,0.0,0.0,91,0.00,,,0.09,244.00,VWS V14.00,2013-03-22 21:06:00,
2013-03-22 16:07:00,63.5,60.8,29.74,ENE,76,0.0,0.0,91,0.00,,,0.09,218.00,VWS V14.00,2013-03-22 21:07:00,
2013-03-22 16:08:00,63.5,60.5,29.74,ENE,64,0.0,0.0,90,0.00,,,0.09,202.00,VWS V14.00,2013-03-22 21:08:00,
2013-03-22 16:09:00,63.7,60.7,29.74,NE,51,0.0,0.0,90,0.00,,,0.09,229.00,VWS V14.00,2013-03-22 21:09:00,
2013-03-22 16:10:00,63.7,60.7,29.74,ENE,75,0.0,0.0,90,0.00,,,0.09,265.00,VWS V14.00,2013-03-22 21:10:00,
2013-03-22 16:11:00,63.7,60.7,29.74,NE,55,0.0,0.0,90,0.00,,,0.09,253.00,VWS V14.00,2013-03-22 21:11:00,
2013-03-22 16:13:00,63.7,60.4,29.74,ENE,74,0.0,0.0,89,0.00,,,0.09,334.00,VWS V14.00,2013-03-22 21:13:00,
2013-03-22 16:14:00,63.9,60.9,29.74,East,92,0.0,0.0,90,0.00,,,0.09,255.00,VWS V14.00,2013-03-22 21:14:00,
2013-03-22 16:15:00,63.9,60.9,29.74,East,82,0.0,0.0,90,0.00,,,0.09,195.00,VWS V14.00,2013-03-22 21:15:00,
2013-03-22 16:16:00,63.9,60.6,29.74,East,100,0.0,0.0,89,0.00,,,0.09,183.00,VWS V14.00,2013-03-22 21:16:00,
2013-03-22 16:17:00,64.0,60.7,29.74,East,96,0.0,0.0,89,0.00,,,0.09,221.00,VWS V14.00,2013-03-22 21:17:00,
2013-03-22 16:18:00,64.0,60.7,29.74,NE,53,0.0,0.0,89,0.00,,,0.09,223.00,VWS V14.00,2013-03-22 21:18:00,
2013-03-22 16:19:00,64.0,60.7,29.74,NNE,30,0.0,0.0,89,0.00,,,0.09,220.00,VWS V14.00,2013-03-22 21:19:00,
2013-03-22 16:20:00,64.0,60.7,29.74,ENE,71,0.0,0.0,89,0.00,,,0.09,192.00,VWS V14.00,2013-03-22 21:20:00,
2013-03-22 16:21:00,64.0,60.7,29.74,ENE,74,0.0,0.0,89,0.00,,,0.09,181.00,VWS V14.00,2013-03-22 21:21:00,
2013-03-22 16:22:00,64.0,60.7,29.74,ENE,67,0.0,0.0,89,0.00,,,0.09,223.00,VWS V14.00,2013-03-22 21:22:00,
2013-03-22 16:23:00,64.0,60.7,29.74,ENE,67,0.0,0.0,89,0.00,,,0.09,269.00,VWS V14.00,2013-03-22 21:23:00,
2013-03-22 16:24:00,64.0,60.7,29.74,East,93,0.0,0.0,89,0.00,,,0.09,265.00,VWS V14.00,2013-03-22 21:24:00,
2013-03-22 16:25:00,64.0,60.4,29.74,East,96,0.0,0.0,88,0.00,,,0.09,229.00,VWS V14.00,2013-03-22 21:25:00,
2013-03-22 16:26:00,64.0,60.4,29.74,ESE,107,0.0,0.0,88,0.00,,,0.09,197.00,VWS V14.00,2013-03-22 21:26:00,
2013-03-22 16:27:00,64.0,60.4,29.74,ENE,69,0.0,0.0,88,0.00,,,0.09,165.00,VWS V14.00,2013-03-22 21:27:00,
2013-03-22 16:28:00,64.0,60.4,29.74,ENE,72,0.0,0.0,88,0.00,,,0.09,142.00,VWS V14.00,2013-03-22 21:28:00,
2013-03-22 16:29:00,64.0,60.4,29.74,East,97,0.0,0.0,88,0.00,,,0.09,114.00,VWS V14.00,2013-03-22 21:29:00,
2013-03-22 16:30:00,64.2,60.6,29.74,ENE,78,0.0,0.0,88,0.00,,,0.09,113.00,VWS V14.00,2013-03-22 21:30:00,
2013-03-22 16:31:00,64.2,60.6,29.74,NE,56,0.0,0.0,88,0.00,,,0.09,113.00,VWS V14.00,2013-03-22 21:31:00,
2013-03-22 16:32:00,64.2,60.6,29.74,NE,49,0.0,0.0,88,0.00,,,0.09,121.00,VWS V14.00,2013-03-22 21:32:00,
2013-03-22 16:33:00,64.2,60.6,29.74,ESE,102,0.0,0.0,88,0.00,,,0.09,127.00,VWS V14.00,2013-03-22 21:33:00,
2013-03-22 16:34:00,64.2,60.6,29.74,East,100,0.0,0.0,88,0.00,,,0.09,109.00,VWS V14.00,2013-03-22 21:34:00,
2013-03-22 16:35:00,64.2,60.6,29.74,East,79,0.0,0.0,88,0.00,,,0.09,98.00,VWS V14.00,2013-03-22 21:35:00,
2013-03-22 16:36:00,64.2,60.6,29.74,NE,47,0.0,0.0,88,0.00,,,0.09,90.00,VWS V14.00,2013-03-22 21:36:00,
2013-03-22 16:37:00,64.2,60.6,29.74,East,97,0.0,0.0,88,0.00,,,0.09,88.00,VWS V14.00,2013-03-22 21:37:00,
2013-03-22 16:38:00,64.2,60.6,29.74,ESE,121,0.0,0.0,88,0.00,,,0.09,86.00,VWS V14.00,2013-03-22 21:38:00,
2013-03-22 16:39:00,64.0,60.4,29.74,NNE,30,0.0,0.0,88,0.00,,,0.09,83.00,VWS V14.00,2013-03-22 21:39:00,
2013-03-22 16:40:00,64.0,60.4,29.74,NE,54,0.0,0.0,88,0.00,,,0.09,76.00,VWS V14.00,2013-03-22 21:40:00,
2013-03-22 16:41:00,64.0,60.4,29.74,ENE,69,0.0,0.0,88,0.00,,,0.09,76.00,VWS V14.00,2013-03-22 21:41:00,
2013-03-22 16:42:00,64.0,60.4,29.74,ENE,60,0.0,0.0,88,0.00,,,0.09,70.00,VWS V14.00,2013-03-22 21:42:00,
2013-03-22 16:43:00,64.0,60.4,29.74,NE,55,0.0,0.0,88,0.00,,,0.09,70.00,VWS V14.00,2013-03-22 21:43:00,
2013-03-22 16:44:00,64.0,60.4,29.74,ENE,59,0.0,0.0,88,0.00,,,0.09,76.00,VWS V14.00,2013-03-22 21:44:00,
2013-03-22 16:45:00,64.0,60.4,29.74,ENE,63,0.0,0.0,88,0.00,,,0.09,83.00,VWS V14.00,2013-03-22 21:45:00,
2013-03-22 16:46:00,64.0,60.4,29.74,ENE,77,0.0,0.0,88,0.00,,,0.09,79.00,VWS V14.00,2013-03-22 21:46:00,
2013-03-22 16:47:00,64.0,60.4,29.74,ENE,70,0.0,0.0,88,0.00,,,0.09,76.00,VWS V14.00,2013-03-22 21:47:00,
2013-03-22 16:48:00,64.0,60.4,29.74,ENE,65,0.0,0.0,88,0.00,,,0.09,72.00,VWS V14.00,2013-03-22 21:48:00,
2013-03-22 16:49:00,64.0,60.4,29.74,ENE,59,0.0,0.0,88,0.00,,,0.09,72.00,VWS V14.00,2013-03-22 21:49:00,
2013-03-22 16:50:00,64.0,60.4,29.74,ENE,71,0.0,0.0,88,0.00,,,0.09,77.00,VWS V14.00,2013-03-22 21:50:00,
2013-03-22 16:51:00,63.9,60.3,29.74,ENE,72,0.0,0.0,88,0.00,,,0.09,76.00,VWS V14.00,2013-03-22 21:51:00,
2013-03-22 16:52:00,63.9,60.3,29.74,East,89,0.0,0.0,88,0.00,,,0.09,76.00,VWS V14.00,2013-03-22 21:52:00,
2013-03-22 16:53:00,63.9,60.3,29.74,ENE,66,0.0,0.0,88,0.00,,,0.09,69.00,VWS V14.00,2013-03-22 21:53:00,
2013-03-22 16:54:00,63.9,60.3,29.74,East,87,0.0,0.0,88,0.00,,,0.09,58.00,VWS V14.00,2013-03-22 21:54:00,
2013-03-22 16:55:00,63.9,60.3,29.74,ENE,57,0.0,0.0,88,0.00,,,0.09,56.00,VWS V14.00,2013-03-22 21:55:00,
2013-03-22 16:56:00,63.9,60.3,29.74,ENE,71,0.0,0.0,88,0.00,,,0.09,58.00,VWS V14.00,2013-03-22 21:56:00,
2013-03-22 16:57:00,63.9,60.3,29.74,ENE,73,0.0,0.0,88,0.00,,,0.09,49.00,VWS V14.00,2013-03-22 21:57:00,
2013-03-22 16:58:00,63.9,60.3,29.74,ENE,66,0.0,0.0,88,0.00,,,0.09,51.00,VWS V14.00,2013-03-22 21:58:00,
2013-03-22 16:59:00,63.9,60.3,29.75,NNE,17,0.0,0.0,88,0.00,,,0.09,53.00,VWS V14.00,2013-03-22 21:59:00,
2013-03-22 17:00:00,63.9,60.3,29.75,ENE,76,0.0,0.0,88,0.00,,,0.09,51.00,VWS V14.00,2013-03-22 22:00:00,
2013-03-22 17:01:00,63.7,60.1,29.75,ENE,73,0.0,0.0,88,0.00,,,0.09,49.00,VWS V14.00,2013-03-22 22:01:00,
2013-03-22 17:02:00,63.7,60.1,29.75,East,82,0.0,0.0,88,0.00,,,0.09,44.00,VWS V14.00,2013-03-22 22:02:00,
2013-03-22 17:03:00,63.7,60.1,29.75,ENE,60,0.0,0.0,88,0.00,,,0.09,44.00,VWS V14.00,2013-03-22 22:03:00,
2013-03-22 17:04:00,63.7,60.1,29.75,NE,54,0.0,0.0,88,0.00,,,0.09,46.00,VWS V14.00,2013-03-22 22:04:00,
2013-03-22 17:05:00,63.7,60.1,29.75,ENE,70,0.0,0.0,88,0.00,,,0.09,47.00,VWS V14.00,2013-03-22 22:05:00,
2013-03-22 17:06:00,63.7,60.1,29.75,ENE,70,0.0,0.0,88,0.00,,,0.09,51.00,VWS V14.00,2013-03-22 22:06:00,
2013-03-22 17:07:00,63.7,60.1,29.75,ENE,74,0.0,0.0,88,0.00,,,0.09,47.00,VWS V14.00,2013-03-22 22:07:00,
2013-03-22 17:08:00,63.7,60.1,29.75,ENE,70,0.0,0.0,88,0.00,,,0.09,46.00,VWS V14.00,2013-03-22 22:08:00,
2013-03-22 17:09:00,63.7,60.1,29.75,ENE,73,0.0,0.0,88,0.00,,,0.09,47.00,VWS V14.00,2013-03-22 22:09:00,
2013-03-22 17:10:00,63.7,60.1,29.75,ENE,63,0.0,0.0,88,0.00,,,0.09,42.00,VWS V14.00,2013-03-22 22:10:00,
2013-03-22 17:11:00,63.7,60.1,29.75,East,88,0.0,0.0,88,0.00,,,0.09,40.00,VWS V14.00,2013-03-22 22:11:00,
2013-03-22 17:12:00,63.7,60.1,29.75,East,88,0.0,0.0,88,0.00,,,0.09,40.00,VWS V14.00,2013-03-22 22:12:00,
2013-03-22 17:13:00,63.7,60.1,29.75,NE,49,0.0,0.0,88,0.00,,,0.09,39.00,VWS V14.00,2013-03-22 22:13:00,
2013-03-22 17:14:00,63.7,60.1,29.75,East,83,0.0,0.0,88,0.00,,,0.09,39.00,VWS V14.00,2013-03-22 22:14:00,
2013-03-22 17:15:00,63.7,60.1,29.75,ENE,57,0.0,0.0,88,0.00,,,0.09,33.00,VWS V14.00,2013-03-22 22:15:00,
2013-03-22 17:16:00,63.7,60.1,29.75,East,85,0.0,0.0,88,0.00,,,0.09,33.00,VWS V14.00,2013-03-22 22:16:00,
2013-03-22 17:17:00,63.7,60.1,29.75,ENE,77,0.0,0.0,88,0.00,,,0.09,33.00,VWS V14.00,2013-03-22 22:17:00,
2013-03-22 17:18:00,63.7,60.1,29.75,ENE,57,0.0,0.0,88,0.00,,,0.09,32.00,VWS V14.00,2013-03-22 22:18:00,
2013-03-22 17:19:00,63.7,60.1,29.75,East,80,0.0,0.0,88,0.00,,,0.09,30.00,VWS V14.00,2013-03-22 22:19:00,
2013-03-22 17:20:00,63.7,60.1,29.75,ENE,60,0.0,0.0,88,0.00,,,0.09,32.00,VWS V14.00,2013-03-22 22:20:00,
2013-03-22 17:21:00,63.7,60.1,29.75,East,84,0.0,0.0,88,0.00,,,0.09,33.00,VWS V14.00,2013-03-22 22:21:00,
2013-03-22 17:22:00,63.7,60.1,29.75,NE,46,0.0,0.0,88,0.00,,,0.09,33.00,VWS V14.00,2013-03-22 22:22:00,
2013-03-22 17:23:00,63.7,60.1,29.75,ESE,104,0.0,0.0,88,0.00,,,0.09,30.00,VWS V14.00,2013-03-22 22:23:00,
2013-03-22 17:24:00,63.7,60.1,29.75,East,84,0.0,0.0,88,0.00,,,0.09,28.00,VWS V14.00,2013-03-22 22:24:00,
2013-03-22 17:25:00,63.7,60.1,29.75,ENE,69,0.0,0.0,88,0.00,,,0.09,25.00,VWS V14.00,2013-03-22 22:25:00,
2013-03-22 17:26:00,63.7,60.1,29.75,ENE,73,0.0,0.0,88,0.00,,,0.09,23.00,VWS V14.00,2013-03-22 22:26:00,
2013-03-22 17:27:00,63.7,60.1,29.75,East,87,0.0,0.0,88,0.00,,,0.09,25.00,VWS V14.00,2013-03-22 22:27:00,
2013-03-22 17:28:00,63.7,60.1,29.75,East,82,0.0,0.0,88,0.00,,,0.09,26.00,VWS V14.00,2013-03-22 22:28:00,
2013-03-22 17:29:00,63.7,60.4,29.75,East,82,0.0,0.0,89,0.00,,,0.09,26.00,VWS V14.00,2013-03-22 22:29:00,
2013-03-22 17:30:00,63.7,60.4,29.75,East,84,0.0,0.0,89,0.00,,,0.09,26.00,VWS V14.00,2013-03-22 22:30:00,
2013-03-22 17:31:00,63.7,60.4,29.75,NE,49,0.0,0.0,89,0.00,,,0.09,28.00,VWS V14.00,2013-03-22 22:31:00,
2013-03-22 17:32:00,63.7,60.4,29.75,East,80,0.0,0.0,89,0.00,,,0.09,28.00,VWS V14.00,2013-03-22 22:32:00,
2013-03-22 17:33:00,63.7,60.4,29.75,ENE,69,0.0,0.0,89,0.00,,,0.09,28.00,VWS V14.00,2013-03-22 22:33:00,
2013-03-22 17:34:00,63.7,60.4,29.75,East,88,0.0,0.0,89,0.00,,,0.09,33.00,VWS V14.00,2013-03-22 22:34:00,
2013-03-22 17:35:00,63.7,60.4,29.75,ENE,70,0.0,0.0,89,0.00,,,0.09,33.00,VWS V14.00,2013-03-22 22:35:00,
2013-03-22 17:36:00,63.7,60.4,29.75,ENE,72,0.0,0.0,89,0.00,,,0.09,28.00,VWS V14.00,2013-03-22 22:36:00,
2013-03-22 17:37:00,63.7,60.4,29.75,NE,46,0.0,0.0,89,0.00,,,0.09,25.00,VWS V14.00,2013-03-22 22:37:00,
2013-03-22 17:38:00,63.7,60.4,29.75,ENE,64,0.0,0.0,89,0.00,,,0.09,21.00,VWS V14.00,2013-03-22 22:38:00,
2013-03-22 17:39:00,63.5,59.9,29.75,NE,42,0.0,0.0,88,0.00,,,0.09,26.00,VWS V14.00,2013-03-22 22:39:00,
2013-03-22 17:40:00,63.5,59.9,29.75,NE,54,0.0,0.0,88,0.00,,,0.09,37.00,VWS V14.00,2013-03-22 22:40:00,
2013-03-22 17:41:00,63.5,59.9,29.75,East,87,0.0,0.0,88,0.00,,,0.09,40.00,VWS V14.00,2013-03-22 22:41:00,
2013-03-22 17:42:00,63.5,59.9,29.75,ENE,64,0.0,0.0,88,0.00,,,0.09,35.00,VWS V14.00,2013-03-22 22:42:00,
2013-03-22 17:43:00,63.5,59.9,29.75,ENE,64,0.0,0.0,88,0.00,,,0.09,23.00,VWS V14.00,2013-03-22 22:43:00,
2013-03-22 17:44:00,63.5,59.9,29.75,East,94,0.0,0.0,88,0.00,,,0.09,23.00,VWS V14.00,2013-03-22 22:44:00,
2013-03-22 17:45:00,63.7,60.1,29.75,SE,134,0.0,0.0,88,0.00,,,0.09,19.00,VWS V14.00,2013-03-22 22:45:00,
2013-03-22 17:46:00,63.7,60.1,29.75,East,80,0.0,0.0,88,0.00,,,0.09,16.00,VWS V14.00,2013-03-22 22:46:00,
2013-03-22 17:47:00,63.7,60.1,29.75,North,349,0.0,0.0,88,0.00,,,0.09,14.00,VWS V14.00,2013-03-22 22:47:00,
2013-03-22 17:48:00,63.7,60.1,29.75,North,11,0.0,0.0,88,0.00,,,0.09,14.00,VWS V14.00,2013-03-22 22:48:00,
2013-03-22 17:49:00,63.7,60.1,29.75,NE,53,0.0,0.0,88,0.00,,,0.09,16.00,VWS V14.00,2013-03-22 22:49:00,
2013-03-22 17:50:00,63.7,60.1,29.75,NE,53,0.0,0.0,88,0.00,,,0.09,18.00,VWS V14.00,2013-03-22 22:50:00,
2013-03-22 17:51:00,63.7,60.1,29.75,ENE,59,0.0,0.0,88,0.00,,,0.09,21.00,VWS V14.00,2013-03-22 22:51:00,
2013-03-22 17:52:00,63.7,60.1,29.75,NE,49,0.0,0.0,88,0.00,,,0.09,19.00,VWS V14.00,2013-03-22 22:52:00,
2013-03-22 17:53:00,63.7,60.1,29.75,East,84,0.0,0.0,88,0.00,,,0.09,16.00,VWS V14.00,2013-03-22 22:53:00,
2013-03-22 17:54:00,63.7,60.1,29.75,East,92,0.0,0.0,88,0.00,,,0.09,14.00,VWS V14.00,2013-03-22 22:54:00,
2013-03-22 17:55:00,63.7,60.1,29.75,East,84,0.0,0.0,88,0.00,,,0.09,16.00,VWS V14.00,2013-03-22 22:55:00,
2013-03-22 17:56:00,63.7,60.1,29.75,ENE,71,0.0,0.0,88,0.00,,,0.09,18.00,VWS V14.00,2013-03-22 22:56:00,
2013-03-22 17:57:00,63.7,60.1,29.75,ENE,68,0.0,0.0,88,0.00,,,0.09,14.00,VWS V14.00,2013-03-22 22:57:00,
2013-03-22 17:58:00,63.7,60.1,29.75,ENE,76,0.0,0.0,88,0.00,,,0.09,12.00,VWS V14.00,2013-03-22 22:58:00,
2013-03-22 17:59:00,63.7,60.1,29.75,ENE,69,0.0,0.0,88,0.00,,,0.09,12.00,VWS V14.00,2013-03-22 22:59:00,
2013-03-22 18:00:00,63.7,60.1,29.75,ESE,103,0.0,0.0,88,0.00,,,0.09,14.00,VWS V14.00,2013-03-22 23:00:00,
2013-03-22 18:01:00,63.7,60.1,29.75,East,96,0.0,0.0,88,0.00,,,0.09,14.00,VWS V14.00,2013-03-22 23:01:00,
2013-03-22 18:02:00,63.7,60.1,29.75,ENE,78,0.0,0.0,88,0.00,,,0.09,12.00,VWS V14.00,2013-03-22 23:02:00,
2013-03-22 18:03:00,63.7,60.4,29.75,ENE,74,0.0,0.0,89,0.00,,,0.09,11.00,VWS V14.00,2013-03-22 23:03:00,
2013-03-22 18:04:00,63.7,60.4,29.75,ENE,67,0.0,0.0,89,0.00,,,0.09,9.00,VWS V14.00,2013-03-22 23:04:00,
2013-03-22 18:05:00,63.7,60.1,29.75,ENE,70,0.0,0.0,88,0.00,,,0.09,9.00,VWS V14.00,2013-03-22 23:05:00,
2013-03-22 18:06:00,63.7,60.1,29.75,ENE,72,0.0,0.0,88,0.00,,,0.09,9.00,VWS V14.00,2013-03-22 23:06:00,
2013-03-22 18:07:00,63.7,60.1,29.75,ENE,60,0.0,0.0,88,0.00,,,0.09,9.00,VWS V14.00,2013-03-22 23:07:00,
2013-03-22 18:08:00,63.7,60.1,29.75,ENE,76,0.0,0.0,88,0.00,,,0.09,9.00,VWS V14.00,2013-03-22 23:08:00,
2013-03-22 18:09:00,63.7,60.1,29.75,East,84,0.0,0.0,88,0.00,,,0.09,9.00,VWS V14.00,2013-03-22 23:09:00,
2013-03-22 18:10:00,63.7,60.1,29.75,ENE,59,0.0,0.0,88,0.00,,,0.09,9.00,VWS V14.00,2013-03-22 23:10:00,
2013-03-22 18:11:00,63.5,59.9,29.75,East,90,0.0,0.0,88,0.00,,,0.09,9.00,VWS V14.00,2013-03-22 23:11:00,
2013-03-22 18:12:00,63.5,59.9,29.75,East,85,0.0,0.0,88,0.00,,,0.09,11.00,VWS V14.00,2013-03-22 23:12:00,
2013-03-22 18:13:00,63.5,59.9,29.75,ENE,67,0.0,0.0,88,0.00,,,0.09,9.00,VWS V14.00,2013-03-22 23:13:00,
2013-03-22 18:14:00,63.5,59.9,29.75,ENE,67,0.0,0.0,88,0.00,,,0.09,9.00,VWS V14.00,2013-03-22 23:14:00,
2013-03-22 18:15:00,63.7,60.1,29.75,ENE,71,0.0,0.0,88,0.00,,,0.09,9.00,VWS V14.00,2013-03-22 23:15:00,
2013-03-22 18:16:00,63.7,60.1,29.75,ENE,61,0.0,0.0,88,0.00,,,0.09,7.00,VWS V14.00,2013-03-22 23:16:00,
2013-03-22 18:17:00,63.7,60.4,29.75,East,90,0.0,0.0,89,0.00,,,0.09,7.00,VWS V14.00,2013-03-22 23:17:00,
2013-03-22 18:18:00,63.7,60.4,29.75,ENE,69,0.0,0.0,89,0.00,,,0.09,5.00,VWS V14.00,2013-03-22 23:18:00,
2013-03-22 18:19:00,63.5,60.2,29.75,NE,38,0.0,0.0,89,0.00,,,0.09,5.00,VWS V14.00,2013-03-22 23:19:00,
2013-03-22 18:20:00,63.5,60.2,29.75,East,83,0.0,0.0,89,0.00,,,0.09,5.00,VWS V14.00,2013-03-22 23:20:00,
2013-03-22 18:21:00,63.5,60.2,29.75,ENE,72,0.0,0.0,89,0.00,,,0.09,5.00,VWS V14.00,2013-03-22 23:21:00,
2013-03-22 18:22:00,63.5,60.2,29.75,ENE,72,0.0,0.0,89,0.00,,,0.09,5.00,VWS V14.00,2013-03-22 23:22:00,
2013-03-22 18:23:00,63.5,60.2,29.75,East,79,0.0,0.0,89,0.00,,,0.09,5.00,VWS V14.00,2013-03-22 23:23:00,
2013-03-22 18:24:00,63.5,60.2,29.75,East,79,0.0,0.0,89,0.00,,,0.09,5.00,VWS V14.00,2013-03-22 23:24:00,
2013-03-22 18:25:00,63.5,60.2,29.75,ENE,76,0.0,0.0,89,0.00,,,0.09,5.00,VWS V14.00,2013-03-22 23:25:00,
2013-03-22 18:26:00,63.5,60.2,29.75,ENE,66,0.0,0.0,89,0.00,,,0.09,5.00,VWS V14.00,2013-03-22 23:26:00,
2013-03-22 18:27:00,63.4,60.1,29.75,ENE,71,0.0,0.0,89,0.00,,,0.09,5.00,VWS V14.00,2013-03-22 23:27:00,
2013-03-22 18:28:00,63.4,60.4,29.75,ENE,64,0.0,0.0,90,0.00,,,0.09,5.00,VWS V14.00,2013-03-22 23:28:00,
2013-03-22 18:29:00,63.4,60.1,29.75,ESE,108,0.0,0.0,89,0.00,,,0.09,0.00,VWS V14.00,2013-03-22 23:29:00,
2013-03-22 18:30:00,63.4,60.4,29.76,NE,34,0.0,0.0,90,0.00,,,0.09,5.00,VWS V14.00,2013-03-22 23:30:00,
2013-03-22 18:31:00,63.4,60.4,29.76,NE,34,0.0,0.0,90,0.00,,,0.09,5.00,VWS V14.00,2013-03-22 23:31:00,
2013-03-22 18:32:00,63.4,60.4,29.76,NE,40,0.0,0.0,90,0.00,,,0.09,9.00,VWS V14.00,2013-03-22 23:32:00,
2013-03-22 18:33:00,63.4,60.4,29.76,NE,40,0.0,0.0,90,0.00,,,0.09,7.00,VWS V14.00,2013-03-22 23:33:00,
2013-03-22 18:34:00,63.4,60.4,29.76,East,84,0.0,0.0,90,0.00,,,0.09,7.00,VWS V14.00,2013-03-22 23:34:00,
2013-03-22 18:35:00,63.4,60.4,29.76,East,82,0.0,0.0,90,0.00,,,0.09,5.00,VWS V14.00,2013-03-22 23:35:00,
2013-03-22 18:36:00,63.4,60.4,29.76,East,80,0.0,0.0,90,0.00,,,0.09,5.00,VWS V14.00,2013-03-22 23:36:00,
2013-03-22 18:37:00,63.4,60.4,29.76,ENE,69,0.0,0.0,90,0.00,,,0.09,5.00,VWS V14.00,2013-03-22 23:37:00,
2013-03-22 18:38:00,63.2,60.2,29.76,ENE,76,0.0,0.0,90,0.00,,,0.09,0.00,VWS V14.00,2013-03-22 23:38:00,
2013-03-22 18:39:00,63.2,60.2,29.76,ENE,75,0.0,0.0,90,0.00,,,0.09,0.00,VWS V14.00,2013-03-22 23:39:00,
2013-03-22 18:40:00,63.2,60.2,29.76,ENE,75,0.0,0.0,90,0.00,,,0.09,0.00,VWS V14.00,2013-03-22 23:40:00,
2013-03-22 18:41:00,63.2,60.2,29.76,ENE,67,0.0,0.0,90,0.00,,,0.09,0.00,VWS V14.00,2013-03-22 23:41:00,
2013-03-22 18:42:00,63.2,60.2,29.76,ENE,59,0.0,0.0,90,0.00,,,0.09,0.00,VWS V14.00,2013-03-22 23:42:00,
2013-03-22 18:43:00,63.2,60.2,29.76,ENE,68,0.0,0.0,90,0.00,,,0.09,0.00,VWS V14.00,2013-03-22 23:43:00,
2013-03-22 18:44:00,63.2,60.2,29.76,ENE,77,0.0,0.0,90,0.00,,,0.09,0.00,VWS V14.00,2013-03-22 23:44:00,
2013-03-22 18:45:00,63.2,60.2,29.76,ENE,76,0.0,0.0,90,0.00,,,0.09,0.00,VWS V14.00,2013-03-22 23:45:00,
2013-03-22 18:46:00,63.2,60.2,29.76,NE,54,0.0,0.0,90,0.00,,,0.09,0.00,VWS V14.00,2013-03-22 23:46:00,
2013-03-22 18:47:00,63.2,60.2,29.76,East,97,0.0,0.0,90,0.00,,,0.09,0.00,VWS V14.00,2013-03-22 23:47:00,
2013-03-22 18:48:00,63.2,60.2,29.76,East,86,0.0,0.0,90,0.00,,,0.09,0.00,VWS V14.00,2013-03-22 23:48:00,
2013-03-22 18:49:00,63.2,60.2,29.76,ENE,57,0.0,0.0,90,0.00,,,0.09,0.00,VWS V14.00,2013-03-22 23:49:00,
2013-03-22 18:50:00,63.2,60.2,29.76,East,89,0.0,0.0,90,0.00,,,0.09,0.00,VWS V14.00,2013-03-22 23:50:00,
2013-03-22 18:51:00,63.2,60.2,29.76,East,89,0.0,0.0,90,0.00,,,0.09,0.00,VWS V14.00,2013-03-22 23:51:00,
2013-03-22 18:53:00,63.2,60.2,29.76,ENE,76,0.0,0.0,90,0.00,,,0.09,0.00,VWS V14.00,2013-03-22 23:53:00,
2013-03-22 18:54:00,63.1,60.1,29.76,ENE,74,0.0,0.0,90,0.00,,,0.09,0.00,VWS V14.00,2013-03-22 23:54:00,
2013-03-22 18:55:00,63.2,60.2,29.76,ENE,74,0.0,0.0,90,0.00,,,0.09,0.00,VWS V14.00,2013-03-22 23:55:00,
2013-03-22 18:56:00,63.2,60.2,29.76,ENE,70,0.0,0.0,90,0.00,,,0.09,0.00,VWS V14.00,2013-03-22 23:56:00,
2013-03-22 18:57:00,63.1,60.1,29.76,ENE,66,0.0,0.0,90,0.00,,,0.09,0.00,VWS V14.00,2013-03-22 23:57:00,
2013-03-22 18:58:00,63.1,60.1,29.76,ENE,69,0.0,0.0,90,0.00,,,0.09,0.00,VWS V14.00,2013-03-22 23:58:00,
2013-03-22 18:59:00,63.1,60.1,29.76,ENE,69,0.0,0.0,90,0.00,,,0.09,0.00,VWS V14.00,2013-03-22 23:59:00,
2013-03-22 19:00:00,63.1,60.1,29.76,ENE,69,0.0,0.0,90,0.00,,,0.09,0.00,VWS V14.00,2013-03-23 00:00:00,
2013-03-22 19:01:00,63.1,60.4,29.76,ENE,76,0.0,0.0,91,0.00,,,0.09,0.00,VWS V14.00,2013-03-23 00:01:00,
2013-03-22 19:02:00,63.1,60.4,29.76,East,86,0.0,0.0,91,0.00,,,0.09,0.00,VWS V14.00,2013-03-23 00:02:00,
2013-03-22 19:03:00,63.1,60.4,29.76,East,86,0.0,0.0,91,0.00,,,0.09,0.00,VWS V14.00,2013-03-23 00:03:00,
2013-03-22 19:04:00,63.1,60.4,29.76,East,86,0.0,0.0,91,0.00,,,0.09,0.00,VWS V14.00,2013-03-23 00:04:00,
2013-03-22 19:05:00,63.1,60.4,29.76,East,85,0.0,0.0,91,0.00,,,0.09,0.00,VWS V14.00,2013-03-23 00:05:00,
2013-03-22 19:06:00,63.1,60.4,29.76,ENE,78,0.0,0.0,91,0.00,,,0.09,0.00,VWS V14.00,2013-03-23 00:06:00,
2013-03-22 19:07:00,63.1,60.4,29.76,ENE,72,0.0,0.0,91,0.00,,,0.09,0.00,VWS V14.00,2013-03-23 00:07:00,
2013-03-22 19:08:00,63.1,60.4,29.76,East,88,0.0,0.0,91,0.00,,,0.09,0.00,VWS V14.00,2013-03-23 00:08:00,
2013-03-22 19:09:00,63.1,60.4,29.76,NE,53,0.0,0.0,91,0.00,,,0.09,0.00,VWS V14.00,2013-03-23 00:09:00,
2013-03-22 19:10:00,63.1,60.4,29.76,ENE,71,0.0,0.0,91,0.00,,,0.09,0.00,VWS V14.00,2013-03-23 00:10:00,
2013-03-22 19:11:00,63.1,60.4,29.76,ENE,57,0.0,0.0,91,0.00,,,0.09,0.00,VWS V14.00,2013-03-23 00:11:00,
2013-03-22 19:12:00,63.2,60.5,29.76,ESE,118,0.0,0.0,91,0.00,,,0.09,0.00,VWS V14.00,2013-03-23 00:12:00,
2013-03-22 19:13:00,63.2,60.5,29.76,ENE,67,0.0,0.0,91,0.00,,,0.09,0.00,VWS V14.00,2013-03-23 00:13:00,
2013-03-22 19:14:00,63.2,60.5,29.76,ENE,72,0.0,0.0,91,0.00,,,0.09,0.00,VWS V14.00,2013-03-23 00:14:00,
2013-03-22 19:15:00,63.2,60.5,29.76,ENE,66,0.0,0.0,91,0.00,,,0.09,0.00,VWS V14.00,2013-03-23 00:15:00,
2013-03-22 19:16:00,63.2,60.5,29.76,ENE,65,0.0,0.0,91,0.00,,,0.09,0.00,VWS V14.00,2013-03-23 00:16:00,
2013-03-22 19:17:00,63.2,60.5,29.76,ESE,117,0.0,0.0,91,0.00,,,0.09,0.00,VWS V14.00,2013-03-23 00:17:00,
2013-03-22 19:18:00,63.2,60.5,29.76,NE,48,0.0,0.0,91,0.00,,,0.09,0.00,VWS V14.00,2013-03-23 00:18:00,
2013-03-22 19:19:00,63.2,60.5,29.76,ENE,71,0.0,0.0,91,0.00,,,0.09,0.00,VWS V14.00,2013-03-23 00:19:00,
2013-03-22 19:20:00,63.2,60.5,29.76,ENE,74,0.0,0.0,91,0.00,,,0.09,0.00,VWS V14.00,2013-03-23 00:20:00,
2013-03-22 19:21:00,63.2,60.5,29.76,East,80,0.0,0.0,91,0.00,,,0.09,0.00,VWS V14.00,2013-03-23 00:21:00,
2013-03-22 19:22:00,63.2,60.5,29.76,East,80,0.0,0.0,91,0.00,,,0.09,0.00,VWS V14.00,2013-03-23 00:22:00,
2013-03-22 19:23:00,63.2,60.5,29.76,ENE,66,0.0,0.0,91,0.00,,,0.09,0.00,VWS V14.00,2013-03-23 00:23:00,
2013-03-22 19:24:00,63.2,60.5,29.76,ENE,76,0.0,0.0,91,0.00,,,0.09,0.00,VWS V14.00,2013-03-23 00:24:00,
2013-03-22 19:25:00,63.2,60.5,29.76,ENE,75,0.0,0.0,91,0.00,,,0.09,0.00,VWS V14.00,2013-03-23 00:25:00,
2013-03-22 19:26:00,63.2,60.5,29.76,ENE,61,0.0,0.0,91,0.00,,,0.09,0.00,VWS V14.00,2013-03-23 00:26:00,
2013-03-22 19:27:00,63.2,60.5,29.76,East,101,0.0,0.0,91,0.00,,,0.09,0.00,VWS V14.00,2013-03-23 00:27:00,
2013-03-22 19:28:00,63.2,60.5,29.76,East,93,0.0,0.0,91,0.00,,,0.09,0.00,VWS V14.00,2013-03-23 00:28:00,
2013-03-22 19:29:00,63.2,60.5,29.76,ENE,61,0.0,0.0,91,0.00,,,0.09,0.00,VWS V14.00,2013-03-23 00:29:00,
2013-03-22 19:30:00,63.2,60.5,29.76,East,96,0.0,0.0,91,0.00,,,0.09,0.00,VWS V14.00,2013-03-23 00:30:00,
2013-03-22 19:31:00,63.2,60.5,29.76,East,101,0.0,0.0,91,0.00,,,0.09,0.00,VWS V14.00,2013-03-23 00:31:00,
2013-03-22 19:32:00,63.4,60.7,29.76,East,89,0.0,0.0,91,0.00,,,0.09,0.00,VWS V14.00,2013-03-23 00:32:00,
2013-03-22 19:33:00,63.4,60.7,29.76,East,84,0.0,0.0,91,0.00,,,0.09,0.00,VWS V14.00,2013-03-23 00:33:00,
2013-03-22 19:34:00,63.4,60.7,29.76,East,82,0.0,0.0,91,0.00,,,0.09,0.00,VWS V14.00,2013-03-23 00:34:00,
2013-03-22 19:35:00,63.4,60.7,29.76,ENE,73,0.0,0.0,91,0.00,,,0.09,0.00,VWS V14.00,2013-03-23 00:35:00,
2013-03-22 19:36:00,63.4,60.7,29.76,ENE,63,0.0,0.0,91,0.00,,,0.09,0.00,VWS V14.00,2013-03-23 00:36:00,
2013-03-22 19:37:00,63.4,60.7,29.76,ENE,62,0.0,0.0,91,0.00,,,0.09,0.00,VWS V14.00,2013-03-23 00:37:00,
2013-03-22 19:38:00,63.4,60.7,29.76,East,96,0.0,0.0,91,0.00,,,0.09,0.00,VWS V14.00,2013-03-23 00:38:00,
2013-03-22 19:39:00,63.4,60.7,29.76,East,84,0.0,0.0,91,0.00,,,0.09,0.00,VWS V14.00,2013-03-23 00:39:00,
2013-03-22 19:40:00,63.4,60.7,29.76,SE,132,0.0,0.0,91,0.00,,,0.09,0.00,VWS V14.00,2013-03-23 00:40:00,
2013-03-22 19:41:00,63.4,60.7,29.76,East,92,0.0,0.0,91,0.00,,,0.09,0.00,VWS V14.00,2013-03-23 00:41:00,
2013-03-22 19:43:00,63.4,60.7,29.76,ENE,65,0.0,0.0,91,0.00,,,0.09,0.00,VWS V14.00,2013-03-23 00:43:00,
2013-03-22 19:44:00,63.4,60.7,29.76,ENE,75,0.0,0.0,91,0.00,,,0.09,0.00,VWS V14.00,2013-03-23 00:44:00,
2013-03-22 19:45:00,63.4,60.7,29.76,East,93,0.0,0.0,91,0.00,,,0.09,0.00,VWS V14.00,2013-03-23 00:45:00,
2013-03-22 19:46:00,63.4,60.7,29.76,ENE,75,0.0,0.0,91,0.00,,,0.09,0.00,VWS V14.00,2013-03-23 00:46:00,
2013-03-22 19:47:00,63.4,60.7,29.76,East,86,0.0,0.0,91,0.00,,,0.09,0.00,VWS V14.00,2013-03-23 00:47:00,
2013-03-22 19:48:00,63.4,60.7,29.76,ESE,117,0.0,0.0,91,0.00,,,0.09,0.00,VWS V14.00,2013-03-23 00:48:00,
2013-03-22 19:49:00,63.4,60.7,29.76,ENE,78,0.0,0.0,91,0.00,,,0.09,0.00,VWS V14.00,2013-03-23 00:49:00,
2013-03-22 19:50:00,63.4,60.7,29.76,ENE,71,0.0,0.0,91,0.00,,,0.09,0.00,VWS V14.00,2013-03-23 00:50:00,
2013-03-22 19:51:00,63.4,60.7,29.76,ENE,59,0.0,0.0,91,0.00,,,0.09,0.00,VWS V14.00,2013-03-23 00:51:00,
2013-03-22 19:52:00,63.4,60.7,29.76,NE,42,0.0,0.0,91,0.00,,,0.09,0.00,VWS V14.00,2013-03-23 00:52:00,
2013-03-22 19:53:00,63.4,60.7,29.76,NNE,33,0.0,0.0,91,0.00,,,0.09,0.00,VWS V14.00,2013-03-23 00:53:00,
2013-03-22 19:54:00,63.4,60.7,29.76,East,96,0.0,0.0,91,0.00,,,0.09,0.00,VWS V14.00,2013-03-23 00:54:00,
2013-03-22 19:55:00,63.4,60.7,29.76,SE,131,0.0,0.0,91,0.00,,,0.09,0.00,VWS V14.00,2013-03-23 00:55:00,
2013-03-22 19:56:00,63.4,60.7,29.76,ENE,73,0.0,0.0,91,0.00,,,0.09,0.00,VWS V14.00,2013-03-23 00:56:00,
2013-03-22 19:57:00,63.4,60.7,29.76,NE,49,0.0,0.0,91,0.00,,,0.09,0.00,VWS V14.00,2013-03-23 00:57:00,
2013-03-22 19:58:00,63.4,60.7,29.76,ENE,58,0.0,0.0,91,0.00,,,0.09,0.00,VWS V14.00,2013-03-23 00:58:00,
2013-03-22 19:59:00,63.4,60.7,29.76,SE,143,0.0,0.0,91,0.00,,,0.09,0.00,VWS V14.00,2013-03-23 00:59:00,
2013-03-22 20:00:00,63.4,61.0,29.76,ENE,65,0.0,0.0,92,0.00,,,0.09,0.00,VWS V14.00,2013-03-23 01:00:00,
2013-03-22 20:01:00,63.4,61.0,29.76,ENE,63,0.0,0.0,92,0.00,,,0.09,0.00,VWS V14.00,2013-03-23 01:01:00,
2013-03-22 20:02:00,63.4,61.0,29.76,ENE,59,0.0,0.0,92,0.00,,,0.09,0.00,VWS V14.00,2013-03-23 01:02:00,
2013-03-22 20:03:00,63.4,61.0,29.76,East,80,0.0,0.0,92,0.00,,,0.09,0.00,VWS V14.00,2013-03-23 01:03:00,
2013-03-22 20:04:00,63.4,61.0,29.76,ENE,70,0.0,0.0,92,0.00,,,0.09,0.00,VWS V14.00,2013-03-23 01:04:00,
2013-03-22 20:05:00,63.4,61.0,29.76,ENE,72,0.0,0.0,92,0.00,,,0.09,0.00,VWS V14.00,2013-03-23 01:05:00,
2013-03-22 20:06:00,63.4,61.0,29.76,ENE,75,0.0,0.0,92,0.00,,,0.09,0.00,VWS V14.00,2013-03-23 01:06:00,
2013-03-22 20:07:00,63.4,61.0,29.76,East,84,0.0,0.0,92,0.00,,,0.09,0.00,VWS V14.00,2013-03-23 01:07:00,
2013-03-22 20:08:00,63.4,61.0,29.76,East,99,0.0,0.0,92,0.00,,,0.09,0.00,VWS V14.00,2013-03-23 01:08:00,
2013-03-22 20:09:00,63.4,61.0,29.76,ENE,76,0.0,0.0,92,0.00,,,0.09,0.00,VWS V14.00,2013-03-23 01:09:00,
2013-03-22 20:10:00,63.4,61.0,29.76,ENE,69,0.0,0.0,92,0.00,,,0.09,0.00,VWS V14.00,2013-03-23 01:10:00,
2013-03-22 20:11:00,63.4,61.0,29.76,ENE,70,0.0,0.0,92,0.00,,,0.09,0.00,VWS V14.00,2013-03-23 01:11:00,
2013-03-22 20:12:00,63.4,61.0,29.76,ESE,103,0.0,0.0,92,0.00,,,0.09,0.00,VWS V14.00,2013-03-23 01:12:00,
2013-03-22 20:13:00,63.4,61.0,29.76,East,95,0.0,0.0,92,0.00,,,0.09,0.00,VWS V14.00,2013-03-23 01:13:00,
2013-03-22 20:14:00,63.4,61.0,29.76,East,88,0.0,0.0,92,0.00,,,0.09,0.00,VWS V14.00,2013-03-23 01:14:00,
2013-03-22 20:15:00,63.4,61.0,29.76,NE,39,0.0,0.0,92,0.00,,,0.09,0.00,VWS V14.00,2013-03-23 01:15:00,
2013-03-22 20:16:00,63.4,61.0,29.76,ENE,71,0.0,0.0,92,0.00,,,0.09,0.00,VWS V14.00,2013-03-23 01:16:00,
2013-03-22 20:17:00,63.4,61.0,29.76,East,95,0.0,0.0,92,0.00,,,0.09,0.00,VWS V14.00,2013-03-23 01:17:00,
2013-03-22 20:18:00,63.4,61.0,29.76,East,87,0.0,0.0,92,0.00,,,0.09,0.00,VWS V14.00,2013-03-23 01:18:00,
2013-03-22 20:19:00,63.4,61.0,29.76,ESE,108,0.0,0.0,92,0.00,,,0.09,0.00,VWS V14.00,2013-03-23 01:19:00,
2013-03-22 20:20:00,63.4,61.0,29.76,ESE,116,0.0,0.0,92,0.00,,,0.09,0.00,VWS V14.00,2013-03-23 01:20:00,
2013-03-22 20:21:00,63.4,61.0,29.76,East,84,0.0,0.0,92,0.00,,,0.09,0.00,VWS V14.00,2013-03-23 01:21:00,
2013-03-22 20:22:00,63.4,61.0,29.76,NE,34,0.0,0.0,92,0.00,,,0.09,0.00,VWS V14.00,2013-03-23 01:22:00,
2013-03-22 20:23:00,63.4,61.0,29.76,ESE,117,0.0,0.0,92,0.00,,,0.09,0.00,VWS V14.00,2013-03-23 01:23:00,
2013-03-22 20:24:00,63.4,61.0,29.76,ENE,68,0.0,0.0,92,0.00,,,0.09,0.00,VWS V14.00,2013-03-23 01:24:00,
2013-03-22 20:25:00,63.4,61.0,29.76,SE,129,0.0,0.0,92,0.00,,,0.09,0.00,VWS V14.00,2013-03-23 01:25:00,
2013-03-22 20:26:00,63.4,61.0,29.76,ENE,74,0.0,0.0,92,0.00,,,0.09,0.00,VWS V14.00,2013-03-23 01:26:00,
2013-03-22 20:27:00,63.2,60.8,29.76,ENE,67,0.0,0.0,92,0.00,,,0.09,0.00,VWS V14.00,2013-03-23 01:27:00,
2013-03-22 20:28:00,63.2,60.8,29.76,NE,47,0.0,0.0,92,0.00,,,0.09,0.00,VWS V14.00,2013-03-23 01:28:00,
2013-03-22 20:29:00,63.2,60.8,29.76,East,86,0.0,0.0,92,0.00,,,0.09,0.00,VWS V14.00,2013-03-23 01:29:00,
2013-03-22 20:30:00,63.2,61.2,29.76,East,89,0.0,0.0,93,0.00,,,0.09,0.00,VWS V14.00,2013-03-23 01:30:00,
2013-03-22 20:31:00,63.2,61.2,29.76,ENE,75,0.0,0.0,93,0.00,,,0.09,0.00,VWS V14.00,2013-03-23 01:31:00,
2013-03-22 20:32:00,63.2,61.2,29.76,ENE,63,0.0,0.0,93,0.00,,,0.09,0.00,VWS V14.00,2013-03-23 01:32:00,
2013-03-22 20:33:00,63.2,61.2,29.76,East,89,0.0,0.0,93,0.00,,,0.09,0.00,VWS V14.00,2013-03-23 01:33:00,
2013-03-22 20:34:00,63.2,61.2,29.76,ENE,57,0.0,0.0,93,0.00,,,0.09,0.00,VWS V14.00,2013-03-23 01:34:00,
2013-03-22 20:35:00,63.2,61.2,29.76,SSE,153,0.0,0.0,93,0.00,,,0.09,0.00,VWS V14.00,2013-03-23 01:35:00,
2013-03-22 20:36:00,63.2,61.2,29.76,SE,136,0.0,0.0,93,0.00,,,0.09,0.00,VWS V14.00,2013-03-23 01:36:00,
2013-03-22 20:37:00,63.2,61.2,29.76,East,80,0.0,0.0,93,0.00,,,0.09,0.00,VWS V14.00,2013-03-23 01:37:00,
2013-03-22 20:38:00,63.2,61.2,29.76,ENE,67,0.0,0.0,93,0.00,,,0.09,0.00,VWS V14.00,2013-03-23 01:38:00,
2013-03-22 20:39:00,63.2,61.2,29.76,NE,50,0.0,0.0,93,0.00,,,0.09,0.00,VWS V14.00,2013-03-23 01:39:00,
2013-03-22 20:40:00,63.2,61.2,29.76,ENE,64,0.0,0.0,93,0.00,,,0.09,0.00,VWS V14.00,2013-03-23 01:40:00,
2013-03-22 20:41:00,63.2,61.2,29.76,ENE,72,0.0,0.0,93,0.00,,,0.09,0.00,VWS V14.00,2013-03-23 01:41:00,
2013-03-22 20:42:00,63.4,61.3,29.76,SSE,157,0.0,0.0,93,0.00,,,0.09,0.00,VWS V14.00,2013-03-23 01:42:00,
2013-03-22 20:43:00,63.2,61.2,29.76,East,85,0.0,0.0,93,0.00,,,0.09,0.00,VWS V14.00,2013-03-23 01:43:00,
2013-03-22 20:44:00,63.4,61.3,29.76,East,79,0.0,0.0,93,0.00,,,0.09,0.00,VWS V14.00,2013-03-23 01:44:00,
2013-03-22 20:45:00,63.4,61.3,29.76,SE,129,0.0,0.0,93,0.00,,,0.09,0.00,VWS V14.00,2013-03-23 01:45:00,
2013-03-22 20:46:00,63.4,61.3,29.76,ENE,69,0.0,0.0,93,0.00,,,0.09,0.00,VWS V14.00,2013-03-23 01:46:00,
2013-03-22 20:47:00,63.4,61.3,29.76,ESE,115,0.0,0.0,93,0.00,,,0.09,0.00,VWS V14.00,2013-03-23 01:47:00,
2013-03-22 20:48:00,63.4,61.3,29.76,East,96,0.0,0.0,93,0.00,,,0.09,0.00,VWS V14.00,2013-03-23 01:48:00,
2013-03-22 20:49:00,63.4,61.3,29.76,East,98,0.0,0.0,93,0.00,,,0.09,0.00,VWS V14.00,2013-03-23 01:49:00,
2013-03-22 20:50:00,63.4,61.3,29.76,East,86,0.0,0.0,93,0.00,,,0.09,0.00,VWS V14.00,2013-03-23 01:50:00,
2013-03-22 20:51:00,63.4,61.3,29.76,ENE,71,0.0,0.0,93,0.00,,,0.09,0.00,VWS V14.00,2013-03-23 01:51:00,
2013-03-22 20:52:00,63.4,61.3,29.76,SE,134,0.0,0.0,93,0.00,,,0.09,0.00,VWS V14.00,2013-03-23 01:52:00,
2013-03-22 20:53:00,63.4,61.3,29.76,ESE,120,0.0,0.0,93,0.00,,,0.09,0.00,VWS V14.00,2013-03-23 01:53:00,
2013-03-22 20:54:00,63.4,61.3,29.76,East,94,0.0,0.0,93,0.00,,,0.09,0.00,VWS V14.00,2013-03-23 01:54:00,
2013-03-22 20:55:00,63.4,61.3,29.76,ENE,64,0.0,0.0,93,0.00,,,0.09,0.00,VWS V14.00,2013-03-23 01:55:00,
2013-03-22 20:56:00,63.4,61.3,29.76,East,84,0.0,0.0,93,0.00,,,0.09,0.00,VWS V14.00,2013-03-23 01:56:00,
2013-03-22 20:57:00,63.4,61.3,29.76,East,80,0.0,0.0,93,0.00,,,0.09,0.00,VWS V14.00,2013-03-23 01:57:00,
2013-03-22 20:58:00,63.4,61.3,29.76,East,86,0.0,0.0,93,0.00,,,0.09,0.00,VWS V14.00,2013-03-23 01:58:00,
2013-03-22 20:59:00,63.4,61.3,29.76,East,86,0.0,0.0,93,0.00,,,0.09,0.00,VWS V14.00,2013-03-23 01:59:00,
2013-03-22 21:00:00,63.4,61.7,29.76,ESE,107,0.0,0.0,94,0.00,,,0.09,0.00,VWS V14.00,2013-03-23 02:00:00,
2013-03-22 21:01:00,63.4,61.7,29.76,SE,132,0.0,0.0,94,0.00,,,0.09,0.00,VWS V14.00,2013-03-23 02:01:00,
2013-03-22 21:02:00,63.4,61.7,29.76,ESE,118,0.0,0.0,94,0.00,,,0.09,0.00,VWS V14.00,2013-03-23 02:02:00,
2013-03-22 21:03:00,63.4,61.7,29.76,ENE,61,0.0,0.0,94,0.00,,,0.09,0.00,VWS V14.00,2013-03-23 02:03:00,
2013-03-22 21:04:00,63.4,61.7,29.76,ESE,123,0.0,0.0,94,0.00,,,0.09,0.00,VWS V14.00,2013-03-23 02:04:00,
2013-03-22 21:05:00,63.4,61.7,29.76,ESE,122,0.0,0.0,94,0.00,,,0.09,0.00,VWS V14.00,2013-03-23 02:05:00,
2013-03-22 21:06:00,63.4,61.7,29.76,East,99,0.0,0.0,94,0.00,,,0.09,0.00,VWS V14.00,2013-03-23 02:06:00,
2013-03-22 21:07:00,63.4,61.7,29.76,SE,142,0.0,0.0,94,0.00,,,0.09,0.00,VWS V14.00,2013-03-23 02:07:00,
2013-03-22 21:08:00,63.4,61.7,29.76,SE,141,0.0,0.0,94,0.00,,,0.09,0.00,VWS V14.00,2013-03-23 02:08:00,
2013-03-22 21:09:00,63.4,61.7,29.76,ESE,108,0.0,0.0,94,0.00,,,0.09,0.00,VWS V14.00,2013-03-23 02:09:00,
2013-03-22 21:10:00,63.4,61.7,29.76,East,80,0.0,0.0,94,0.00,,,0.09,0.00,VWS V14.00,2013-03-23 02:10:00,
2013-03-22 21:11:00,63.4,61.7,29.76,ENE,76,0.0,0.0,94,0.00,,,0.09,0.00,VWS V14.00,2013-03-23 02:11:00,
2013-03-22 21:12:00,63.4,61.7,29.76,NE,55,0.0,0.0,94,0.00,,,0.09,0.00,VWS V14.00,2013-03-23 02:12:00,
2013-03-22 21:13:00,63.5,61.8,29.76,ENE,73,0.0,0.0,94,0.00,,,0.09,0.00,VWS V14.00,2013-03-23 02:13:00,
2013-03-22 21:14:00,63.5,61.8,29.77,SE,124,0.0,0.0,94,0.00,,,0.09,0.00,VWS V14.00,2013-03-23 02:14:00,
2013-03-22 21:15:00,63.5,61.8,29.77,SSE,157,0.0,0.0,94,0.00,,,0.09,0.00,VWS V14.00,2013-03-23 02:15:00,
2013-03-22 21:16:00,63.5,61.8,29.77,ESE,105,0.0,0.0,94,0.00,,,0.09,0.00,VWS V14.00,2013-03-23 02:16:00,
2013-03-22 21:17:00,63.5,61.8,29.77,NNE,19,0.0,0.0,94,0.00,,,0.09,0.00,VWS V14.00,2013-03-23 02:17:00,
2013-03-22 21:18:00,63.5,61.8,29.77,East,81,0.0,0.0,94,0.00,,,0.09,0.00,VWS V14.00,2013-03-23 02:18:00,
2013-03-22 21:19:00,63.5,61.8,29.77,ENE,62,0.0,0.0,94,0.00,,,0.09,0.00,VWS V14.00,2013-03-23 02:19:00,
2013-03-22 21:20:00,63.5,61.8,29.77,ENE,67,0.0,0.0,94,0.00,,,0.09,0.00,VWS V14.00,2013-03-23 02:20:00,
2013-03-22 21:21:00,63.5,61.8,29.77,ESE,115,0.0,0.0,94,0.00,,,0.09,0.00,VWS V14.00,2013-03-23 02:21:00,
2013-03-22 21:22:00,63.5,61.8,29.77,NE,46,0.0,0.0,94,0.00,,,0.09,0.00,VWS V14.00,2013-03-23 02:22:00,
2013-03-22 21:23:00,63.5,61.8,29.77,ENE,61,0.0,0.0,94,0.00,,,0.09,0.00,VWS V14.00,2013-03-23 02:23:00,
2013-03-22 21:24:00,63.5,61.8,29.77,NE,43,0.0,0.0,94,0.00,,,0.09,0.00,VWS V14.00,2013-03-23 02:24:00,
2013-03-22 21:25:00,63.5,61.8,29.77,NE,56,0.0,0.0,94,0.00,,,0.09,0.00,VWS V14.00,2013-03-23 02:25:00,
2013-03-22 21:26:00,63.5,61.8,29.77,ENE,78,0.0,0.0,94,0.00,,,0.09,0.00,VWS V14.00,2013-03-23 02:26:00,
2013-03-22 21:27:00,63.5,61.8,29.77,East,86,0.0,0.0,94,0.00,,,0.09,0.00,VWS V14.00,2013-03-23 02:27:00,
2013-03-22 21:28:00,63.5,61.8,29.77,ENE,74,0.0,0.0,94,0.00,,,0.09,0.00,VWS V14.00,2013-03-23 02:28:00,
2013-03-22 21:29:00,63.5,61.8,29.77,ENE,74,0.0,0.0,94,0.00,,,0.09,0.00,VWS V14.00,2013-03-23 02:29:00,
2013-03-22 21:30:00,63.7,62.0,29.77,ENE,61,0.0,0.0,94,0.00,,,0.09,0.00,VWS V14.00,2013-03-23 02:30:00,
2013-03-22 21:31:00,63.7,62.0,29.77,East,80,0.0,0.0,94,0.00,,,0.09,0.00,VWS V14.00,2013-03-23 02:31:00,
2013-03-22 21:32:00,63.7,62.0,29.77,East,90,0.0,0.0,94,0.00,,,0.09,0.00,VWS V14.00,2013-03-23 02:32:00,
2013-03-22 21:33:00,63.7,62.0,29.77,East,80,0.0,0.0,94,0.00,,,0.09,0.00,VWS V14.00,2013-03-23 02:33:00,
2013-03-22 21:34:00,63.7,62.0,29.77,East,88,0.0,0.0,94,0.00,,,0.09,0.00,VWS V14.00,2013-03-23 02:34:00,
2013-03-22 21:35:00,63.7,62.0,29.77,East,93,0.0,0.0,94,0.00,,,0.09,0.00,VWS V14.00,2013-03-23 02:35:00,
2013-03-22 21:36:00,63.7,62.0,29.77,ENE,71,0.0,0.0,94,0.00,,,0.09,0.00,VWS V14.00,2013-03-23 02:36:00,
2013-03-22 21:37:00,63.7,62.0,29.77,East,82,0.0,0.0,94,0.00,,,0.09,0.00,VWS V14.00,2013-03-23 02:37:00,
2013-03-22 21:38:00,63.7,62.0,29.77,ENE,70,0.0,0.0,94,0.00,,,0.09,0.00,VWS V14.00,2013-03-23 02:38:00,
2013-03-22 21:39:00,63.7,62.0,29.77,ENE,72,0.0,0.0,94,0.00,,,0.09,0.00,VWS V14.00,2013-03-23 02:39:00,
2013-03-22 21:40:00,63.7,62.0,29.77,SE,143,0.0,0.0,94,0.00,,,0.09,0.00,VWS V14.00,2013-03-23 02:40:00,
2013-03-22 21:41:00,63.7,62.0,29.77,ENE,63,0.0,0.0,94,0.00,,,0.09,0.00,VWS V14.00,2013-03-23 02:41:00,
2013-03-22 21:42:00,63.7,62.0,29.77,ENE,69,0.0,0.0,94,0.00,,,0.09,0.00,VWS V14.00,2013-03-23 02:42:00,
2013-03-22 21:43:00,63.7,62.0,29.77,ENE,59,0.0,0.0,94,0.00,,,0.09,0.00,VWS V14.00,2013-03-23 02:43:00,
2013-03-22 21:44:00,63.7,62.0,29.78,ENE,68,0.0,0.0,94,0.00,,,0.09,0.00,VWS V14.00,2013-03-23 02:44:00,
2013-03-22 21:45:00,63.7,62.0,29.78,ENE,71,0.0,0.0,94,0.00,,,0.09,0.00,VWS V14.00,2013-03-23 02:45:00,
2013-03-22 21:46:00,63.7,62.0,29.78,NE,47,0.0,0.0,94,0.00,,,0.09,0.00,VWS V14.00,2013-03-23 02:46:00,
2013-03-22 21:48:00,63.7,62.0,29.78,ENE,74,0.0,0.0,94,0.00,,,0.09,0.00,VWS V14.00,2013-03-23 02:48:00,
2013-03-22 21:49:00,63.7,62.0,29.78,ENE,78,0.0,0.0,94,0.00,,,0.09,0.00,VWS V14.00,2013-03-23 02:49:00,
2013-03-22 21:50:00,63.7,62.0,29.78,ENE,69,0.0,0.0,94,0.00,,,0.09,0.00,VWS V14.00,2013-03-23 02:50:00,
2013-03-22 21:51:00,63.7,62.0,29.78,East,79,0.0,0.0,94,0.00,,,0.09,0.00,VWS V14.00,2013-03-23 02:51:00,
2013-03-22 21:52:00,63.7,62.0,29.78,East,83,0.0,0.0,94,0.00,,,0.09,0.00,VWS V14.00,2013-03-23 02:52:00,
2013-03-22 21:53:00,63.7,62.0,29.78,NE,51,0.0,0.0,94,0.00,,,0.09,0.00,VWS V14.00,2013-03-23 02:53:00,
2013-03-22 21:54:00,63.7,62.0,29.78,NE,42,0.0,0.0,94,0.00,,,0.09,0.00,VWS V14.00,2013-03-23 02:54:00,
2013-03-22 21:55:00,63.7,62.0,29.78,East,87,0.0,0.0,94,0.00,,,0.09,0.00,VWS V14.00,2013-03-23 02:55:00,
2013-03-22 21:56:00,63.7,62.0,29.78,East,86,0.0,0.0,94,0.00,,,0.09,0.00,VWS V14.00,2013-03-23 02:56:00,
2013-03-22 21:57:00,63.7,62.0,29.78,NNW,342,0.0,0.0,94,0.00,,,0.09,0.00,VWS V14.00,2013-03-23 02:57:00,
2013-03-22 21:58:00,63.7,62.0,29.78,East,79,0.0,0.0,94,0.00,,,0.09,0.00,VWS V14.00,2013-03-23 02:58:00,
2013-03-22 21:59:00,63.7,62.0,29.78,South,173,0.0,0.0,94,0.00,,,0.09,0.00,VWS V14.00,2013-03-23 02:59:00,
2013-03-22 22:00:00,63.7,62.0,29.78,East,100,0.0,0.0,94,0.00,,,0.09,0.00,VWS V14.00,2013-03-23 03:00:00,
2013-03-22 22:01:00,63.7,62.0,29.78,ENE,67,0.0,0.0,94,0.00,,,0.09,0.00,VWS V14.00,2013-03-23 03:01:00,
2013-03-22 22:02:00,63.7,62.0,29.78,NE,51,0.0,0.0,94,0.00,,,0.09,0.00,VWS V14.00,2013-03-23 03:02:00,
2013-03-22 22:03:00,63.7,62.0,29.78,ENE,67,0.0,0.0,94,0.00,,,0.09,0.00,VWS V14.00,2013-03-23 03:03:00,
2013-03-22 22:04:00,63.7,62.0,29.78,ENE,71,0.0,0.0,94,0.00,,,0.09,0.00,VWS V14.00,2013-03-23 03:04:00,
2013-03-22 22:05:00,63.7,62.0,29.78,NE,36,0.0,0.0,94,0.00,,,0.09,0.00,VWS V14.00,2013-03-23 03:05:00,
2013-03-22 22:06:00,63.7,62.0,29.78,NE,49,0.0,0.0,94,0.00,,,0.09,0.00,VWS V14.00,2013-03-23 03:06:00,
2013-03-22 22:07:00,63.7,62.0,29.78,East,88,0.0,0.0,94,0.00,,,0.09,0.00,VWS V14.00,2013-03-23 03:07:00,
2013-03-22 22:08:00,63.7,62.0,29.78,East,83,0.0,0.0,94,0.00,,,0.09,0.00,VWS V14.00,2013-03-23 03:08:00,
2013-03-22 22:09:00,63.7,62.0,29.78,ENE,65,0.0,0.0,94,0.00,,,0.09,0.00,VWS V14.00,2013-03-23 03:09:00,
2013-03-22 22:10:00,63.7,62.0,29.78,ENE,57,0.0,0.0,94,0.00,,,0.09,0.00,VWS V14.00,2013-03-23 03:10:00,
2013-03-22 22:11:00,63.7,62.0,29.78,ENE,73,0.0,0.0,94,0.00,,,0.09,0.00,VWS V14.00,2013-03-23 03:11:00,
2013-03-22 22:12:00,63.7,62.0,29.78,East,92,0.0,0.0,94,0.00,,,0.09,0.00,VWS V14.00,2013-03-23 03:12:00,
2013-03-22 22:13:00,63.7,62.0,29.78,ENE,71,0.0,0.0,94,0.00,,,0.09,0.00,VWS V14.00,2013-03-23 03:13:00,
2013-03-22 22:14:00,63.7,62.0,29.78,ENE,59,0.0,0.0,94,0.00,,,0.09,0.00,VWS V14.00,2013-03-23 03:14:00,
2013-03-22 22:15:00,63.7,62.0,29.78,NE,46,0.0,0.0,94,0.00,,,0.09,0.00,VWS V14.00,2013-03-23 03:15:00,
2013-03-22 22:16:00,63.7,62.0,29.78,NE,50,0.0,0.0,94,0.00,,,0.09,0.00,VWS V14.00,2013-03-23 03:16:00,
2013-03-22 22:17:00,63.7,62.0,29.78,NE,54,0.0,0.0,94,0.00,,,0.09,0.00,VWS V14.00,2013-03-23 03:17:00,
2013-03-22 22:18:00,63.7,62.0,29.78,ESE,103,0.0,0.0,94,0.00,,,0.09,0.00,VWS V14.00,2013-03-23 03:18:00,
2013-03-22 22:19:00,63.7,62.0,29.78,ENE,76,0.0,0.0,94,0.00,,,0.09,0.00,VWS V14.00,2013-03-23 03:19:00,
2013-03-22 22:20:00,63.7,62.0,29.78,East,79,0.0,0.0,94,0.00,,,0.09,0.00,VWS V14.00,2013-03-23 03:20:00,
2013-03-22 22:21:00,63.7,62.0,29.78,ENE,65,0.0,0.0,94,0.00,,,0.09,0.00,VWS V14.00,2013-03-23 03:21:00,
2013-03-22 22:22:00,63.7,62.0,29.78,ENE,62,0.0,0.0,94,0.00,,,0.09,0.00,VWS V14.00,2013-03-23 03:22:00,
2013-03-22 22:23:00,63.7,62.0,29.78,ESE,112,0.0,0.0,94,0.00,,,0.09,0.00,VWS V14.00,2013-03-23 03:23:00,
2013-03-22 22:24:00,63.7,62.0,29.78,East,95,0.0,0.0,94,0.00,,,0.09,0.00,VWS V14.00,2013-03-23 03:24:00,
2013-03-22 22:25:00,63.7,62.0,29.78,ENE,65,0.0,0.0,94,0.00,,,0.09,0.00,VWS V14.00,2013-03-23 03:25:00,
2013-03-22 22:26:00,63.7,62.0,29.78,ENE,72,0.0,0.0,94,0.00,,,0.09,0.00,VWS V14.00,2013-03-23 03:26:00,
2013-03-22 22:27:00,63.7,62.0,29.78,East,82,0.0,0.0,94,0.00,,,0.09,0.00,VWS V14.00,2013-03-23 03:27:00,
2013-03-22 22:28:00,63.7,62.0,29.78,ENE,57,0.0,0.0,94,0.00,,,0.09,0.00,VWS V14.00,2013-03-23 03:28:00,
2013-03-22 22:29:00,63.7,62.2,29.78,ENE,69,0.0,0.0,95,0.00,,,0.09,0.00,VWS V14.00,2013-03-23 03:29:00,
2013-03-22 22:30:00,63.7,62.0,29.78,NE,54,0.0,0.0,94,0.00,,,0.09,0.00,VWS V14.00,2013-03-23 03:30:00,
2013-03-22 22:31:00,63.7,62.0,29.78,ESE,105,0.0,0.0,94,0.00,,,0.09,0.00,VWS V14.00,2013-03-23 03:31:00,
2013-03-22 22:32:00,63.7,62.2,29.78,ESE,105,0.0,0.0,95,0.00,,,0.09,0.00,VWS V14.00,2013-03-23 03:32:00,
2013-03-22 22:33:00,63.7,62.2,29.78,East,85,0.0,0.0,95,0.00,,,0.09,0.00,VWS V14.00,2013-03-23 03:33:00,
2013-03-22 22:34:00,63.7,62.2,29.78,East,84,0.0,0.0,95,0.00,,,0.09,0.00,VWS V14.00,2013-03-23 03:34:00,
2013-03-22 22:35:00,63.7,62.2,29.78,NE,51,0.0,0.0,95,0.00,,,0.09,0.00,VWS V14.00,2013-03-23 03:35:00,
2013-03-22 22:36:00,63.7,62.2,29.78,ENE,64,0.0,0.0,95,0.00,,,0.09,0.00,VWS V14.00,2013-03-23 03:36:00,
2013-03-22 22:37:00,63.7,62.2,29.78,ENE,59,0.0,0.0,95,0.00,,,0.09,0.00,VWS V14.00,2013-03-23 03:37:00,
2013-03-22 22:38:00,63.7,62.2,29.78,East,84,0.0,0.0,95,0.00,,,0.09,0.00,VWS V14.00,2013-03-23 03:38:00,
2013-03-22 22:39:00,63.7,62.2,29.78,East,84,0.0,0.0,95,0.00,,,0.09,0.00,VWS V14.00,2013-03-23 03:39:00,
2013-03-22 22:40:00,63.7,62.2,29.78,East,93,0.0,0.0,95,0.00,,,0.09,0.00,VWS V14.00,2013-03-23 03:40:00,
2013-03-22 22:41:00,63.7,62.2,29.78,East,86,0.0,0.0,95,0.00,,,0.09,0.00,VWS V14.00,2013-03-23 03:41:00,
2013-03-22 22:42:00,63.7,62.2,29.78,ENE,67,0.0,0.0,95,0.00,,,0.09,0.00,VWS V14.00,2013-03-23 03:42:00,
2013-03-22 22:43:00,63.7,62.2,29.78,ENE,69,0.0,0.0,95,0.00,,,0.09,0.00,VWS V14.00,2013-03-23 03:43:00,
2013-03-22 22:44:00,63.7,62.2,29.78,ENE,74,0.0,0.0,95,0.00,,,0.09,0.00,VWS V14.00,2013-03-23 03:44:00,
2013-03-22 22:45:00,63.7,62.2,29.79,ENE,74,0.0,0.0,95,0.00,,,0.09,0.00,VWS V14.00,2013-03-23 03:45:00,
2013-03-22 22:46:00,63.7,62.2,29.79,NE,49,0.0,0.0,95,0.00,,,0.09,0.00,VWS V14.00,2013-03-23 03:46:00,
2013-03-22 22:47:00,63.7,62.2,29.79,ENE,65,0.0,0.0,95,0.00,,,0.09,0.00,VWS V14.00,2013-03-23 03:47:00,
2013-03-22 22:48:00,63.7,62.2,29.79,ENE,64,0.0,0.0,95,0.00,,,0.09,0.00,VWS V14.00,2013-03-23 03:48:00,
2013-03-22 22:49:00,63.7,62.2,29.79,ESE,107,0.0,0.0,95,0.00,,,0.09,0.00,VWS V14.00,2013-03-23 03:49:00,
2013-03-22 22:50:00,63.7,62.2,29.79,ESE,107,0.0,0.0,95,0.00,,,0.09,0.00,VWS V14.00,2013-03-23 03:50:00,
2013-03-22 22:51:00,63.7,62.2,29.79,NE,51,0.0,0.0,95,0.00,,,0.09,0.00,VWS V14.00,2013-03-23 03:51:00,
2013-03-22 22:52:00,63.7,62.2,29.79,SSE,160,0.0,0.0,95,0.00,,,0.09,0.00,VWS V14.00,2013-03-23 03:52:00,
2013-03-22 22:53:00,63.7,62.2,29.79,ENE,72,0.0,0.0,95,0.00,,,0.09,0.00,VWS V14.00,2013-03-23 03:53:00,
2013-03-22 22:54:00,63.7,62.2,29.79,ENE,63,0.0,0.0,95,0.00,,,0.09,0.00,VWS V14.00,2013-03-23 03:54:00,
2013-03-22 22:55:00,63.7,62.2,29.79,ENE,67,0.0,0.0,95,0.00,,,0.09,0.00,VWS V14.00,2013-03-23 03:55:00,
2013-03-22 22:56:00,63.7,62.2,29.79,NE,46,0.0,0.0,95,0.00,,,0.09,0.00,VWS V14.00,2013-03-23 03:56:00,
2013-03-22 22:57:00,63.5,62.0,29.79,ENE,67,0.0,0.0,95,0.00,,,0.09,0.00,VWS V14.00,2013-03-23 03:57:00,
2013-03-22 22:58:00,63.5,62.0,29.79,ENE,67,0.0,0.0,95,0.00,,,0.09,0.00,VWS V14.00,2013-03-23 03:58:00,
2013-03-22 22:59:00,63.5,62.0,29.79,ENE,67,0.0,0.0,95,0.00,,,0.09,0.00,VWS V14.00,2013-03-23 03:59:00,
2013-03-22 23:00:00,63.5,62.0,29.78,ENE,78,0.0,0.0,95,0.00,,,0.09,0.00,VWS V14.00,2013-03-23 04:00:00,
2013-03-22 23:01:00,63.5,62.0,29.78,ENE,78,0.0,0.0,95,0.00,,,0.09,0.00,VWS V14.00,2013-03-23 04:01:00,
2013-03-22 23:02:00,63.5,62.0,29.78,ESE,122,0.0,0.0,95,0.00,,,0.09,0.00,VWS V14.00,2013-03-23 04:02:00,
2013-03-22 23:03:00,63.5,62.0,29.78,ESE,117,0.0,0.0,95,0.00,,,0.09,0.00,VWS V14.00,2013-03-23 04:03:00,
2013-03-22 23:04:00,63.5,62.0,29.78,ENE,67,0.0,0.0,95,0.00,,,0.09,0.00,VWS V14.00,2013-03-23 04:04:00,
2013-03-22 23:05:00,63.5,62.0,29.78,ENE,68,0.0,0.0,95,0.00,,,0.09,0.00,VWS V14.00,2013-03-23 04:05:00,
2013-03-22 23:06:00,63.5,62.0,29.78,ENE,65,0.0,0.0,95,0.00,,,0.09,0.00,VWS V14.00,2013-03-23 04:06:00,
2013-03-22 23:07:00,63.5,62.0,29.78,ENE,61,0.0,0.0,95,0.00,,,0.09,0.00,VWS V14.00,2013-03-23 04:07:00,
2013-03-22 23:08:00,63.5,62.0,29.78,East,84,0.0,0.0,95,0.00,,,0.09,0.00,VWS V14.00,2013-03-23 04:08:00,
2013-03-22 23:09:00,63.5,62.0,29.78,East,96,0.0,0.0,95,0.00,,,0.09,0.00,VWS V14.00,2013-03-23 04:09:00,
2013-03-22 23:10:00,63.5,62.0,29.78,East,84,0.0,0.0,95,0.00,,,0.09,0.00,VWS V14.00,2013-03-23 04:10:00,
2013-03-22 23:11:00,63.5,62.0,29.78,East,98,0.0,0.0,95,0.00,,,0.09,0.00,VWS V14.00,2013-03-23 04:11:00,
2013-03-22 23:12:00,63.5,62.0,29.78,East,84,0.0,0.0,95,0.00,,,0.09,0.00,VWS V14.00,2013-03-23 04:12:00,
2013-03-22 23:13:00,63.4,62.0,29.78,East,92,0.0,0.0,95,0.00,,,0.09,0.00,VWS V14.00,2013-03-23 04:13:00,
2013-03-22 23:14:00,63.4,62.0,29.78,East,92,0.0,0.0,95,0.00,,,0.09,0.00,VWS V14.00,2013-03-23 04:14:00,
2013-03-22 23:15:00,63.4,62.0,29.78,East,92,0.0,0.0,95,0.00,,,0.09,0.00,VWS V14.00,2013-03-23 04:15:00,
2013-03-22 23:16:00,63.4,62.0,29.78,ENE,71,0.0,0.0,95,0.00,,,0.09,0.00,VWS V14.00,2013-03-23 04:16:00,
2013-03-22 23:17:00,63.4,62.0,29.78,SSE,150,0.0,0.0,95,0.00,,,0.09,0.00,VWS V14.00,2013-03-23 04:17:00,
2013-03-22 23:18:00,63.4,62.0,29.78,East,100,0.0,0.0,95,0.00,,,0.09,0.00,VWS V14.00,2013-03-23 04:18:00,
2013-03-22 23:19:00,63.4,62.0,29.78,ENE,78,0.0,0.0,95,0.00,,,0.09,0.00,VWS V14.00,2013-03-23 04:19:00,
2013-03-22 23:20:00,63.4,62.0,29.78,ENE,78,0.0,0.0,95,0.00,,,0.09,0.00,VWS V14.00,2013-03-23 04:20:00,
2013-03-22 23:21:00,63.4,62.0,29.78,East,81,0.0,0.0,95,0.00,,,0.09,0.00,VWS V14.00,2013-03-23 04:21:00,
2013-03-22 23:22:00,63.4,62.0,29.78,East,80,0.0,0.0,95,0.00,,,0.09,0.00,VWS V14.00,2013-03-23 04:22:00,
2013-03-22 23:23:00,63.4,62.0,29.78,ENE,66,0.0,0.0,95,0.00,,,0.09,0.00,VWS V14.00,2013-03-23 04:23:00,
2013-03-22 23:24:00,63.4,62.0,29.78,East,86,0.0,0.0,95,0.00,,,0.09,0.00,VWS V14.00,2013-03-23 04:24:00,
2013-03-22 23:25:00,63.4,62.0,29.78,SE,137,0.0,0.0,95,0.00,,,0.09,0.00,VWS V14.00,2013-03-23 04:25:00,
2013-03-22 23:26:00,63.4,62.0,29.78,East,91,0.0,0.0,95,0.00,,,0.09,0.00,VWS V14.00,2013-03-23 04:26:00,
2013-03-22 23:27:00,63.2,61.8,29.78,ENE,68,0.0,0.0,95,0.00,,,0.09,0.00,VWS V14.00,2013-03-23 04:27:00,
2013-03-22 23:28:00,63.2,61.8,29.78,ENE,71,0.0,0.0,95,0.00,,,0.09,0.00,VWS V14.00,2013-03-23 04:28:00,
2013-03-22 23:29:00,63.2,61.8,29.79,ENE,71,0.0,0.0,95,0.00,,,0.09,0.00,VWS V14.00,2013-03-23 04:29:00,
2013-03-22 23:30:00,63.2,61.8,29.79,ENE,71,0.0,0.0,95,0.00,,,0.09,0.00,VWS V14.00,2013-03-23 04:30:00,
2013-03-22 23:31:00,63.2,61.8,29.79,South,173,0.0,0.0,95,0.00,,,0.09,0.00,VWS V14.00,2013-03-23 04:31:00,
2013-03-22 23:32:00,63.2,61.8,29.79,ENE,61,0.0,0.0,95,0.00,,,0.09,0.00,VWS V14.00,2013-03-23 04:32:00,
2013-03-22 23:33:00,63.2,61.8,29.79,ENE,72,0.0,0.0,95,0.00,,,0.09,0.00,VWS V14.00,2013-03-23 04:33:00,
2013-03-22 23:34:00,63.2,61.8,29.79,SE,133,0.0,0.0,95,0.00,,,0.09,0.00,VWS V14.00,2013-03-23 04:34:00,
2013-03-22 23:35:00,63.2,61.8,29.79,ENE,63,0.0,0.0,95,0.00,,,0.09,0.00,VWS V14.00,2013-03-23 04:35:00,
2013-03-22 23:36:00,63.2,61.8,29.79,East,99,0.0,0.0,95,0.00,,,0.09,0.00,VWS V14.00,2013-03-23 04:36:00,
2013-03-22 23:37:00,63.2,61.8,29.79,East,96,0.0,0.0,95,0.00,,,0.09,0.00,VWS V14.00,2013-03-23 04:37:00,
2013-03-22 23:38:00,63.2,61.8,29.79,South,183,0.0,0.0,95,0.00,,,0.09,0.00,VWS V14.00,2013-03-23 04:38:00,
2013-03-22 23:39:00,63.2,61.8,29.79,NE,38,0.0,0.0,95,0.00,,,0.09,0.00,VWS V14.00,2013-03-23 04:39:00,
2013-03-22 23:40:00,63.2,61.8,29.79,NE,43,0.0,0.0,95,0.00,,,0.09,0.00,VWS V14.00,2013-03-23 04:40:00,
2013-03-22 23:41:00,63.2,61.8,29.79,ENE,65,0.0,0.0,95,0.00,,,0.09,0.00,VWS V14.00,2013-03-23 04:41:00,
2013-03-22 23:42:00,63.2,61.8,29.79,ENE,74,0.0,0.0,95,0.00,,,0.09,0.00,VWS V14.00,2013-03-23 04:42:00,
2013-03-22 23:43:00,63.2,61.8,29.79,ENE,74,0.0,0.0,95,0.00,,,0.09,0.00,VWS V14.00,2013-03-23 04:43:00,
2013-03-22 23:44:00,63.2,61.8,29.79,ENE,74,0.0,0.0,95,0.00,,,0.09,0.00,VWS V14.00,2013-03-23 04:44:00,
2013-03-22 23:45:00,63.2,61.8,29.79,ENE,76,0.0,0.0,95,0.00,,,0.09,0.00,VWS V14.00,2013-03-23 04:45:00,
2013-03-22 23:46:00,63.2,61.8,29.79,NE,56,0.0,0.0,95,0.00,,,0.09,0.00,VWS V14.00,2013-03-23 04:46:00,
2013-03-22 23:47:00,63.2,61.8,29.79,ENE,61,0.0,0.0,95,0.00,,,0.09,0.00,VWS V14.00,2013-03-23 04:47:00,
2013-03-22 23:48:00,63.2,61.8,29.79,ENE,69,0.0,0.0,95,0.00,,,0.09,0.00,VWS V14.00,2013-03-23 04:48:00,
2013-03-22 23:49:00,63.2,61.8,29.79,NNE,31,0.0,0.0,95,0.00,,,0.09,0.00,VWS V14.00,2013-03-23 04:49:00,
2013-03-22 23:50:00,63.2,61.8,29.79,ENE,72,0.0,0.0,95,0.00,,,0.09,0.00,VWS V14.00,2013-03-23 04:50:00,
2013-03-22 23:51:00,63.2,61.8,29.79,ENE,74,0.0,0.0,95,0.00,,,0.09,0.00,VWS V14.00,2013-03-23 04:51:00,
2013-03-22 23:52:00,63.2,61.8,29.79,ENE,63,0.0,0.0,95,0.00,,,0.09,0.00,VWS V14.00,2013-03-23 04:52:00,
2013-03-22 23:53:00,63.2,61.8,29.79,ENE,63,0.0,0.0,95,0.00,,,0.09,0.00,VWS V14.00,2013-03-23 04:53:00,
2013-03-22 23:54:00,63.2,61.8,29.79,ENE,63,0.0,0.0,95,0.00,,,0.09,0.00,VWS V14.00,2013-03-23 04:54:00,
2013-03-22 23:55:00,63.2,61.8,29.79,NE,56,0.0,0.0,95,0.00,,,0.09,0.00,VWS V14.00,2013-03-23 04:55:00,
2013-03-22 23:56:00,63.2,61.8,29.79,ENE,74,0.0,0.0,95,0.00,,,0.09,0.00,VWS V14.00,2013-03-23 04:56:00,
2013-03-22 23:57:00,63.2,61.8,29.79,East,85,0.0,0.0,95,0.00,,,0.09,0.00,VWS V14.00,2013-03-23 04:57:00,
2013-03-22 23:58:00,63.2,61.8,29.79,East,85,0.0,0.0,95,0.00,,,0.09,0.00,VWS V14.00,2013-03-23 04:58:00,
2013-03-22 23:59:00,63.2,61.8,29.78,East,82,0.0,0.0,95,0.00,,,0.09,0.00,VWS V14.00,2013-03-23 04:59:00,